[[{"header":{"parameterUnit":"m.s-1","parameterCategory":1,"la1":30.6,"la2":29.2853,"lo1":-89.7004,"lo2":-87.6739,"dy":0.0162,"dx":0.0183,"nx":112,"ny":82,"refTime":"2025-08-07T12:00:00:Z","depth":0,"parameterNumber":2,"parameterNumberName":"U-component_of_WINDS"},"data":[0.0,0.0,0.0,0.0,0.0,0.0,0.0,0.0,0.0,0.0,0.0,0.0,0.0,0.0,0.0,0.0,0.0,0.0,0.0,0.0,0.0,0.0,0.0,0.0,0.0,0.0,0.0,0.0,0.0,0.0,0.0,0.0,0.0,0.0,0.0,0.0,0.0,0.0,0.0,0.0,0.0,0.0,0.0,0.0,0.0,0.0,0.0,0.0,0.0,0.0,0.0,0.0,0.0,0.0,0.0,0.0,0.0,0.0,0.0,0.0,0.0,0.0,0.0,0.0,0.0,0.0,0.0,0.0,0.0,0.0,0.0,0.0,0.0,0.0,0.0,0.0,0.0,0.0,0.0,0.0,0.0,0.0,0.0,0.0,0.0,0.0,0.0,0.0,0.0,0.0,1.7243,1.8919,2.1502,2.3091,2.3091,2.2246,2.084,1.8822,0.0,0.0,0.0,0.0,0.0,0.0,0.0,0.0,0.0,0.0,0.0,0.0,0.0,0.0,0.0,0.0,0.0,0.0,0.0,0.0,0.0,0.0,0.0,0.0,0.0,0.0,0.0,0.0,0.0,0.0,0.0,0.0,0.0,0.0,0.0,0.0,0.0,0.0,0.0,0.0,0.0,0.0,0.0,0.0,0.0,0.0,0.0,0.0,0.0,0.0,0.0,0.0,0.0,0.0,0.0,0.0,0.0,0.0,0.0,0.0,0.0,0.0,0.0,0.0,0.0,0.0,0.0,0.0,0.0,0.0,0.0,0.0,0.0,0.0,0.0,0.0,0.0,0.0,0.0,0.0,0.0,0.0,0.0,0.0,0.0,0.0,0.0,0.0,0.0,0.0,0.0,0.0,0.0,0.0,0.0,0.0,0.0,0.0,0.0,0.0,0.0,0.0,0.0,0.0,1.7543,2.1016,2.2441,2.3091,2.3091,2.168,2.0351,1.9258,0.0,0.0,0.0,0.0,0.0,0.0,0.0,0.0,0.0,0.0,0.0,0.0,0.0,0.0,0.0,0.0,0.0,0.0,0.0,0.0,0.0,0.0,0.0,0.0,0.0,0.0,0.0,0.0,0.0,0.0,0.0,0.0,0.0,0.0,0.0,0.0,0.0,0.0,0.0,0.0,0.0,0.0,0.0,0.0,0.0,0.0,0.0,0.0,0.0,0.0,0.0,0.0,0.0,0.0,0.0,0.0,0.0,0.0,0.0,0.0,0.0,0.0,0.0,0.0,0.0,0.0,0.0,0.0,0.0,0.0,0.0,0.0,0.0,0.0,0.0,0.0,0.0,0.0,0.0,0.0,0.0,0.0,0.0,0.0,0.0,0.0,0.0,0.0,0.0,0.0,0.0,0.0,0.0,0.0,0.0,0.0,0.0,0.0,0.0,0.0,0.0,0.0,0.0,1.7119,1.8769,2.2197,2.2867,2.3091,2.3091,2.1553,2.0233,1.9382,1.7012,0.0,0.0,0.0,0.0,0.0,0.0,0.0,0.0,0.0,0.0,0.0,0.0,0.0,0.0,0.0,0.0,0.0,0.0,0.0,0.0,0.0,0.0,0.0,0.0,0.0,0.0,0.0,0.0,0.0,0.0,0.0,0.0,0.0,0.0,0.0,0.0,0.0,0.0,0.0,0.0,0.0,0.0,0.0,0.0,0.0,0.0,0.0,0.0,0.0,0.0,0.0,0.0,0.0,0.0,0.0,0.0,0.0,0.0,0.0,0.0,0.0,0.0,0.0,0.0,0.0,0.0,0.0,0.0,0.0,0.0,0.0,0.0,0.0,0.0,0.0,0.0,0.0,0.0,0.0,0.0,0.0,0.0,0.0,0.0,0.0,0.0,0.0,0.0,0.0,0.0,0.0,0.0,0.0,0.0,0.0,0.0,0.0,0.0,0.0,0.0,0.0,0.0,1.9053,2.0089,2.2808,2.3091,2.3091,2.3091,2.1377,1.9941,1.918,1.6113,0.0,0.0,0.0,0.0,0.0,0.0,0.0,0.0,0.0,0.0,0.0,0.0,0.0,0.0,0.0,0.0,0.0,0.0,0.0,0.0,0.0,0.0,0.0,0.0,0.0,0.0,0.0,0.0,0.0,0.0,0.0,0.0,0.0,0.0,0.0,0.0,0.0,0.0,0.0,0.0,0.0,0.0,0.0,0.0,0.0,0.0,0.0,0.0,0.0,0.0,0.0,0.0,0.0,0.0,0.0,0.0,0.0,0.0,0.0,0.0,0.0,0.0,0.0,0.0,0.0,0.0,0.0,0.0,0.0,0.0,0.0,0.0,0.0,0.0,0.0,0.0,0.0,0.0,0.0,0.0,0.0,0.0,0.0,0.0,0.0,0.0,0.0,0.0,0.0,0.0,0.0,0.0,0.0,0.0,0.0,0.0,0.0,0.0,0.0,0.0,0.0,0.0,1.9463,2.1123,2.2896,2.3091,2.3091,2.3091,2.083,1.918,1.8676,1.5117,0.0,0.0,0.0,0.0,0.0,0.0,0.0,0.0,0.0,0.0,0.0,0.0,0.0,0.0,0.0,0.0,0.0,0.0,0.0,0.0,0.0,0.0,0.0,0.0,0.0,0.0,0.0,0.0,0.0,0.0,0.0,0.0,0.0,0.0,0.0,0.0,0.0,0.0,0.0,0.0,0.0,0.0,0.0,0.0,0.0,0.0,0.0,0.0,0.0,0.0,0.0,0.0,0.0,0.0,0.0,0.0,0.0,0.0,0.0,0.0,0.0,0.0,0.0,0.0,0.0,0.0,0.0,0.0,0.0,0.0,0.0,0.0,0.0,0.0,0.0,0.0,0.0,0.0,0.0,0.0,0.0,0.0,0.0,0.0,0.0,0.0,0.0,0.0,0.0,0.0,0.0,0.0,0.0,0.0,0.0,0.0,0.0,0.0,0.0,0.0,0.0,0.0,1.8836,2.0371,0.0,2.3013,2.2969,2.3101,2.126,1.9668,1.8656,0.0,0.0,0.0,0.0,0.0,0.0,0.0,0.0,0.0,0.0,0.0,0.0,0.0,0.0,0.0,0.0,0.0,0.0,0.0,0.0,0.0,0.0,0.0,0.0,0.0,0.0,0.0,0.0,0.0,0.0,0.0,0.0,0.0,0.0,0.0,0.0,0.0,0.0,0.0,0.0,0.0,0.0,0.0,0.0,0.0,0.0,0.0,0.0,0.0,0.0,0.0,0.0,0.0,0.0,0.0,0.0,0.0,0.0,0.0,0.0,0.0,0.0,0.0,0.0,0.0,0.0,0.0,0.0,0.0,0.0,0.0,0.0,0.0,0.0,0.0,0.0,0.0,0.0,0.0,0.0,0.0,0.0,0.0,0.0,0.0,0.0,0.0,0.0,0.0,0.0,0.0,0.0,0.0,0.0,0.0,0.0,0.0,0.0,0.0,0.0,0.0,0.0,1.7407,1.8644,2.0166,0.0,2.2838,2.2838,2.2872,2.1273,1.9739,1.842,0.0,0.0,0.0,0.0,0.0,0.0,0.0,0.0,0.0,0.0,0.0,0.0,0.0,0.0,0.0,0.0,0.0,0.0,0.0,0.0,0.0,0.0,0.0,0.0,0.0,0.0,0.0,0.0,0.0,0.0,0.0,0.0,0.0,0.0,0.0,0.0,0.0,0.0,0.0,0.0,0.0,0.0,0.0,0.0,0.0,0.0,0.0,0.0,0.0,0.0,0.0,0.0,0.0,0.0,0.0,0.0,0.0,0.0,0.0,0.0,0.0,0.0,0.0,0.0,0.0,0.0,0.0,0.0,0.0,0.0,0.0,0.0,0.0,0.0,0.0,0.0,0.0,0.0,0.0,0.0,0.0,0.0,0.0,0.0,0.0,0.0,0.0,0.0,0.0,0.0,0.0,0.0,0.0,0.0,0.0,0.0,0.0,0.0,0.0,0.0,0.0,0.0,1.7191,1.9151,2.0847,2.2261,2.2618,2.2715,2.2441,2.069,1.9064,0.0,0.0,0.0,0.0,0.0,0.0,0.0,0.0,0.0,0.0,0.0,0.0,0.0,0.0,0.0,0.0,0.0,0.0,0.0,0.0,0.0,0.0,0.0,0.0,0.0,0.0,0.0,0.0,0.0,0.0,0.0,0.0,0.0,0.0,0.0,0.0,0.0,0.0,0.0,0.0,0.0,0.0,0.0,0.0,0.0,0.0,0.0,0.0,0.0,0.0,0.0,0.0,0.0,0.0,0.0,0.0,0.0,0.0,0.0,0.0,0.0,0.0,0.0,0.0,0.0,0.0,0.0,0.0,0.0,0.0,0.0,0.0,0.0,0.0,0.0,0.0,0.0,0.0,0.0,0.0,0.0,0.0,0.0,0.0,0.0,0.0,0.0,0.0,0.0,0.0,0.0,0.0,0.0,0.0,0.0,0.0,0.0,0.0,0.0,0.0,0.0,0.0,0.0,1.7612,1.9417,2.0946,2.2274,2.2353,2.2318,2.2388,2.111,1.9573,1.7801,0.0,0.0,0.0,0.0,0.0,0.0,0.0,0.0,0.0,0.0,0.0,0.0,0.0,0.0,0.0,0.0,0.0,0.0,0.0,0.0,0.0,0.0,0.0,0.0,0.0,0.0,0.0,0.0,0.0,0.0,0.0,0.0,0.0,0.0,0.0,0.0,0.0,0.0,0.0,0.0,0.0,0.0,0.0,0.0,0.0,0.0,0.0,0.0,0.0,0.0,0.0,0.0,0.0,0.0,0.0,0.0,0.0,0.0,0.0,0.0,0.0,0.0,0.0,0.0,0.0,0.0,0.0,0.0,0.0,0.0,0.0,0.0,0.0,0.0,0.0,0.0,0.0,0.0,0.0,0.0,0.0,0.0,0.0,0.0,0.0,0.0,0.0,0.0,0.0,0.0,0.0,0.0,0.0,0.0,0.0,0.0,0.0,0.0,0.0,0.0,0.0,0.0,1.7537,1.9372,2.087,2.1975,2.2097,2.2097,2.2132,2.1386,1.9993,1.7858,0.0,0.0,0.0,0.0,0.0,0.0,0.0,0.0,0.0,0.0,0.0,0.0,0.0,0.0,0.0,0.0,0.0,0.0,0.0,0.0,0.0,0.0,0.0,0.0,0.0,0.0,0.0,0.0,0.0,0.0,0.0,0.0,0.0,0.0,0.0,0.0,0.0,0.0,0.0,0.0,0.0,0.0,0.0,0.0,0.0,0.0,0.0,0.0,0.0,0.0,0.0,0.0,0.0,0.0,0.0,0.0,0.0,0.0,0.0,0.0,0.0,0.0,0.0,0.0,0.0,0.0,0.0,0.0,0.0,0.0,0.0,0.0,0.0,0.0,0.0,0.0,0.0,0.0,0.0,0.0,0.0,0.0,0.0,0.0,0.0,0.0,0.0,0.0,0.0,0.0,0.0,0.0,0.0,0.0,0.0,0.0,0.0,0.0,0.0,0.0,0.0,0.0,1.7248,1.9203,2.0727,2.1621,2.1919,2.1963,2.1741,2.1496,2.0365,1.7979,0.0,0.0,0.0,0.0,0.0,0.0,0.0,0.0,0.0,0.0,0.0,0.0,0.0,0.0,0.0,0.0,0.0,0.0,0.0,0.0,0.0,0.0,0.0,0.0,0.0,0.0,0.0,0.0,0.0,0.0,0.0,0.0,0.0,0.0,0.0,0.0,0.0,0.0,0.0,0.0,0.0,0.0,0.0,0.0,0.0,0.0,0.0,0.0,0.0,0.0,0.0,0.0,0.0,0.0,0.0,0.0,0.0,0.0,0.0,0.0,1.9726,1.8806,0.0,0.0,0.0,0.0,0.0,0.0,0.0,0.0,0.0,0.0,0.0,0.0,0.0,0.0,0.0,0.0,0.0,0.0,0.0,0.0,0.0,0.0,0.0,0.0,0.0,0.0,0.0,0.0,0.0,0.0,0.0,0.0,0.0,0.0,0.0,0.0,0.0,0.0,0.0,0.0,1.7725,1.9709,2.1124,2.1632,2.1731,2.1785,2.1696,2.1355,2.0439,1.8758,1.7281,0.0,0.0,0.0,0.0,0.0,0.0,0.0,0.0,0.0,0.0,0.0,0.0,0.0,0.0,0.0,0.0,0.0,0.0,0.0,0.0,0.0,0.0,0.0,0.0,0.0,0.0,0.0,0.0,0.0,0.0,0.0,0.0,0.0,0.0,0.0,0.0,0.0,0.0,0.0,0.0,0.0,0.0,0.0,0.0,0.0,0.0,0.0,0.0,0.0,0.0,0.0,0.0,0.0,0.0,0.0,0.0,0.0,0.0,0.0,2.1811,2.1407,0.0,0.0,0.0,0.0,0.0,0.0,0.0,0.0,0.0,0.0,0.0,0.0,0.0,0.0,0.0,0.0,0.0,0.0,0.0,0.0,0.0,0.0,0.0,0.0,0.0,0.0,0.0,0.0,0.0,0.0,0.0,0.0,0.0,0.0,0.0,0.0,0.0,0.0,0.0,0.0,1.7871,1.987,2.1273,2.165,2.1696,2.1696,2.1696,2.1495,2.0805,1.9463,1.8295,0.0,0.0,0.0,0.0,0.0,0.0,0.0,0.0,0.0,0.0,0.0,0.0,0.0,0.0,0.0,0.0,0.0,0.0,0.0,0.0,0.0,0.0,0.0,0.0,0.0,0.0,0.0,0.0,0.0,0.0,0.0,0.0,0.0,0.0,0.0,0.0,0.0,0.0,0.0,0.0,0.0,0.0,0.0,0.0,0.0,0.0,0.0,0.0,0.0,0.0,0.0,0.0,0.0,2.1976,2.2381,2.2302,2.2381,2.2915,2.3773,2.3667,2.3985,2.4506,2.2503,0.0,0.0,0.0,0.0,0.0,0.0,0.0,0.0,0.0,0.0,0.0,0.0,0.0,0.0,0.0,0.0,0.0,0.0,0.0,0.0,0.0,0.0,1.9118,1.9604,2.0092,1.9904,1.8078,0.0,0.0,0.0,0.0,0.0,0.0,0.0,0.0,0.0,0.0,0.0,1.8128,1.9952,2.1273,2.165,2.1696,2.1696,2.1696,2.1696,2.1238,2.0159,1.9454,1.8267,0.0,0.0,0.0,0.0,0.0,0.0,0.0,0.0,0.0,0.0,0.0,0.0,0.0,0.0,0.0,0.0,0.0,0.0,0.0,0.0,0.0,0.0,0.0,0.0,0.0,0.0,0.0,0.0,0.0,0.0,0.0,0.0,1.5879,1.6192,0.0,0.0,0.0,0.0,0.0,0.0,0.0,0.0,0.0,0.0,0.0,0.0,0.0,2.0653,2.188,2.2962,2.372,2.4106,2.5175,2.5505,2.5152,2.5539,2.5832,2.6086,2.5982,0.0,2.4036,2.309,0.0,0.0,0.0,0.0,0.0,0.0,0.0,0.0,0.0,0.0,0.0,0.0,0.0,0.0,0.0,0.0,0.0,0.0,0.0,0.0,0.0,0.0,2.1802,2.1868,2.2217,2.2346,2.1712,1.9557,1.7535,1.6828,1.6132,1.5321,0.0,0.0,0.0,0.0,0.0,0.0,1.8981,2.0292,2.1273,2.165,2.1696,2.1696,2.1696,2.1696,2.1467,2.0979,2.0209,1.9417,1.8601,1.7458,0.0,0.0,0.0,0.0,0.0,0.0,0.0,0.0,0.0,0.0,0.0,0.0,0.0,0.0,0.0,0.0,0.0,0.0,0.0,0.0,0.0,0.0,0.0,0.0,0.0,0.0,0.0,0.0,0.0,1.5984,1.7393,1.7148,1.7489,1.7478,0.0,0.0,0.0,0.0,0.0,0.0,0.0,0.0,0.0,2.1198,2.1739,2.2197,2.2574,2.3477,2.3949,2.4042,2.5011,2.5344,2.5208,2.5635,2.5839,2.5876,2.5826,2.546,2.4722,2.4178,2.3258,2.2067,0.0,0.0,0.0,0.0,2.1356,2.1756,2.1698,2.1804,2.1819,2.1103,0.0,0.0,0.0,0.0,0.0,0.0,0.0,1.9508,2.0476,2.1415,2.2244,2.285,2.294,2.2922,2.295,2.1767,2.0306,1.8939,1.857,1.7861,1.5863,1.59,0.0,0.0,0.0,1.8788,1.9558,2.0227,2.0704,2.0881,2.0393,2.0303,2.0853,2.0898,2.1051,2.1431,2.0915,2.0328,1.9841,1.8431,1.7297,0.0,0.0,0.0,0.0,0.0,0.0,0.0,0.0,0.0,0.0,0.0,0.0,0.0,0.0,0.0,0.0,0.0,0.0,0.0,0.0,0.0,0.0,0.0,0.0,0.0,0.0,0.0,0.0,1.7059,1.8365,1.7848,1.8679,1.8906,0.0,0.0,0.0,0.0,0.0,0.0,2.0696,2.1737,2.2325,2.237,2.3192,2.3475,2.3233,2.3948,2.4267,2.417,2.4785,2.5142,2.5252,2.5546,2.5683,2.5683,2.5683,2.5672,2.5537,2.5071,2.4191,2.3081,2.3036,2.2714,2.23,2.2529,2.3018,2.3491,2.3199,2.3353,2.3566,2.2458,2.1466,2.05,1.9608,0.0,0.0,0.0,0.0,2.0588,2.1832,2.2281,2.2529,2.3109,2.303,2.2799,2.2832,2.2624,2.2002,2.0768,2.0778,2.0135,1.7477,1.7503,0.0,1.6938,0.0,1.92,1.9859,2.0084,2.0163,2.0163,1.9388,1.9201,1.9937,1.9945,2.0303,2.1275,2.0802,2.0464,2.0303,1.9169,1.8152,1.7436,0.0,0.0,0.0,0.0,0.0,0.0,0.0,0.0,0.0,0.0,0.0,0.0,0.0,0.0,0.0,0.0,0.0,0.0,0.0,0.0,0.0,0.0,0.0,0.0,0.0,0.0,0.0,0.0,0.0,1.8051,1.9256,0.0,0.0,0.0,0.0,2.0088,2.0799,2.1487,2.2172,2.2072,2.2444,2.3393,2.3901,2.4334,2.4707,2.512,2.5515,2.5892,2.5929,2.6168,2.6499,2.6518,2.6527,2.6527,2.6527,2.6298,2.592,2.5354,2.483,2.4419,2.4675,2.4497,2.4089,2.4281,2.4391,2.4401,2.4181,2.3852,2.3586,2.3935,2.3228,2.2199,2.2135,2.1557,0.0,0.0,2.1869,2.2373,2.3178,2.3398,2.3266,2.2698,2.2534,2.2274,2.1261,2.0998,2.1204,2.2022,2.2217,2.1509,1.9333,0.0,1.887,1.836,1.8159,1.8572,1.994,1.9903,1.9724,1.9724,1.9383,1.9186,1.9233,1.9025,1.9293,2.0303,1.9459,1.915,1.9736,1.9676,1.8683,1.67,1.6547,0.0,0.0,0.0,0.0,0.0,0.0,0.0,0.0,0.0,0.0,0.0,0.0,0.0,0.0,0.0,0.0,0.0,0.0,0.0,0.0,0.0,0.0,0.0,0.0,0.0,0.0,0.0,0.0,1.9635,2.0807,0.0,2.0108,2.0571,2.1037,2.1348,2.1953,2.2662,2.3486,2.3695,2.4223,2.5069,2.5286,2.5571,2.594,2.6087,2.6087,2.6021,2.6287,2.6352,2.6197,2.6463,2.6591,2.6591,2.6591,2.6509,2.6344,2.6157,2.5694,2.5085,2.5187,2.5103,2.4983,2.5029,2.5085,2.5085,2.4983,2.484,2.4702,2.4643,2.4262,2.3804,2.3224,2.2858,2.2657,2.2812,2.295,2.3187,2.3794,2.3431,2.2813,2.2542,2.1962,2.1344,2.0987,2.0885,2.1028,2.1337,2.1169,2.05,1.8961,1.9155,1.9269,1.8572,1.8819,1.9265,1.978,1.9194,1.872,1.872,1.8027,1.7777,1.8248,1.8223,1.848,1.9263,1.88,1.8571,1.8807,1.7997,1.742,1.7074,1.5888,1.5075,0.0,0.0,0.0,0.0,0.0,0.0,0.0,0.0,0.0,0.0,0.0,0.0,0.0,0.0,0.0,0.0,0.0,0.0,0.0,0.0,0.0,0.0,0.0,0.0,0.0,1.9297,2.0575,2.0605,2.1851,2.2314,2.1403,2.1769,2.2288,2.2695,2.3228,2.3859,2.4578,2.4882,2.5277,2.58,2.5938,2.6149,2.6371,2.6518,2.6518,2.6434,2.6793,2.6912,2.6793,2.7205,2.7398,2.7398,2.7398,2.7325,2.7196,2.7196,2.6793,2.6205,2.5885,2.5784,2.5784,2.5784,2.5784,2.5819,2.5672,2.5617,2.5561,2.5106,2.4712,2.4295,2.3707,2.3238,2.2878,2.2769,2.2769,2.2821,2.3013,2.251,2.1849,2.159,2.0966,2.0368,2.0001,1.9926,1.9889,1.9828,2.0178,2.0116,1.8826,1.9023,1.9179,1.8516,1.8671,1.8976,1.9273,1.8533,1.8009,1.8009,1.7312,1.7034,1.7421,1.7349,1.7574,1.8265,1.7751,1.7622,1.7948,1.7079,1.6617,1.6664,1.526,1.4654,1.478,0.0,0.0,0.0,0.0,0.0,0.0,0.0,0.0,0.0,0.0,0.0,0.0,0.0,0.0,0.0,0.0,0.0,0.0,0.0,0.0,0.0,0.0,0.0,1.8712,2.0087,2.1058,2.0927,2.235,2.2927,2.1906,2.2849,2.3749,2.4211,2.4615,2.4977,2.5414,2.5442,2.5399,2.5427,2.5793,2.6004,2.6032,2.6444,2.6839,2.7215,2.76,2.7927,2.833,2.8705,2.882,2.882,2.8879,2.8669,2.8312,2.8312,2.8074,2.7682,2.6921,2.6628,2.6628,2.6555,2.6537,2.6472,2.6114,2.5977,2.5913,2.5475,2.4544,2.3568,2.3559,2.2745,2.1726,2.1379,2.1271,2.121,2.0855,2.0801,2.0537,1.9742,1.9531,1.9241,1.8225,1.8009,1.7916,1.7655,1.9354,2.0381,1.8978,1.8767,1.8614,1.8265,1.7634,0.0,1.8477,1.8026,1.7582,1.7582,1.738,1.7092,1.6747,1.6453,1.6594,1.7221,1.6339,1.6237,1.7217,1.6989,1.6366,1.543,1.4831,1.4332,1.402,0.0,0.0,0.0,0.0,0.0,0.0,0.0,0.0,0.0,0.0,0.0,0.0,0.0,0.0,0.0,0.0,0.0,0.0,0.0,0.0,0.0,1.9087,2.0236,2.0195,2.136,2.2342,2.2695,2.3469,2.3956,2.3932,2.4244,2.4611,2.5056,2.5194,2.5433,2.5828,2.5855,2.5684,2.5418,2.638,2.6724,2.6425,2.7429,2.7957,2.8058,2.7195,2.6676,2.6519,2.5612,2.5241,2.5301,2.6249,2.6615,2.651,2.651,2.6449,2.6451,2.7178,2.7444,2.7351,2.6137,2.552,2.5276,2.5162,2.5127,2.4991,2.4001,2.3282,2.2775,2.2472,2.1955,2.1408,2.1047,2.0917,2.0917,2.0801,2.0219,1.9585,1.9373,1.8671,1.805,1.8033,1.802,1.7989,1.7922,1.8391,1.8607,1.8025,1.7925,1.7898,1.7763,1.7617,1.7566,1.7821,1.7686,1.7582,1.7582,1.7508,1.7393,1.7105,1.6754,1.6608,1.6601,1.5886,1.565,1.5929,1.5679,1.5393,1.5129,1.5007,1.4741,0.0,0.0,0.0,0.0,0.0,0.0,0.0,0.0,0.0,0.0,0.0,0.0,0.0,0.0,0.0,0.0,0.0,0.0,0.0,0.0,0.0,0.0,2.0857,2.1692,2.1302,2.2254,2.3183,2.3721,2.3587,2.3606,2.3785,2.3548,2.3477,2.3898,2.4031,2.4319,2.47,2.4717,2.471,2.4562,2.5213,2.556,2.5443,2.6108,2.646,2.646,2.5822,2.5416,2.5167,2.4551,2.4324,2.4324,2.5101,2.5458,2.5458,2.5458,2.5458,2.5492,0.0,0.0,0.0,0.0,2.4556,2.4382,2.4382,2.4283,2.4094,2.323,2.2382,2.1662,2.1305,2.069,2.0097,1.9738,1.9633,1.9577,1.9451,1.8967,1.8542,1.8662,1.8215,1.7736,1.7954,1.7985,1.7957,1.7844,1.7694,0.0,1.7435,1.751,1.7582,1.7582,1.7582,1.7582,1.7582,1.7582,1.7582,1.7582,1.7582,1.7514,1.7226,1.6874,0.0,0.0,0.0,1.5524,1.5398,1.5237,0.0,0.0,0.0,0.0,0.0,1.5972,0.0,0.0,1.5419,1.5369,0.0,0.0,0.0,0.0,0.0,0.0,0.0,0.0,0.0,0.0,0.0,0.0,0.0,0.0,0.0,0.0,2.2391,2.2858,2.1953,2.2695,2.3412,2.3764,2.2903,2.2289,2.2372,2.1729,2.1464,2.1906,2.2214,2.2537,2.2901,2.2917,0.0,0.0,0.0,2.348,2.3582,2.3767,2.3842,2.3882,2.4121,2.4209,2.4157,2.4354,2.444,2.444,2.4617,2.4687,2.4687,2.4687,2.4564,2.444,2.4066,2.3799,2.3649,2.3767,2.3677,2.3461,2.3461,0.0,0.0,2.2647,2.156,2.0392,2.0111,1.9178,1.8246,1.8025,1.7966,1.7908,1.7602,1.7485,1.7543,1.7849,1.7966,1.7956,1.7995,1.8002,1.7919,1.7628,1.738,1.7203,1.7171,1.7328,1.7477,1.7477,1.7529,1.7529,1.7529,1.7582,1.7582,1.7582,1.7529,0.0,1.7221,1.6877,1.6597,1.6386,1.6092,1.5812,1.5558,1.5545,1.5678,1.5972,1.5979,1.6253,1.6807,1.7108,1.73,1.7266,1.6482,1.6248,0.0,0.0,0.0,0.0,0.0,0.0,0.0,0.0,0.0,0.0,0.0,0.0,0.0,0.0,0.0,2.1346,2.1851,2.1996,2.1485,2.1781,2.1892,2.149,2.1068,2.1008,2.1565,2.1461,2.1526,2.1966,2.2045,2.2191,2.2471,2.2544,2.2182,2.151,2.2653,2.3056,2.2423,2.3632,2.4306,2.433,2.3424,0.0,2.2484,2.1503,2.1039,2.1102,2.2208,2.2632,2.2632,2.2632,2.202,2.1272,2.3802,2.3825,2.2552,2.3512,2.2909,2.1551,2.1551,2.1515,2.1286,2.0221,1.9448,1.8811,1.8758,1.8245,0.0,1.7602,1.7602,1.7602,1.7543,1.7485,1.7543,1.7602,1.7602,1.7649,1.7956,1.8008,1.7979,1.7926,1.7881,1.7716,1.7488,1.7127,1.6889,1.6889,1.7113,1.7279,1.7279,1.7483,1.7536,1.7279,1.7279,1.7259,1.72,1.6879,1.6785,1.7032,1.67,1.6513,1.6453,1.6453,1.6593,1.6938,1.6945,1.7068,1.7415,1.7722,1.7862,1.7836,1.747,1.7398,0.0,0.0,0.0,0.0,0.0,0.0,0.0,0.0,0.0,0.0,0.0,1.8097,1.9041,0.0,2.0063,2.1204,2.1237,2.0873,2.0157,2.0151,2.0354,2.0559,2.0128,1.9905,2.0284,1.9913,1.9789,1.9991,2.0252,2.0464,2.061,2.0705,2.0642,2.036,2.1093,2.136,2.1112,2.1852,2.2233,2.232,2.165,2.1285,2.1096,2.0418,2.0106,2.017,2.0786,2.1096,2.1096,2.1096,2.0722,2.0234,2.1908,2.1929,2.1181,2.179,2.1383,2.0518,2.0518,2.0486,2.0244,1.9451,1.8907,1.8507,1.8392,1.8081,1.7678,1.7678,1.7581,1.7485,1.7485,1.7485,1.7485,1.7485,1.7485,1.7543,1.7726,1.7726,1.7741,1.778,1.7644,1.7507,1.7308,1.6944,1.6781,1.7053,1.7156,1.7126,1.7126,1.7145,1.7107,1.6955,1.6955,1.6955,1.6955,1.6691,1.6523,1.6534,1.6521,1.6514,1.6514,1.6613,1.6827,1.7113,1.7173,1.7256,1.7542,1.7835,1.8049,1.8179,1.8179,1.8354,0.0,0.0,0.0,0.0,0.0,0.0,0.0,0.0,1.6683,1.7639,1.7664,1.7948,1.9257,1.9149,1.9322,2.0767,2.0465,1.9764,1.8765,1.8659,1.8954,1.9599,1.914,1.8835,1.8831,1.8281,1.7908,1.7908,1.8326,1.8674,1.8671,1.8935,1.9279,1.9575,1.965,1.9751,1.9973,2.0043,2.0043,1.9979,1.9979,1.9979,1.9915,1.9915,1.9915,1.9915,1.9915,1.9915,1.9915,1.9915,1.9915,1.9915,1.9915,1.9915,1.9915,1.9979,1.9979,1.9915,1.9915,1.977,1.9519,1.9255,1.8945,1.8662,1.8428,1.8173,1.7956,1.7956,1.7805,1.763,1.7575,1.7557,1.7545,1.7497,1.7485,1.7485,1.7485,1.7485,1.7485,1.7485,1.7316,1.7165,1.7165,1.6996,1.6984,1.7322,1.7226,1.7087,1.7087,1.6933,1.6842,1.6788,1.6788,1.6788,1.6788,1.6639,1.6417,1.6195,1.6392,1.6512,1.6512,1.674,1.6994,1.7273,1.7279,1.7444,1.7773,1.8002,1.8307,1.8587,1.8809,1.9034,1.6796,1.7264,1.7857,1.8259,1.8617,1.926,0.0,0.0,1.8905,1.9012,1.9085,1.9212,1.9376,1.9284,1.9287,1.9692,1.9316,1.8746,1.8088,1.8203,1.8056,1.7229,1.7246,1.7407,1.7646,1.7584,1.7543,1.7543,1.7845,1.81,1.8356,1.8617,1.8884,1.9152,1.9477,1.961,1.9641,1.9973,1.9973,1.9641,1.9641,1.952,1.9206,1.9206,1.9206,1.9206,1.9206,1.9206,1.9206,1.9206,1.9206,1.9206,1.9206,1.9206,1.9264,1.9577,1.9456,1.9206,1.9206,1.9188,1.9158,1.9094,1.8918,1.87,1.8638,1.8456,1.8245,1.8245,1.8227,1.8143,1.7895,1.7829,1.7774,1.7539,1.7485,1.7485,1.7485,1.7485,1.7485,1.7485,1.7461,1.7443,1.7443,1.7412,1.7295,1.6823,1.6943,1.708,1.708,1.7284,1.732,1.7092,1.7036,1.7036,1.7036,1.7233,1.7374,1.7342,1.7374,1.7387,1.7387,1.7363,1.7571,1.7913,1.7913,1.8173,1.8635,1.8667,1.8826,1.9092,1.9117,1.9184,1.8749,1.9259,1.9678,0.0,2.0644,2.074,2.1066,1.9774,1.8536,1.8635,1.8217,1.7939,1.8307,1.7747,1.7556,0.0,1.7945,1.7555,1.7447,1.7521,1.7444,1.6998,1.7026,1.7135,1.7243,1.7255,1.7382,1.769,1.7962,1.8233,1.8505,1.877,1.8963,1.9072,1.9264,1.9328,1.9328,1.9462,1.9462,1.9328,1.9328,1.9264,1.9078,1.9078,1.9078,1.9078,1.9078,1.9078,1.9078,1.9078,1.9078,1.9078,1.9078,1.9078,1.9136,1.9264,1.92,1.9078,1.9078,1.9078,1.9078,1.9078,1.9,1.8915,1.8915,1.8728,1.8523,1.8523,1.8408,1.8269,1.8149,1.8118,1.8088,1.798,1.7829,1.7708,1.7708,1.7587,1.7485,1.7485,1.7485,1.7485,1.7485,1.7485,1.7406,1.7189,1.7134,1.7088,1.7088,1.7072,1.6974,1.6862,1.6862,1.6862,1.6862,1.6974,1.703,1.703,1.7178,1.7264,1.7264,1.7412,1.7621,1.7957,1.7957,1.8148,1.8483,1.8483,1.868,1.8883,1.8883,1.8963,1.9572,2.0354,2.1025,2.1589,2.1752,2.1495,2.0494,1.922,1.816,1.7828,1.715,1.6702,1.706,1.6448,1.6215,1.7171,1.7012,1.6821,1.7153,1.7135,1.7062,1.6996,1.6917,1.6899,1.6978,1.7117,1.7388,1.7841,1.8137,1.8408,1.8674,1.8933,1.9078,1.9078,1.9078,1.9078,1.9078,1.9078,1.9078,1.9078,1.9078,1.9078,1.9078,1.9078,1.9078,1.9078,1.9078,1.9078,1.9078,1.9078,1.9078,1.9078,1.9078,1.9078,1.9078,1.9078,1.9078,1.9078,1.9078,1.9078,1.9078,1.9078,1.9078,1.9078,1.9078,1.8939,1.8794,1.8794,1.8656,1.8493,1.842,1.8402,1.8384,1.8312,1.8137,1.7992,1.7992,1.7781,1.7587,1.7587,1.7533,1.7485,1.7485,1.7485,1.7485,1.7485,1.7322,1.7201,1.7201,1.7032,1.6917,1.6917,1.6917,1.6917,1.6917,1.6917,1.6917,1.6917,1.7092,1.7201,1.7201,1.7449,1.7678,1.7871,1.795,1.8125,1.8402,1.8402,1.8535,1.8794,1.8794,1.8701,1.8366,1.9888,2.15,2.0903,2.1303,2.1423,1.9664,1.8995,1.8378,1.7043,1.6502,1.626,1.6005,1.5897,1.6066,1.6659,1.6694,1.6881,1.74,1.7249,1.6996,1.6742,1.6471,1.641,1.6688,1.7171,1.7581,1.7853,1.8137,1.8408,1.8674,1.8933,1.9078,1.9078,1.9078,1.9078,1.9078,1.9078,1.9078,1.9078,1.9078,1.9078,1.9078,1.9078,1.9078,1.9078,1.9078,1.9078,1.9078,1.9078,1.9078,1.9078,1.9078,1.9078,1.9078,1.9078,1.9078,1.9078,1.9078,1.9078,1.9078,1.9078,1.9078,1.9078,1.9078,1.9066,1.906,1.906,1.906,1.8994,1.874,1.8674,1.8607,1.8354,1.8287,1.8281,1.8281,1.8058,1.7859,1.7859,1.7654,1.7485,1.7485,1.7485,1.7485,1.7485,1.7473,1.7473,1.7473,1.7461,1.7461,1.7461,1.7461,1.7461,1.7461,1.7461,1.7461,1.7461,1.7467,1.7473,1.7473,1.7726,1.7865,1.7871,1.8143,1.8408,1.8674,1.8674,1.8807,1.906,1.906,1.8343,1.9706,2.0619,2.1333,2.1485,2.0933,2.0182,1.941,1.841,1.7539,1.7085,1.6314,1.5789,1.5873,1.5608,1.5602,1.6308,1.6579,1.6881,1.7406,1.7255,1.6996,1.673,1.6773,0.0,0.0,1.6857,1.7292,1.8094,1.8239,1.8481,1.8921,1.9024,1.9078,1.9078,1.9078,1.9078,1.9078,1.9078,1.8617,1.7695,1.6791,1.6338,1.6338,1.7308,1.7695,1.7765,1.8682,1.9078,1.9008,1.8092,1.7695,1.7695,1.7695,1.7695,1.7829,1.8746,1.9078,1.9078,1.9078,1.9078,1.9078,1.9078,1.9078,1.9078,1.9078,1.9078,1.9078,1.9078,1.9078,1.9054,1.8969,1.8945,1.8921,1.8837,1.868,1.8553,1.8553,1.8342,1.8155,1.8155,1.8082,1.8022,1.8022,1.8022,1.8022,1.8022,1.7714,1.7485,1.7485,1.7485,1.7485,1.7485,1.7485,1.7485,1.7485,1.7485,1.7485,1.7485,1.7648,1.7744,1.7744,1.8004,1.7792,1.7078,1.7105,1.733,1.7577,1.6615,1.6717,1.7695,1.6726,1.6078,1.9916,2.0474,2.075,2.0898,2.0195,1.9306,1.8605,1.773,1.7022,1.6744,1.6042,1.5493,1.5475,1.5113,1.5077,1.5873,1.6229,1.6628,1.7255,1.7201,1.7032,1.6857,1.699,1.7062,0.0,0.0,0.0,1.8233,1.8384,1.8625,1.9054,1.9078,1.9078,1.9078,1.9078,1.888,1.8355,1.8355,1.7636,1.6268,1.5298,1.4907,1.4907,1.5814,1.6268,1.6333,1.7765,1.8028,1.7577,1.7173,1.6716,1.6268,1.6268,1.6592,1.7109,1.8028,1.8682,1.9078,1.9078,1.9078,1.9078,1.9078,1.9078,1.9078,1.9078,1.9078,1.9078,1.9078,1.9078,1.9078,1.9078,1.9078,1.9078,1.9078,1.8945,1.8825,1.8825,1.8619,1.8432,1.8432,1.836,1.8294,1.8294,1.8294,1.8294,1.8294,1.7998,1.7738,1.7636,1.7624,1.7587,1.7491,1.7485,1.7521,1.7612,1.7624,1.7666,1.7762,1.7498,1.7277,1.7277,1.7089,1.6604,1.5859,1.5941,1.6059,1.6268,1.5359,1.5364,1.6203,1.5298,1.4646,1.8979,1.9532,1.9926,1.9376,1.9147,1.8758,1.7424,1.7062,1.6803,1.6012,1.5608,1.524,0.0,0.0,1.4527,1.5312,1.5716,1.6199,1.6984,1.7117,1.7129,0.0,0.0,0.0,0.0,0.0,0.0,1.8226,1.8541,1.8801,1.8996,1.9008,1.8944,1.888,1.888,1.8221,1.6915,1.6845,1.6138,1.4782,1.4712,1.4712,1.4712,1.4777,1.4782,1.4842,1.6263,1.6138,1.4973,1.6268,1.6009,1.4782,1.4782,1.5619,1.678,1.685,1.7765,1.888,1.888,1.9008,1.9078,1.9078,1.9078,1.9078,1.9078,1.9078,1.9078,1.9078,1.9078,1.9072,1.9008,1.9008,1.8944,1.888,1.888,1.8944,1.8944,1.8816,1.8704,1.8704,1.8505,1.833,1.833,1.833,1.833,1.833,1.833,1.8227,1.7931,1.7895,1.7799,1.7551,1.7527,1.7624,1.7871,1.7895,1.801,1.8153,1.692,1.6172,1.611,1.5062,1.4468,1.4404,1.4674,1.4782,1.4782,1.4712,1.4712,1.4782,1.4712,1.3993,1.86,1.9085,1.9638,1.9318,1.8595,1.7875,1.7258,1.6628,1.6024,1.5433,1.4618,1.3857,0.0,0.0,0.0,1.4539,1.5668,0.0,1.7038,1.7424,0.0,1.7406,0.0,1.7931,1.7787,1.8203,0.0,1.7109,1.8068,1.8346,1.7555,1.7566,1.705,1.6014,1.5949,1.5819,1.5429,1.4381,1.3661,1.3341,1.2293,1.1769,1.1835,1.2882,1.3341,1.3403,1.4838,1.5233,1.4842,1.4184,1.3665,1.3341,1.3341,1.3534,1.3988,1.5033,1.5689,1.5949,1.5949,1.7313,1.9078,1.9078,1.9078,1.9078,1.9078,1.9078,1.9078,1.9078,1.9078,1.888,1.7829,1.7367,1.691,1.5864,1.5993,1.6522,1.7039,1.7714,1.8326,1.8912,1.8921,1.8879,1.8879,1.8879,1.8879,1.8879,1.8879,1.871,1.8245,1.8185,1.8161,1.8094,1.8088,1.8112,1.8179,1.8185,1.7781,1.678,1.6572,1.6034,1.495,1.4842,1.4308,1.3265,1.3316,1.3341,1.3337,1.2293,1.2293,1.3341,1.2227,1.1571,1.8023,1.843,1.8805,1.8556,1.7906,1.7193,1.6556,1.5952,1.5264,1.4262,1.3483,0.0,1.2125,1.2572,1.32,0.0,0.0,0.0,1.6833,1.7473,1.7817,0.0,1.8137,0.0,1.8245,1.8095,1.762,1.6844,1.7493,1.7427,1.6133,1.6073,1.5749,1.4907,1.4907,1.4581,1.3993,1.2553,1.1901,1.1901,1.1049,1.0721,1.0721,1.1508,1.1901,1.1967,1.3337,1.36,1.3013,1.2882,1.2425,1.1901,1.1901,1.2227,1.2882,1.3665,1.4385,1.4907,1.4907,1.5949,1.7249,1.7249,1.7249,1.7249,1.7249,1.7249,1.7249,1.7249,1.7249,1.7055,1.6128,1.5729,1.5334,1.4353,1.4423,1.4814,1.5204,1.5729,1.6322,1.691,1.763,1.8156,1.8156,1.8682,1.9078,1.9078,1.9078,1.8969,1.8674,1.8535,1.842,1.8306,1.8294,1.8342,1.8456,1.7892,1.7241,1.6581,1.5558,1.4594,1.382,1.3282,1.2684,1.1901,1.1901,1.1901,1.1901,1.1115,1.1111,1.1835,1.1049,1.0721,1.7453,1.7691,1.7843,1.756,1.7207,1.6718,1.5686,1.5137,1.4407,1.2868,0.0,1.1866,1.1099,1.1486,1.2145,1.2951,0.0,1.5481,1.6549,1.7376,1.7883,1.7925,1.8279,1.8476,1.8476,1.7379,1.6651,1.6457,1.6457,1.5939,1.4712,1.4646,1.4516,1.432,1.432,1.3731,1.2553,1.131,1.0721,1.0721,1.0721,1.0721,1.0721,1.0721,1.0721,1.0784,1.1963,1.1835,1.0787,1.2033,1.1769,1.0721,1.0721,1.1442,1.2491,1.2491,1.3272,1.432,1.432,1.432,1.4385,1.4777,1.4907,1.4907,1.4907,1.4907,1.4907,1.4907,1.4907,1.4772,1.4236,1.4097,1.3901,1.3308,1.3242,1.3373,1.3439,1.363,1.3896,1.4293,1.5604,1.6716,1.6974,1.8022,1.888,1.9078,1.9078,1.9078,1.9078,1.8879,1.865,1.842,1.8396,1.8487,1.8716,1.7449,1.6695,1.6705,1.4245,1.275,1.2553,1.1376,1.0721,1.0721,1.0721,1.0721,1.0721,1.0721,1.0721,1.0721,1.0721,1.0721,1.7173,1.7396,1.7495,1.7213,1.6797,1.6223,1.5372,1.4292,0.0,0.0,1.1303,1.0785,1.0214,1.108,1.2145,1.2951,1.4238,1.5481,1.6549,1.7376,1.7962,0.0,1.7656,1.7306,1.7306,1.6048,0.0,1.36,1.3534,1.3403,1.321,1.3144,1.2618,1.1442,1.1442,1.131,1.1049,1.085,1.0721,1.0721,1.0721,1.0721,1.0721,1.0721,1.0721,1.0721,1.0982,1.0916,1.0721,1.0982,1.0916,1.0721,1.0721,1.085,1.1049,1.1049,1.1244,1.1442,1.1442,1.1442,1.1835,1.4124,1.4907,1.4907,1.4907,1.4907,1.4907,1.4907,1.4907,1.4581,1.307,1.2405,1.1805,1.03,1.0366,1.0958,1.1541,1.2779,1.3896,1.4293,1.4619,1.5339,1.678,1.7173,1.7765,1.8944,1.9078,1.9078,1.9078,1.9036,1.8988,1.8945,1.8939,1.8957,1.9006,1.7767,1.648,1.5359,1.3731,1.2293,1.1111,1.085,1.0721,1.0721,1.0721,1.0721,1.0721,1.0721,1.0721,1.0721,1.0721,1.0721,1.7077,1.7286,1.7418,1.7159,1.6688,1.5976,1.4763,0.0,0.0,0.0,1.0238,0.9697,0.9179,1.016,0.0,1.1318,1.3001,1.4348,1.4554,1.5628,0.0,1.6231,1.6058,1.5879,0.0,1.4642,1.3538,1.2882,1.2095,1.1703,1.1703,1.1703,1.1376,1.0717,1.0721,1.0721,1.0721,1.0721,1.0721,1.0721,1.0721,1.0721,1.0721,1.0721,1.0721,1.0721,1.0721,1.0721,1.0721,1.0721,1.0721,1.0721,1.0721,1.0721,1.0721,1.0721,1.0721,1.0721,1.0721,1.0721,1.0916,1.2293,1.2684,1.2684,1.2684,1.2684,1.2684,1.2684,1.2684,1.2421,1.124,1.0773,1.0373,0.9117,0.9117,0.9446,0.9769,1.0624,1.141,1.1611,1.2533,1.3779,1.5404,1.6387,1.7501,1.888,1.9078,1.9078,1.9078,1.9078,1.9078,1.9078,1.9078,1.881,1.8092,1.6726,1.5294,1.3927,1.2487,1.1376,1.0721,1.0721,1.0721,1.0721,1.0721,1.0721,1.0721,1.0721,1.0721,1.0721,1.0721,1.0721,1.6298,1.6512,1.6633,1.6322,1.586,1.5117,1.3678,1.2516,0.0,0.0,0.9306,0.8789,0.8292,0.9111,0.9852,0.0,1.1383,1.2673,1.2597,1.3774,1.4567,0.0,1.4373,0.0,1.445,1.321,0.0,1.2359,1.131,1.0721,1.0721,1.0721,1.0721,1.0721,1.0721,1.0721,1.0721,1.0721,1.0721,1.0721,1.0721,1.0721,1.0721,1.0721,1.0721,1.0721,1.0721,1.0721,1.0721,1.0721,1.0721,1.0721,1.0721,1.0721,1.0721,1.0721,1.0721,1.0721,1.0721,1.0721,1.0721,1.0721,1.0721,1.0721,1.0721,1.0721,1.0721,1.0721,1.0721,1.0588,0.9994,0.9728,0.9528,0.8787,0.8587,0.8587,0.8587,0.8787,0.8984,0.9117,1.0505,1.2219,1.3713,1.5409,1.7044,1.8419,1.888,1.9078,1.9078,1.9078,1.9008,1.8682,1.8682,1.8221,1.7109,1.5424,1.3857,1.2409,1.1038,1.0117,0.9779,0.9782,0.9915,1.025,1.025,1.0386,1.0721,1.0721,1.0721,1.0721,1.0721,1.0721,1.364,1.3912,1.3921,1.3514,1.3087,1.2542,1.179,0.0,0.0,0.9253,0.8752,0.8274,0.7984,0.824,0.8759,0.0,0.0,1.0721,1.2219,1.3058,1.3681,1.407,0.0,0.0,1.3013,1.1703,1.0916,1.0916,1.0784,1.0721,1.0721,1.0721,1.0721,1.0721,1.0721,1.0721,1.0721,1.0721,1.0721,1.0721,1.0721,1.0721,1.0721,1.0721,1.0721,1.0721,1.0721,1.0721,1.0721,1.0721,1.0721,1.0721,1.0721,1.0721,1.0721,1.0721,1.0721,1.0721,1.0721,1.0721,1.0721,1.0721,1.0721,1.0721,1.0721,1.0721,1.0721,1.0721,1.0721,1.0588,1.0256,0.9927,0.9528,0.8787,0.8587,0.8587,0.8587,0.8653,0.872,0.905,0.9522,1.0452,1.2219,1.3923,1.5554,1.698,1.8285,1.9078,1.9078,1.9078,1.8617,1.7302,1.7173,1.7109,1.698,1.4507,1.2409,1.1003,0.9561,0.8171,0.6833,0.6767,0.7436,0.8773,0.8773,0.9443,1.0721,1.0721,1.0721,1.0721,1.0721,1.0721,1.2822,1.3146,1.3327,1.2979,1.259,1.2035,1.0966,0.0,0.8946,0.8573,0.7708,0.7108,0.7371,0.7467,0.7585,0.0,0.0,0.0,0.937,1.023,1.0953,1.1251,1.1118,0.0,0.0,1.1049,1.0721,1.0721,1.0721,1.0721,1.0721,1.0721,1.0721,1.0721,1.0721,1.0721,1.0721,1.0721,1.0721,1.0721,1.0721,1.0721,1.0721,1.0721,1.0721,1.0721,1.0721,1.0721,1.0721,1.0721,1.0721,1.0721,1.0721,1.0721,1.0721,1.0721,1.0721,1.0585,0.9712,0.9443,0.9443,0.9443,0.9443,0.9579,1.0452,1.0721,1.0721,1.0721,1.0721,1.0588,1.0256,0.9788,0.9256,0.8984,0.872,0.8587,0.8587,0.8587,0.8653,0.8787,0.9259,1.0187,1.1684,1.2869,1.4124,1.5489,1.692,1.7829,1.7829,1.7829,1.763,1.7044,1.698,1.6328,1.4637,1.266,1.0944,0.9558,0.8097,0.7034,0.6433,0.6433,0.67,0.7234,0.73,0.7569,0.8105,0.8105,0.8105,0.8105,0.8105,0.8105,1.1366,1.1744,1.1986,1.1685,1.1346,1.0848,0.0,0.886,0.8093,0.7775,0.6918,0.6263,0.6507,0.6582,0.6498,0.627,0.0,0.7729,0.7424,0.827,0.9016,0.9195,0.0,0.9961,1.047,1.0643,1.0721,1.0721,1.0721,1.0721,1.0721,1.0721,1.0721,1.0721,1.0721,1.0721,1.0721,1.0721,1.0721,1.0721,1.0721,1.0721,1.0721,1.0721,1.0721,1.0721,1.0721,1.0721,1.0721,1.0721,1.0721,1.0721,1.0721,1.0721,1.0651,1.025,1.0047,0.9848,0.8437,0.7971,0.7971,0.7971,0.8238,0.8773,0.9782,1.0382,1.0721,1.0721,1.0721,1.0588,1.0256,0.9721,0.9253,0.9117,0.8851,0.8587,0.8587,0.8587,0.8587,0.8587,0.9123,0.9851,1.0962,1.1956,1.3013,1.4124,1.5489,1.6398,1.6398,1.6398,1.6203,1.5804,1.5674,1.4628,1.2204,1.0743,0.9085,0.71,0.6032,0.5297,0.4964,0.4962,0.5232,0.5767,0.5767,0.5967,0.6233,0.6366,0.6366,0.6233,0.6233,0.6166,0.8603,0.8985,0.9176,0.8974,0.8763,0.8461,0.8084,0.745,0.6889,0.6834,0.6497,0.6018,0.5414,0.5486,0.5611,0.5627,0.5837,0.0,0.7289,0.7938,0.8429,0.0,0.9245,0.973,0.9967,1.046,1.0721,1.0721,1.0721,1.0721,1.0721,1.0721,1.0721,1.0721,1.0721,1.0721,1.0721,1.0721,1.0721,1.0721,1.0721,1.0721,1.0721,1.0721,1.0721,1.0721,1.0721,1.0721,1.0721,1.0721,1.0721,1.0721,1.0721,1.0721,1.0518,0.9111,0.864,0.844,0.6967,0.6433,0.6433,0.6433,0.7436,0.8573,0.864,0.9579,1.0721,1.0721,1.0721,1.0588,1.0256,0.9927,0.9594,0.9183,0.8851,0.8587,0.8587,0.8587,0.8587,0.8587,0.8853,0.9253,0.9661,1.1174,1.2421,1.275,1.3993,1.4907,1.4907,1.4907,1.4385,1.3013,1.2553,1.1743,1.0257,0.8817,0.6696,0.349,0.3223,0.2755,0.1683,0.1683,0.2489,0.43,0.4301,0.4835,0.5902,0.6233,0.6233,0.5902,0.5902,0.57,0.7399,0.7706,0.8007,0.7607,0.752,0.7388,0.6783,0.6382,0.6115,0.5996,0.5474,0.5089,0.5281,0.5053,0.5033,0.5638,0.5813,0.6186,0.0,0.0,0.0,0.874,0.9754,1.0405,1.05,1.0636,1.0721,1.0721,1.0721,1.0721,1.0721,1.0721,1.0721,1.0721,1.0721,1.0721,1.0721,1.0721,1.0721,1.0721,1.0455,1.0389,1.0389,1.0389,1.0389,1.0389,1.0588,1.0721,1.0721,1.0721,1.0721,1.0721,1.0721,1.0117,0.9244,0.8773,0.7971,0.69,0.5434,0.4967,0.4967,0.4967,0.5302,0.6038,0.7974,0.9579,1.0721,1.0721,1.0721,1.0654,1.0588,1.0256,0.9924,0.9591,0.9189,0.8851,0.8653,0.8587,0.8587,0.8587,0.8853,0.9117,0.9253,0.9984,1.0585,1.0651,1.182,1.273,1.273,1.273,1.2533,1.2076,1.1101,1.0041,0.8753,0.716,0.5362,0.3357,0.2286,0.1615,0.1279,0.1279,0.1548,0.2085,0.2085,0.2286,0.2621,0.2754,0.2754,0.2621,0.2621,0.2554,0.6682,0.6848,0.7105,0.6827,0.6783,0.6641,0.601,0.5701,0.5486,0.531,0.4851,0.4598,0.4924,0.4808,0.4836,0.5447,0.5691,0.6078,0.0,0.0,0.0,0.8994,0.991,1.049,1.0548,1.0656,1.0721,1.0721,1.0721,1.0721,1.0721,1.0721,1.0721,1.0721,1.0721,1.0654,1.0522,1.0522,1.0455,1.0326,1.0127,0.9994,0.9994,0.9994,1.006,1.0193,1.0389,1.0588,0.0,1.0721,1.0721,1.0654,1.0117,0.9377,0.844,0.7372,0.637,0.5434,0.3964,0.3497,0.3497,0.3497,0.4233,0.5635,0.8509,0.9981,1.0721,1.0721,1.0721,1.0721,1.0721,1.0455,1.0127,0.9794,0.9389,0.8984,0.8653,0.8587,0.8587,0.8587,0.8787,0.8984,0.905,0.9319,0.9525,0.9661,1.0379,1.0962,1.0962,1.0488,1.0353,1.0895,0.9105,0.7572,0.6827,0.5828,0.4292,0.215,0.1143,0.074,0.0875,0.0875,0.0942,0.1077,0.1077,0.101,0.0875,0.0875,0.0875,0.0875,0.0875,0.0808,0.0,0.63,0.6426,0.6392,0.63,0.6102,0.5627,0.5311,0.0,0.4735,0.459,0.4501,0.4545,0.4731,0.4945,0.517,0.5583,0.6067,0.6692,0.7336,0.0,0.931,0.9832,1.0092,1.0297,1.0561,1.0721,1.0721,1.0721,1.0721,1.0721,1.0721,1.0721,1.0654,1.0654,1.0522,1.0193,1.019,0.9994,0.9728,0.9661,0.9661,0.9661,0.9661,0.9861,1.0193,1.019,1.0323,1.0518,1.0518,1.0518,1.025,0.8975,0.8374,0.7971,0.5304,0.4234,0.3966,0.2759,0.2357,0.2356,0.249,0.4364,0.7034,0.9712,1.0654,1.0721,1.0721,1.0721,1.0721,1.0721,1.0455,1.0127,0.9794,0.9389,0.905,0.8653,0.8587,0.8587,0.8587,0.8587,0.872,0.8984,0.905,0.9186,0.9392,0.9461,0.9458,0.9325,0.811,0.7774,0.9189,0.6569,0.469,0.4623,0.4623,0.3287,0.0202,0.0,0.0135,0.0471,0.0471,0.0673,0.101,0.101,0.0808,0.0471,0.0471,0.0471,0.0471,0.0471,0.0269,0.5017,0.0,0.5573,0.5228,0.5254,0.5308,0.0,0.4938,0.488,0.4607,0.0,0.4631,0.5095,0.4958,0.5091,0.6159,0.6322,0.6603,0.7434,0.8465,0.9367,0.9995,1.0361,1.0578,1.0612,1.068,1.0721,1.0721,1.0721,1.0721,1.0721,1.0721,1.0588,1.0323,1.0326,1.0256,1.0193,0.9927,0.9794,0.9728,0.9389,0.9253,0.9253,0.9253,0.9455,0.9861,1.006,0.9785,0.9108,0.9108,0.8437,0.7369,0.7034,0.6235,0.5237,0.4568,0.363,0.2826,0.3564,0.3831,0.3964,0.5033,0.6633,0.8238,0.8909,0.9848,1.0721,1.0721,1.0721,1.0721,1.0721,1.0654,1.0455,0.9861,0.9661,0.9392,0.8723,0.8587,0.8587,0.8587,0.8587,0.8653,0.872,0.872,0.8384,0.7312,0.7178,0.6775,0.57,0.5297,0.5163,0.5499,0.4896,0.3958,0.282,0.2753,0.1948,0.0135,0.0,0.0067,0.0135,0.0135,0.0135,0.0269,0.0269,0.0202,0.0135,0.0135,0.0135,0.0135,0.0135,0.0067,0.4577,0.4832,0.5101,0.4857,0.4914,0.4961,0.483,0.0,0.0,0.0,0.0,0.0,0.0,0.5112,0.5362,0.6159,0.6099,0.6269,0.7236,0.8644,0.9778,1.0229,1.0541,1.0721,1.0721,1.0721,1.0721,1.0721,1.0721,1.0721,1.0721,1.0721,1.0522,1.0193,1.006,0.9857,0.9721,0.9522,0.9325,0.9192,0.8987,0.8853,0.8851,0.8182,0.8182,0.8653,0.8179,0.7838,0.7569,0.7569,0.71,0.6366,0.57,0.4967,0.43,0.43,0.3831,0.3362,0.4766,0.5233,0.5501,0.6967,0.7971,0.8706,0.9377,0.9646,0.9848,1.0518,1.0721,1.0721,1.0721,1.0721,1.0522,0.9861,0.9728,0.9528,0.879,0.8587,0.8587,0.8587,0.8587,0.8387,0.7715,0.7581,0.7111,0.5635,0.5434,0.5166,0.4428,0.3691,0.3558,0.4227,0.3088,0.2283,0.2084,0.1479,0.0807,0.0067,0.0,0.0,0.0,0.0,0.0,0.0,0.0,0.0,0.0,0.0,0.0,0.0,0.0,0.0,0.4563,0.4789,0.5002,0.4911,0.4952,0.4982,0.4924,0.0,0.0,0.0,0.0,0.0,0.0,0.5094,0.0,0.0,0.5388,0.5626,0.6787,0.8346,0.9556,1.0229,1.0521,1.0694,1.0717,1.0721,1.0721,1.0721,1.0721,1.0721,1.0721,1.0654,1.0455,1.0123,0.9794,0.9389,0.905,0.905,0.8851,0.8587,0.8387,0.8251,0.8184,0.6775,0.6441,0.7042,0.59,0.5631,0.6032,0.6032,0.5965,0.5631,0.4433,0.3966,0.4033,0.4234,0.43,0.4501,0.6168,0.69,0.7234,0.8507,0.8909,0.9111,1.0316,0.9712,0.8842,1.0047,1.025,1.0117,1.0319,1.0386,1.0187,0.9525,0.9392,0.9123,0.8117,0.7915,0.7915,0.7915,0.7915,0.7579,0.6307,0.6107,0.557,0.416,0.3959,0.3892,0.369,0.2553,0.2285,0.349,0.1479,0.0471,0.1681,0.0673,0.0,0.0,0.0,0.0,0.0,0.0,0.0,0.0,0.0,0.0,0.0,0.0,0.0,0.0,0.0,0.0,0.4767,0.525,0.5545,0.5012,0.5108,0.5293,0.5096,0.0,0.0,0.0,0.0,0.0,0.0,0.4678,0.4582,0.0,0.4706,0.5406,0.709,0.7824,0.8673,1.0112,1.0426,1.0578,1.0707,1.0721,1.0721,1.0721,1.0721,1.0721,1.0721,1.0455,1.0127,0.9794,0.9389,0.9053,0.8653,0.8653,0.8653,0.8587,0.7314,0.6711,0.6711,0.53,0.4829,0.5227,0.5362,0.4964,0.423,0.45,0.3897,0.2826,0.2625,0.249,0.2692,0.3831,0.43,0.4702,0.7372,0.9042,1.0047,1.0316,1.0386,1.0452,1.0654,0.9712,0.864,0.8842,0.8038,0.7367,0.8573,0.8909,0.8709,0.8041,0.7838,0.7303,0.5364,0.4962,0.4962,0.4962,0.4962,0.4897,0.4629,0.4629,0.4093,0.2687,0.2419,0.2016,0.0807,0.0471,0.0404,0.0605,0.0269,0.0067,0.0337,0.0135,0.0,0.0,0.0,0.0,0.0,0.0,0.0,0.0,0.0,0.0,0.0,0.0,0.0,0.0,0.0,0.0,0.4477,0.4901,0.5335,0.5382,0.5742,0.6044,0.5891,0.5745,0.0,0.0,0.0,0.0,0.0,0.0,0.463,0.3912,0.4439,0.5056,0.5422,0.6865,0.8172,0.8989,0.9898,1.0405,1.0477,1.0551,1.0599,1.0599,1.0673,1.0721,1.0721,1.0389,1.006,0.9731,0.9319,0.8917,0.8587,0.7781,0.7381,0.7381,0.6711,0.5973,0.5233,0.3759,0.329,0.3624,0.3022,0.2687,0.2622,0.2758,0.2557,0.2222,0.2222,0.2222,0.249,0.4632,0.5969,0.6905,0.9045,1.0183,1.0721,1.0721,1.0183,0.9579,0.9579,0.8041,0.6303,0.6303,0.6368,0.6566,0.7234,0.7436,0.7234,0.65,0.6366,0.5964,0.4628,0.4293,0.4293,0.4293,0.4293,0.4026,0.3223,0.3089,0.262,0.1211,0.0942,0.074,0.0067,0.0,0.0,0.0,0.0,0.0,0.0,0.0,0.0,0.0,0.0,0.0,0.0,0.0,0.0,0.0,0.0,0.0,0.0,0.0,0.0,0.0,0.0,0.0,0.4308,0.4651,0.5069,0.5661,0.0,0.642,0.6549,0.6395,0.0,0.0,0.0,0.0,0.0,0.5178,0.4946,0.3966,0.4652,0.5152,0.4788,0.6596,0.8086,0.8463,0.9519,1.0243,1.0276,1.0378,1.0443,1.0443,1.0551,1.055,1.0481,1.0156,0.983,0.95,0.9099,0.8766,0.8505,0.7108,0.64,0.6376,0.5705,0.4832,0.3758,0.2285,0.1748,0.2017,0.0942,0.0808,0.1346,0.1548,0.175,0.2087,0.2155,0.2423,0.296,0.5099,0.7036,0.8776,0.9845,1.0452,1.0654,1.0319,0.9513,0.8507,0.8171,0.6303,0.43,0.43,0.4833,0.5499,0.5834,0.59,0.5765,0.5029,0.4896,0.4561,0.3489,0.3289,0.3289,0.3289,0.3289,0.2954,0.1815,0.1614,0.1211,0.0135,0.0,0.0,0.0,0.0,0.0,0.0,0.0,0.0,0.0,0.0,0.0,0.0,0.0,0.0,0.0,0.0,0.0,0.0,0.0,0.0,0.0,0.0,0.0,0.0,0.0,0.0,0.4688,0.4961,0.5194,0.5688,0.563,0.5747,0.6675,0.6346,0.0,0.6552,0.0,0.0,0.0,0.5334,0.5155,0.5239,0.5439,0.6031,0.7433,0.7787,0.8395,0.9718,0.9935,1.0058,1.0266,1.029,1.0297,1.0297,1.0304,1.0179,0.9854,0.9535,0.9218,0.8901,0.8453,0.8261,0.8261,0.6965,0.6341,0.6374,0.3694,0.2352,0.2218,0.0807,0.0135,0.0202,0.0404,0.0538,0.0606,0.1346,0.1616,0.1683,0.2087,0.3027,0.4167,0.4367,0.6239,0.864,0.8706,0.9579,1.0452,0.9178,0.8706,0.8371,0.6967,0.5501,0.43,0.43,0.343,0.2826,0.4099,0.4434,0.4298,0.3558,0.3357,0.282,0.074,0.0336,0.0336,0.0336,0.0336,0.0269,0.0202,0.0135,0.0135,0.0,0.0,0.0,0.0,0.0,0.0,0.0,0.0,0.0,0.0,0.0,0.0,0.0,0.0,0.0,0.0,0.0,0.0,0.0,0.0,0.0,0.0,0.0,0.0,0.0,0.0,0.0,0.4388,0.4715,0.512,0.575,0.5932,0.0,0.0,0.6577,0.7101,0.6747,0.7286,0.0,0.0,0.5511,0.503,0.5192,0.5374,0.5727,0.6453,0.7324,0.8119,0.8661,0.941,0.993,0.9988,1.008,1.0137,1.0137,1.0226,1.0149,0.9821,0.9503,0.9124,0.8808,0.8428,0.8172,0.8172,0.6046,0.4917,0.497,0.3009,0.1638,0.0787,0.0265,0.0,0.0,0.0134,0.0337,0.0538,0.1077,0.1414,0.1616,0.202,0.2558,0.3094,0.3966,0.5009,0.6157,0.7873,0.8861,0.924,0.864,0.7883,0.6938,0.5503,0.4056,0.2948,0.2948,0.2556,0.2239,0.2813,0.3027,0.2825,0.2085,0.1882,0.1547,0.0269,0.0,0.0,0.0,0.0,0.0,0.0,0.0,0.0,0.0,0.0,0.0,0.0,0.0,0.0,0.0,0.0,0.0,0.0,0.0,0.0,0.0,0.0,0.0,0.0,0.0,0.0,0.0,0.0,0.0,0.0,0.0,0.0,0.0,0.0,0.0,0.4331,0.4618,0.5056,0.5747,0.0,0.0,0.5596,0.6666,0.7713,0.7277,0.7801,0.8044,0.722,0.0,0.6125,0.6379,0.6571,0.6766,0.6985,0.787,0.8471,0.8471,0.9268,0.9822,0.9822,0.9856,0.9916,0.9916,0.9952,0.982,0.9563,0.9189,0.8875,0.8497,0.8245,0.8119,0.8119,0.5391,0.4061,0.3998,0.2287,0.0959,0.0,0.0,0.0,0.0,0.0,0.0133,0.0399,0.0731,0.1196,0.1661,0.1993,0.2192,0.2259,0.3251,0.3823,0.4376,0.6261,0.7168,0.7478,0.7022,0.6275,0.5277,0.3939,0.2836,0.2128,0.2128,0.2128,0.2138,0.2181,0.2199,0.2007,0.1271,0.1073,0.0874,0.0134,0.0,0.0,0.0,0.0,-0.0067,-0.0134,-0.0135,-0.0202,-0.0337,-0.0269,-0.0135,-0.0135,-0.0067,0.0,0.0,0.0,0.0,0.0,0.0,-0.0202,-0.0606,-0.0673,-0.0673,-0.0673,-0.1143,-0.1143,-0.0673,-0.0673,-0.0471,0.0,0.0,0.0,0.0,0.0,0.0,0.4716,0.4802,0.5067,0.0,0.0,0.0,0.5905,0.6642,0.7596,0.8204,0.8327,0.8371,0.8459,0.8482,0.8628,0.9132,0.9333,0.9479,0.9774,0.9819,0.9819,0.9822,0.9822,0.9822,0.9822,0.9822,0.9822,0.9822,0.9518,0.9156,0.8915,0.8552,0.8244,0.7933,0.7872,0.7872,0.7872,0.5226,0.3875,0.3875,0.1233,0.0,0.0,0.0,0.0,0.0,0.0,0.0,0.0,0.0387,0.0903,0.1612,0.1935,0.2064,0.2064,0.2064,0.277,0.3666,0.3666,0.4434,0.5201,0.405,0.3666,0.3474,0.2448,0.2063,0.2063,0.2128,0.2128,0.2128,0.2063,0.2086,0.1911,0.1186,0.1066,0.0871,0.0132,0.0,0.0,0.0,0.0,-0.0132,-0.047,-0.0471,-0.0673,-0.1009,-0.074,-0.0471,-0.0471,-0.0202,0.0,0.0,0.0,0.0,0.0,0.0,-0.0606,-0.2017,-0.2151,-0.2151,-0.2151,-0.349,-0.3624,-0.2151,-0.2151,-0.1412,-0.0067,0.0,0.0,0.0,0.0,0.0,0.4941,0.5584,0.0,0.6512,0.0,0.0,0.0,0.7681,0.0,0.0,0.8655,0.8591,0.8635,0.8554,0.856,0.8801,0.8971,0.9174,0.9469,0.9605,0.971,0.9808,0.9822,0.9822,0.9822,0.9822,0.97,0.9457,0.9335,0.9095,0.8552,0.843,0.8244,0.7933,0.7872,0.7872,0.7872,0.5226,0.3875,0.3875,0.1233,0.0,0.0,0.0,0.0,0.0,0.0,0.0,0.0,0.0387,0.0774,0.129,0.1354,0.1419,0.1419,0.1419,0.1538,0.1904,0.2854,0.3484,0.3791,0.3317,0.3266,0.3161,0.2007,0.1689,0.1752,0.194,0.2003,0.2003,0.1752,0.1707,0.1538,0.1101,0.0847,0.0522,0.013,0.0,0.0,0.0,-0.0195,-0.039,-0.0457,-0.0719,-0.0914,-0.098,-0.0914,-0.0787,-0.053,-0.0199,0.0,0.0,0.0,-0.0067,-0.0337,-0.0337,-0.0942,-0.242,-0.3425,-0.3894,-0.3624,-0.4093,-0.4093,-0.3624,-0.3624,-0.3423,-0.3021,-0.2016,-0.1479,-0.1479,-0.0471,0.0,0.5986,0.6857,0.0,0.8,0.8785,0.9354,0.8949,0.0,0.0,0.0,0.8818,0.873,0.8791,0.8676,0.8642,0.8852,0.8964,0.9106,0.9347,0.9345,0.9393,0.9533,0.9433,0.9395,0.9454,0.946,0.9339,0.9156,0.9034,0.8793,0.843,0.8244,0.8119,0.7933,0.7872,0.7872,0.7872,0.578,0.4429,0.3875,0.1787,0.0494,0.0,0.0,0.0,0.0,0.0,0.0,0.0,0.0381,0.0634,0.0888,0.1014,0.1078,0.1078,0.1078,0.0946,0.0939,0.1751,0.1999,0.1932,0.1978,0.2046,0.1995,0.1485,0.1297,0.1359,0.1544,0.1606,0.1544,0.1359,0.1181,0.1067,0.0828,0.0643,0.0387,0.0064,0.0,0.0,0.0,-0.0256,-0.0513,-0.0645,-0.0968,-0.1225,-0.1419,-0.129,-0.11,-0.0718,-0.0394,-0.0264,-0.04,-0.0268,-0.0337,-0.074,-0.1278,-0.2218,-0.3694,-0.5098,-0.6034,-0.6437,-0.617,-0.5702,-0.5166,-0.5166,-0.4897,-0.4492,-0.2887,-0.2151,-0.2284,-0.074,0.0,0.7448,0.8274,0.9169,0.9813,1.0214,0.0,1.0132,0.9365,0.8737,0.8848,0.0,0.8774,0.8858,0.877,0.8763,0.9089,0.9133,0.9128,0.9283,0.9013,0.889,0.9025,0.8807,0.874,0.8866,0.8878,0.8878,0.8818,0.8517,0.8334,0.8334,0.8025,0.7845,0.7856,0.7856,0.7861,0.7872,0.658,0.5228,0.3875,0.2588,0.1296,0.0,-0.0123,-0.0185,-0.0185,-0.0185,-0.0123,0.0,0.0309,0.0432,0.0494,0.0803,0.0926,0.0926,0.0926,0.0741,0.0432,0.0432,0.0247,0.0062,0.037,0.0432,0.0494,0.0864,0.0926,0.0988,0.0988,0.0988,0.0988,0.0988,0.0741,0.0496,0.044,0.0446,0.0385,0.0063,0.0,0.0,0.0,-0.0315,-0.0633,-0.0961,-0.1285,-0.167,-0.2056,-0.1734,-0.1414,-0.1094,-0.0781,-0.0657,-0.0986,-0.0732,-0.0738,-0.1276,-0.2482,-0.3954,-0.5564,-0.6833,-0.8176,-0.9661,-0.9056,-0.8051,-0.6711,-0.6711,-0.6237,-0.5225,-0.349,-0.2686,-0.2887,-0.1143,-0.0202,0.7448,0.8624,0.0,0.0,1.0278,0.9946,0.9892,0.9198,0.8608,0.8828,0.8858,0.8844,0.8878,0.8686,0.8572,0.8631,0.8422,0.8304,0.8502,0.8467,0.8459,0.8586,0.8605,0.8559,0.8586,0.8589,0.8475,0.824,0.8122,0.7948,0.7713,0.7654,0.7638,0.7736,0.7739,0.778,0.7869,0.658,0.5228,0.3875,0.2588,0.1296,-0.0062,-0.1111,-0.1542,-0.1542,-0.1542,-0.0987,0.0,0.0062,0.0123,0.0123,0.0185,0.0185,0.0185,0.0185,0.0185,0.0123,0.0123,0.0062,0.0,0.0062,0.0123,0.0185,0.0494,0.0617,0.0679,0.0926,0.0988,0.0926,0.0679,0.0556,0.0433,0.0186,0.0124,0.0062,0.0,0.0,0.0,0.0,-0.0496,-0.0932,-0.0997,-0.1496,-0.1933,-0.1995,-0.1746,-0.1502,-0.1392,-0.1081,-0.0896,-0.0971,-0.0909,-0.1503,-0.3037,-0.3436,-0.4709,-0.73,-0.7707,-0.8446,-0.9661,-0.9528,-0.9325,-0.8989,-0.8989,-0.8853,-0.8648,-0.7102,-0.583,-0.4762,-0.3222,-0.1949,0.8244,0.0,0.0,1.2154,0.0,1.0471,1.0562,0.9442,0.8445,0.8672,0.8777,0.8797,0.8699,0.8598,0.8429,0.8263,0.81,0.8014,0.8143,0.8042,0.8034,0.816,0.8002,0.7971,0.8035,0.8041,0.7924,0.7749,0.7749,0.7691,0.7519,0.7519,0.7548,0.7611,0.7614,0.7644,0.7701,0.704,0.6039,0.4745,0.347,0.1222,-0.1848,-0.1973,-0.1973,-0.1973,-0.1973,-0.1234,0.0,0.0,0.0,0.0,0.0,0.0,0.0,0.0,0.0,0.0,0.0,0.0,0.0,0.0,0.0,0.0062,0.0185,0.0247,0.0309,0.0494,0.0494,0.0494,0.0309,0.0247,0.0247,0.0062,0.0,-0.0062,-0.0185,-0.0123,-0.0123,-0.0432,-0.0741,-0.105,-0.1235,-0.1667,-0.1977,-0.1977,-0.1853,-0.1734,-0.1746,-0.2009,-0.2213,-0.242,-0.2884,-0.3612,-0.4678,-0.5495,-0.6587,-0.8093,-0.888,-0.9582,-1.0127,-1.019,-1.006,-0.9728,-0.9728,-0.9794,-0.9927,-0.831,-0.6836,-0.5633,-0.3959,-0.2419,0.8903,0.0,1.197,1.3638,1.2769,0.0,1.1392,0.9886,0.8524,0.8467,0.8567,0.8598,0.8446,0.8378,0.8284,0.7953,0.7864,0.7878,0.7878,0.766,0.7586,0.7686,0.7474,0.7345,0.7445,0.7456,0.7456,0.7456,0.7456,0.7456,0.7456,0.7456,0.7464,0.7486,0.7489,0.7497,0.7519,0.7519,0.6857,0.5628,0.419,0.0963,-0.354,-0.2506,-0.2146,-0.2342,-0.2342,-0.1418,0.0,0.0,0.0,0.0,0.0,0.0,0.0,0.0,0.0,0.0,0.0,0.0,0.0,0.0,-0.0062,-0.0062,-0.0062,-0.0123,-0.0185,-0.0123,-0.0062,-0.0062,0.0,-0.0062,-0.0062,-0.0062,-0.0123,-0.0247,-0.0432,-0.0309,-0.0309,-0.0864,-0.105,-0.1173,-0.1544,-0.1791,-0.1977,-0.1977,-0.1977,-0.2099,-0.2407,-0.3113,-0.3823,-0.4261,-0.5064,-0.5807,-0.6334,-0.7572,-0.8488,-0.8728,-0.9952,-1.0694,-1.0717,-1.0721,-1.0455,-0.9861,-0.9861,-0.9994,-1.0256,-0.8509,-0.7102,-0.5969,-0.4229,-0.2621,0.7904,0.0,1.2068,0.0,1.2772,1.2301,0.0,0.0,0.9203,0.847,0.8414,0.8467,0.8223,0.8006,0.7813,0.7545,0.7364,0.7321,0.7321,0.7265,0.7271,0.7287,0.7235,0.724,0.7259,0.7259,0.7259,0.7259,0.7259,0.7259,0.7259,0.7259,0.7249,0.7298,0.7301,0.7355,0.7516,0.7519,0.6818,0.5475,0.3183,0.0531,-0.2248,-0.2072,-0.2583,-0.363,-0.363,-0.2279,0.0,0.0,0.0,0.0,0.0,0.0,0.0,0.0,0.0,0.0,0.0,0.0,0.0,0.0,-0.0185,-0.0432,-0.0432,-0.0617,-0.0803,-0.0494,-0.0432,-0.037,-0.0062,-0.0185,-0.0432,-0.0432,-0.0679,-0.0803,-0.0556,-0.0679,-0.0864,-0.0988,-0.1235,-0.1544,-0.1853,-0.1977,-0.1977,-0.1977,-0.1977,-0.2531,-0.4064,-0.4378,-0.475,-0.5546,-0.574,-0.6399,-0.7679,-0.8016,-0.875,-1.0149,-1.038,-1.0582,-1.0714,-1.0721,-1.0654,-1.0588,-1.0588,-1.0588,-1.0654,-0.9178,-0.7702,-0.6299,-0.4833,-0.3429,0.8288,0.9759,1.1143,0.0,1.1967,1.1467,1.123,1.0149,0.9042,0.8675,0.839,0.8132,0.7879,0.7746,0.7573,0.7147,0.7089,0.7114,0.7114,0.7169,0.721,0.721,0.721,0.721,0.721,0.721,0.721,0.721,0.721,0.721,0.721,0.721,0.7235,0.7233,0.7233,0.726,0.7315,0.7315,0.6372,0.4404,0.3393,0.1175,-0.2,-0.2,-0.2322,-0.2858,-0.2858,-0.1773,0.0,0.0,0.0,0.0,0.0,0.0,0.0,0.0,0.0,0.0,0.0,0.0,-0.0062,-0.0247,-0.037,-0.0556,-0.0741,-0.0864,-0.0988,-0.0803,-0.0803,-0.0741,-0.0617,-0.0679,-0.0741,-0.0617,-0.0926,-0.1235,-0.0988,-0.0988,-0.105,-0.1235,-0.1544,-0.1853,-0.1977,-0.1977,-0.2222,-0.2958,-0.308,-0.3633,-0.5104,-0.5961,-0.6573,-0.6999,-0.7673,-0.8369,-0.8986,-0.9125,-0.9475,-1.0172,-1.0399,-1.0521,-1.0592,-1.0673,-1.0721,-1.0721,-1.0721,-1.0721,-1.0721,-1.0047,-0.9042,-0.7569,-0.6168,-0.4699,0.0,0.0,0.9846,1.1073,1.1066,1.0822,0.0,0.0,0.931,0.9205,0.8627,0.8056,0.7914,0.7464,0.6962,0.6437,0.6214,0.6231,0.6503,0.6518,0.6568,0.6845,0.679,0.6681,0.6681,0.6681,0.6691,0.6719,0.6832,0.6959,0.6985,0.7099,0.721,0.721,0.721,0.721,0.721,0.721,0.5962,0.3592,0.3695,0.1915,-0.1511,-0.1511,-0.1466,-0.1489,-0.1853,-0.1209,0.0,0.0,0.0,0.0,0.0,0.0,0.0,0.0,-0.0062,-0.0123,-0.0123,-0.0185,-0.0308,-0.0553,-0.0675,-0.0797,-0.1039,-0.116,-0.1221,-0.1099,-0.1099,-0.1099,-0.0977,-0.1041,-0.1044,-0.0921,-0.1231,-0.1606,-0.1482,-0.1359,-0.142,-0.1974,-0.2282,-0.253,-0.2653,-0.2837,-0.3328,-0.4243,-0.4611,-0.5284,-0.6693,-0.7734,-0.841,-0.841,-0.9207,-0.9822,-0.9822,-0.9866,-0.9947,-0.9984,-1.0256,-1.0395,-1.0436,-1.0582,-1.0663,-1.0663,-1.07,-1.0721,-1.0721,-1.0316,-0.9646,-0.8573,-0.71,-0.5834,0.0,0.7209,0.0,0.9149,1.0256,1.1086,0.0,1.0702,1.0704,1.0405,0.9266,0.8432,0.8684,0.719,0.574,0.5175,0.4362,0.4148,0.5159,0.4845,0.4904,0.5917,0.56,0.5282,0.5282,0.5282,0.5318,0.54,0.5957,0.6274,0.6369,0.6874,0.721,0.721,0.721,0.721,0.721,0.721,0.5982,0.3585,0.3589,0.23,-0.0112,-0.0112,-0.0113,-0.0173,-0.1463,-0.1249,0.0,0.0,0.0,0.0,0.0,0.0,0.0,0.0,-0.0185,-0.0494,-0.0494,-0.0679,-0.0924,-0.091,-0.1087,-0.1386,-0.1365,-0.1595,-0.1772,-0.1477,-0.1359,-0.13,-0.1004,-0.1135,-0.139,-0.139,-0.165,-0.1977,-0.1977,-0.1977,-0.2283,-0.3509,-0.3815,-0.3939,-0.437,-0.5165,-0.5712,-0.5774,-0.651,-0.7675,-0.939,-0.9636,-0.9697,-0.9697,-0.9758,-0.9822,-0.9822,-0.9829,-0.9893,-0.9977,-1.0,-1.0137,-1.0287,-1.0429,-1.0504,-1.0504,-1.0646,-1.0721,-1.0721,-0.9377,-0.864,-0.8573,-0.71,-0.6366,0.0,0.0,0.0,0.8145,0.8866,0.9473,0.9714,0.9869,0.984,0.9372,0.8683,0.8063,0.7614,0.6364,0.5282,0.493,0.4077,0.3862,0.4906,0.4956,0.5208,0.5902,0.585,0.5585,0.5216,0.5216,0.5229,0.526,0.5745,0.6083,0.6119,0.673,0.7046,0.7046,0.7172,0.6818,0.604,0.604,0.481,0.2462,0.2238,0.1288,-0.028,-0.0505,-0.0563,-0.0622,-0.1082,-0.0927,-0.0297,-0.0475,-0.0596,-0.0599,-0.0599,-0.0599,-0.0599,-0.0599,-0.0659,-0.0779,-0.0779,-0.0839,-0.0958,-0.1131,-0.1308,-0.1425,-0.1653,-0.1826,-0.1885,-0.1768,-0.1709,-0.1709,-0.1591,-0.1657,-0.1965,-0.2826,-0.3259,-0.3637,-0.4357,-0.3817,-0.3325,-0.3815,-0.4611,-0.504,-0.4677,-0.5349,-0.6082,-0.6632,-0.7245,-0.8163,-0.9636,-0.9822,-0.9822,-0.9822,-0.9822,-0.9822,-0.9822,-0.9822,-0.9842,-0.9839,-0.9933,-1.0011,-1.0131,-1.0276,-1.0354,-1.0354,-1.0412,-1.0531,-1.0721,-1.0183,-0.9981,-0.9915,-0.8507,-0.7836,0.5793,0.0,0.0,0.0,0.7678,0.8082,0.8981,0.9302,0.9402,0.9343,0.8715,0.8065,0.7681,0.5921,0.4395,0.4275,0.3153,0.2768,0.4201,0.4298,0.4646,0.5744,0.5692,0.538,0.486,0.481,0.4717,0.4588,0.5063,0.5497,0.5688,0.6129,0.6493,0.6655,0.6725,0.6324,0.5334,0.531,0.4104,0.161,0.1395,0.0672,-0.0561,-0.0785,-0.0897,-0.0897,-0.1009,-0.0855,-0.0584,-0.0818,-0.0879,-0.0884,-0.0884,-0.1119,-0.153,-0.153,-0.1823,-0.2293,-0.2293,-0.2059,-0.1881,-0.2047,-0.1869,-0.1577,-0.18,-0.1855,-0.1855,-0.1855,-0.1855,-0.1855,-0.1855,-0.2153,-0.2813,-0.4103,-0.4583,-0.489,-0.5649,-0.4838,-0.4182,-0.5039,-0.5957,-0.651,-0.639,-0.6815,-0.7429,-0.7983,-0.8349,-0.8839,-0.9697,-0.9822,-0.9822,-0.9822,-0.9822,-0.9822,-0.9822,-0.9822,-0.9822,-0.9822,-0.9856,-0.9909,-0.9909,-1.012,-1.0202,-1.0202,-1.0253,-1.0378,-1.0571,-1.0619,-1.067,-1.0654,-0.9712,-0.931,0.0,0.0,0.0,0.0,0.0,0.0,0.859,0.9075,0.9517,1.0376,0.9341,0.8453,0.9092,0.579,0.3052,0.3161,0.1412,0.0757,0.2871,0.2723,0.3225,0.5284,0.5135,0.4634,0.4083,0.4033,0.3812,0.3365,0.3887,0.4488,0.5043,0.5157,0.5424,0.5955,0.5955,0.5686,0.5153,0.5078,0.3813,0.1254,0.122,0.0504,-0.0896,-0.0953,-0.0953,-0.0953,-0.129,-0.1245,-0.0977,-0.0919,-0.0928,-0.0941,-0.0941,-0.1704,-0.2756,-0.2756,-0.3751,-0.5035,-0.5035,-0.4454,-0.3688,-0.3631,-0.2811,-0.1776,-0.1804,-0.1795,-0.1795,-0.1851,-0.1851,-0.1795,-0.1851,-0.2778,-0.4027,-0.5257,-0.557,-0.5594,-0.5745,-0.4862,-0.4789,-0.736,-0.7911,-0.8337,-0.9572,-0.9819,-0.9815,-0.9822,-0.9822,-0.9822,-0.9822,-0.9822,-0.9822,-0.9822,-0.9822,-0.9822,-0.9822,-0.9822,-0.9822,-0.9822,-0.9822,-0.9822,-0.9822,-0.9903,-0.998,-0.998,-1.0188,-1.027,-1.0273,-1.0415,-1.0561,-1.0707,-1.0707,-1.0711,0.5766,0.0,0.0,0.0,0.0,0.0,0.7066,0.7617,0.7937,0.7768,0.7564,0.7313,0.6906,0.4737,0.299,0.3049,0.1349,0.0454,0.1865,0.2571,0.3324,0.4327,0.4983,0.5183,0.4634,0.4583,0.4343,0.3861,0.4317,0.453,0.4298,0.4767,0.5145,0.5424,0.4837,0.4145,0.3348,0.2723,0.166,0.0054,-0.0164,-0.0605,-0.1212,-0.2338,-0.2353,-0.1627,-0.3467,-0.3755,-0.2762,-0.1919,-0.1529,-0.1649,-0.2498,-0.3063,-0.346,-0.4305,-0.4927,-0.5265,-0.5265,-0.4533,-0.3628,-0.361,-0.2763,-0.1806,-0.1797,-0.1795,-0.1963,-0.2856,-0.2465,-0.2019,-0.2856,-0.4601,-0.6271,-0.6774,-0.6797,-0.7059,-0.8116,-0.7343,-0.6677,-0.7535,-0.8379,-0.915,-0.9724,-0.9737,-0.9703,-0.9805,-0.9822,-0.9822,-0.9822,-0.9822,-0.9822,-0.9822,-0.9822,-0.9822,-0.9822,-0.9822,-0.9822,-0.9822,-0.9822,-0.9822,-0.9822,-0.9863,-0.9883,-0.9883,-0.9927,-1.0002,-1.0051,-1.0266,-1.0361,-1.0402,-1.0402,-1.0456,0.0,0.0,0.0,0.0,0.0,0.0,0.6686,0.7078,0.7268,0.6857,0.6824,0.6718,0.6219,0.43,0.2838,0.2943,0.1313,0.0397,0.1459,0.2116,0.2821,0.3574,0.463,0.5033,0.4531,0.4682,0.4583,0.4033,0.4083,0.3831,0.3176,0.3767,0.3959,0.3689,0.3222,0.265,0.1873,0.1363,0.0526,-0.0792,-0.1448,-0.1898,-0.2239,-0.3637,-0.389,-0.3357,-0.4804,-0.5027,-0.4305,-0.358,-0.3301,-0.3358,-0.4081,-0.4639,-0.5142,-0.5866,-0.6422,-0.6866,-0.6866,-0.6089,-0.5087,-0.5087,-0.425,-0.3301,-0.3301,-0.3301,-0.3469,-0.4137,-0.3858,-0.358,-0.4752,-0.6091,-0.7279,-0.7856,-0.7986,-0.8191,-0.9138,-0.866,-0.8099,-0.8287,-0.891,-0.9435,-0.9608,-0.9622,-0.9639,-0.972,-0.9785,-0.9822,-0.9822,-0.9822,-0.9822,-0.9822,-0.9822,-0.9822,-0.9822,-0.9822,-0.9822,-0.9822,-0.9822,-0.9822,-0.9822,-0.9822,-0.9822,-0.9822,-0.9822,-0.9866,-0.9893,-1.0107,-1.0215,-1.028,-1.028,-1.0324,0.0,0.0,0.0,0.0,0.0,0.0,0.6905,0.7073,0.7039,0.6835,0.6585,0.6364,0.6207,0.4168,0.2538,0.2777,0.1204,0.0287,0.1299,0.1511,0.1966,0.2871,0.3927,0.4379,0.3874,0.4279,0.4332,0.378,0.3228,0.2623,0.1916,0.2317,0.2266,0.1509,0.1409,0.1158,0.0706,0.0615,-0.0103,-0.1501,-0.2421,-0.3153,-0.3687,-0.4777,-0.5314,-0.5388,-0.5618,-0.568,-0.5569,-0.5746,-0.5639,-0.5417,-0.5528,-0.62,-0.7096,-0.7263,-0.7989,-0.8885,-0.8885,-0.81,-0.7096,-0.7096,-0.6313,-0.5417,-0.5417,-0.5417,-0.5417,-0.5417,-0.5584,-0.5975,-0.6871,-0.721,-0.7543,-0.866,-0.8885,-0.8974,-0.91,-0.9028,-0.8959,-0.9279,-0.933,-0.9337,-0.9354,-0.9469,-0.9564,-0.9581,-0.9707,-0.9798,-0.9798,-0.9812,-0.9822,-0.9822,-0.9822,-0.9822,-0.9822,-0.9822,-0.9822,-0.9822,-0.9822,-0.9822,-0.9822,-0.9822,-0.9822,-0.9822,-0.9822,-0.9822,-0.9822,-0.9896,-1.0093,-1.0229,-1.0229,-1.0239,0.0,0.0,0.0,0.0,0.0,0.0,0.6308,0.6282,0.6258,0.5748,0.5378,0.5108,0.4917,0.3491,0.2366,0.2399,0.0885,-0.0182,0.0244,0.1049,0.1613,0.1613,0.2518,0.3071,0.2767,0.2819,0.2668,0.2114,0.1562,0.121,0.1058,0.1109,0.1108,0.0957,0.0353,0.005,0.0151,-0.0507,-0.1369,-0.2533,-0.2786,-0.3491,-0.465,-0.5829,-0.5878,-0.5097,-0.7177,-0.7494,-0.6684,-0.7776,-0.7091,-0.5472,-0.6424,-0.6927,-0.721,-0.8214,-0.8716,-0.8885,-0.8885,-0.81,-0.7096,-0.7096,-0.6313,-0.5417,-0.5417,-0.5417,-0.5417,-0.5417,-0.6755,-0.8042,-0.7321,-0.7823,-0.8605,-0.883,-0.8885,-0.8892,-0.8974,-0.8902,-0.8902,-0.8956,-0.9025,-0.9062,-0.9234,-0.9279,-0.9344,-0.9408,-0.9554,-0.9649,-0.9649,-0.9751,-0.9822,-0.9822,-0.9822,-0.9822,-0.9822,-0.9822,-0.9822,-0.9822,-0.9822,-0.9822,-0.9822,-0.9822,-0.9822,-0.9822,-0.9822,-0.9822,-0.9822,-0.9849,-0.988,-0.991,-0.991,-0.9975,0.0,0.0,0.0,0.7505,0.0,0.0,0.0,0.6548,0.5977,0.5571,0.5016,0.4578,0.4506,0.3213,0.2159,0.2179,0.0838,-0.0171,-0.0134,0.0189,0.0392,0.0245,0.1175,0.1769,0.1637,0.1887,0.1795,0.1258,0.0957,0.0605,0.0202,0.0202,0.0,-0.0404,-0.0808,-0.0909,-0.0808,-0.1716,-0.247,-0.3021,-0.4114,-0.5071,-0.5835,-0.6987,-0.7206,-0.679,-0.8027,-0.8275,-0.7745,-0.8489,-0.8105,-0.7117,-0.7738,-0.7989,-0.8045,-0.866,-0.8885,-0.8885,-0.8885,-0.8491,-0.7989,-0.7989,-0.7595,-0.7146,-0.7146,-0.7146,-0.7146,-0.7146,-0.7986,-0.8771,-0.8156,-0.8436,-0.8885,-0.8885,-0.8885,-0.8885,-0.8885,-0.8885,-0.8885,-0.8885,-0.8885,-0.8905,-0.9032,-0.9163,-0.9234,-0.9313,-0.9398,-0.9496,-0.9496,-0.9625,-0.9717,-0.9717,-0.9778,-0.9822,-0.9822,-0.9822,-0.9822,-0.9822,-0.9822,-0.9822,-0.9822,-0.9822,-0.9822,-0.9822,-0.9822,-0.9822,-0.9822,-0.9822,-0.9822,-0.9822,-0.9822,-0.9863,0.0,0.0,0.0,0.0,0.0,0.7796,0.0,0.0,0.0,0.5595,0.4917,0.436,0.4395,0.3082,0.2007,0.2089,0.0864,-0.0118,-0.0313,-0.0558,-0.0736,-0.0745,0.0,0.0473,0.0385,0.0816,0.0872,0.0398,0.0347,0.0099,-0.0602,-0.0655,-0.0909,-0.1566,-0.1818,-0.1919,-0.1919,-0.2973,-0.3524,-0.3524,-0.5482,-0.6486,-0.6677,-0.776,-0.8289,-0.8397,-0.8428,-0.8442,-0.8455,-0.8604,-0.8665,-0.8682,-0.8811,-0.8885,-0.8885,-0.8885,-0.8885,-0.8885,-0.8885,-0.8885,-0.8885,-0.8885,-0.8885,-0.8885,-0.8885,-0.8885,-0.8885,-0.8885,-0.8885,-0.8885,-0.8885,-0.8885,-0.8885,-0.8885,-0.8885,-0.8885,-0.8885,-0.8885,-0.8885,-0.8885,-0.8885,-0.8885,-0.8885,-0.9035,-0.9169,-0.9169,-0.9242,-0.9337,-0.9337,-0.9469,-0.9564,-0.9564,-0.9693,-0.9781,-0.9781,-0.9805,-0.9822,-0.9822,-0.9822,-0.9822,-0.9822,-0.9822,-0.9822,-0.9822,-0.9822,-0.9822,-0.9822,-0.9822,-0.9822,-0.9822,-0.9822,-0.9822,0.0,0.0,0.0,0.0,0.8536,0.0,0.0,0.0,0.5677,0.5119,0.0,0.4177,0.3985,0.0,0.0,0.1999,0.0665,-0.0351,-0.0402,-0.0658,-0.0878,-0.0891,-0.0839,-0.0859,-0.1133,-0.1069,-0.1083,-0.1242,-0.1207,-0.1258,-0.1474,-0.1452,-0.1516,-0.1617,-0.2521,-0.3022,-0.3022,-0.4074,-0.4624,-0.4624,-0.5832,-0.6392,-0.6456,-0.7563,-0.8025,-0.8049,-0.8235,-0.8347,-0.8357,-0.8448,-0.8509,-0.8537,-0.8825,-0.8885,-0.8885,-0.8885,-0.8885,-0.8885,-0.8885,-0.8885,-0.8885,-0.8885,-0.8885,-0.8885,-0.8885,-0.8885,-0.8885,-0.8885,-0.8885,-0.8885,-0.8885,-0.8885,-0.8885,-0.8885,-0.8885,-0.8885,-0.8885,-0.8885,-0.8885,-0.8885,-0.8885,-0.8885,-0.8885,-0.8898,-0.8908,-0.8908,-0.9086,-0.9234,-0.9234,-0.9313,-0.9408,-0.9408,-0.9544,-0.9635,-0.9635,-0.9747,-0.9822,-0.9822,-0.9822,-0.9822,-0.9822,-0.9822,-0.9822,-0.9822,-0.9822,-0.9822,-0.9822,-0.9822,-0.9822,-0.9822,-0.9822,-0.9822,0.0,0.0,0.0,0.0,0.0,0.0,0.7106,0.0,0.5378,0.0,0.0,0.0,0.0,0.0,0.0,0.0,0.1598,0.0691,0.0126,-0.0067,-0.0326,-0.0848,-0.1027,-0.1178,-0.1311,-0.1363,-0.1352,-0.1422,-0.1925,-0.2306,-0.245,-0.3042,-0.3388,-0.3472,-0.3874,-0.4124,-0.4124,-0.5179,-0.5729,-0.5729,-0.6833,-0.7338,-0.7338,-0.7789,-0.7988,-0.7992,-0.8109,-0.8136,-0.8147,-0.8299,-0.836,-0.8381,-0.8591,-0.8726,-0.8818,-0.8851,-0.8885,-0.8885,-0.8885,-0.8885,-0.8885,-0.8885,-0.8885,-0.8885,-0.8885,-0.8885,-0.8885,-0.8885,-0.8885,-0.8885,-0.8885,-0.8885,-0.8885,-0.8885,-0.8885,-0.8885,-0.8885,-0.8885,-0.8885,-0.8885,-0.8885,-0.8885,-0.8885,-0.8885,-0.8885,-0.8885,-0.8991,-0.9028,-0.9028,-0.9157,-0.9306,-0.9306,-0.9388,-0.9513,-0.9602,-0.9663,-0.9734,-0.9815,-0.9822,-0.9822,-0.9822,-0.9822,-0.9822,-0.9822,-0.9822,-0.9822,-0.9822,-0.9822,-0.9822,-0.9822,-0.9822,-0.9822,1.0314,0.0,0.0,0.0,0.0,0.0,0.0,0.0,0.0,0.0,0.0,0.0,0.0,0.0,0.0,0.0,0.0,0.1584,0.0755,0.0502,0.0066,-0.0833,-0.1061,-0.1208,-0.1245,-0.1219,-0.1256,-0.138,-0.2192,-0.2796,-0.3029,-0.3975,-0.4602,-0.4738,-0.5064,-0.5227,-0.5227,-0.6284,-0.6686,-0.6437,-0.7487,-0.7839,-0.7587,-0.7889,-0.7988,-0.7988,-0.7988,-0.7988,-0.7998,-0.816,-0.8208,-0.8221,-0.8367,-0.8492,-0.8608,-0.8757,-0.8815,-0.8815,-0.8815,-0.8815,-0.8815,-0.8815,-0.8815,-0.8815,-0.8815,-0.8815,-0.8815,-0.8815,-0.8845,-0.8821,-0.8821,-0.8851,-0.8885,-0.8885,-0.8885,-0.8885,-0.8885,-0.8885,-0.8885,-0.8885,-0.8885,-0.8885,-0.8885,-0.8885,-0.8885,-0.8885,-0.8885,-0.8885,-0.8885,-0.9028,-0.9093,-0.9093,-0.9228,-0.9364,-0.9473,-0.9523,-0.9591,-0.9693,-0.97,-0.97,-0.97,-0.97,-0.972,-0.9764,-0.9764,-0.9781,-0.9822,-0.9822,-0.9822,-0.9822,-0.9822,-0.9822,0.9992,0.9711,0.9218,0.8833,0.7845,0.678,0.5854,0.5527,0.5335,0.0,0.0,0.0,0.0,0.0,0.0,0.0,0.0,0.0,0.0,0.0779,0.006,-0.0897,-0.1044,-0.1091,-0.1089,-0.1043,-0.1104,-0.1291,-0.1998,-0.2577,-0.2899,-0.3866,-0.4462,-0.46,-0.573,-0.6334,-0.6334,-0.7437,-0.7437,-0.6437,-0.7487,-0.7437,-0.6487,-0.7537,-0.7988,-0.7988,-0.7988,-0.7988,-0.7988,-0.7995,-0.7995,-0.8012,-0.8218,-0.8333,-0.8354,-0.8445,-0.8496,-0.8496,-0.8496,-0.8496,-0.8496,-0.8496,-0.8496,-0.8496,-0.8496,-0.8496,-0.8496,-0.8496,-0.8604,-0.8716,-0.8716,-0.8828,-0.8885,-0.8885,-0.8885,-0.8885,-0.8885,-0.8885,-0.8885,-0.8885,-0.8885,-0.8885,-0.8885,-0.8885,-0.8885,-0.8885,-0.8885,-0.8885,-0.8885,-0.8888,-0.8892,-0.8892,-0.9076,-0.9217,-0.9224,-0.9303,-0.9391,-0.9395,-0.9395,-0.9395,-0.9395,-0.9395,-0.9466,-0.9612,-0.9615,-0.9683,-0.9822,-0.9822,-0.9822,-0.9822,-0.9822,-0.9822,0.9404,0.8991,0.8388,0.7838,0.6962,0.6013,0.5314,0.5158,0.5115,0.4829,0.0,0.0,0.0,0.0,0.0,0.0,0.0,0.0,0.0,0.0344,-0.0572,-0.0898,0.0,0.0,-0.1032,-0.1015,-0.1057,-0.1224,-0.2533,-0.3462,-0.3751,-0.5307,-0.6299,-0.6566,-0.7082,-0.7392,-0.7437,-0.7839,-0.7839,-0.7437,-0.7839,-0.7789,-0.7487,-0.7839,-0.7988,-0.7988,-0.7988,-0.7988,-0.7988,-0.7988,-0.7988,-0.7995,-0.8096,-0.8116,-0.8147,-0.8391,-0.8482,-0.8482,-0.8482,-0.8482,-0.8482,-0.8482,-0.8482,-0.8482,-0.8482,-0.8643,-0.8752,-0.8752,-0.8948,-0.9065,-0.9004,-0.9014,-0.9029,-0.8913,-0.8885,-0.8885,-0.8885,-0.8885,-0.894,-0.9213,-0.9213,-0.9213,-0.9213,-0.9213,-0.9158,-0.8937,-0.8885,-0.8885,-0.8885,-0.8885,-0.8885,-0.8885,-0.8981,-0.9049,-0.92,-0.935,-0.9381,-0.9381,-0.9381,-0.9381,-0.9381,-0.9381,-0.9405,-0.9456,-0.9557,-0.9632,-0.9683,-0.9774,-0.9822,-0.9822,-0.9822,-0.9822,0.87,0.8233,0.7625,0.7353,0.6626,0.581,0.5213,0.527,0.5309,0.5,0.513,0.5133,0.0,0.0,0.0,0.0,0.0,0.0,0.0,0.017,0.0,0.0,0.0,0.0,0.0,-0.0953,-0.1025,-0.1159,-0.2484,-0.3492,-0.4068,-0.567,-0.6888,-0.7509,-0.7709,-0.7885,-0.7988,-0.7988,-0.7988,-0.7988,-0.7988,-0.7988,-0.7988,-0.7988,-0.7988,-0.7988,-0.7988,-0.7988,-0.7988,-0.7988,-0.7988,-0.7988,-0.7988,-0.7988,-0.8012,-0.8255,-0.8323,-0.8323,-0.8323,-0.8323,-0.8323,-0.8323,-0.8323,-0.8326,-0.8426,-0.8584,-0.8742,-0.8844,-0.9039,-0.9213,-0.9102,-0.9108,-0.9054,-0.8995,-0.8954,-0.8885,-0.8885,-0.8885,-0.8992,-0.9323,-0.9379,-0.9379,-0.9379,-0.9379,-0.9268,-0.8937,-0.8885,-0.8885,-0.8885,-0.8885,-0.8885,-0.8885,-0.8885,-0.8977,-0.9069,-0.9167,-0.9225,-0.9225,-0.9225,-0.9225,-0.9225,-0.9225,-0.9249,-0.93,-0.9398,-0.9473,-0.953,-0.9622,-0.9666,-0.9666,-0.9666,-0.9666]},{"header":{"parameterUnit":"m.s-1","parameterCategory":1,"la1":30.6,"la2":29.2853,"lo1":-89.7004,"lo2":-87.6739,"dy":0.0162,"dx":0.0183,"nx":112,"ny":82,"refTime":"2025-08-07T12:00:00:Z","depth":0,"parameterNumber":3,"parameterNumberName":"V-component_of_WINDS"},"data":[0.0,0.0,0.0,0.0,0.0,0.0,0.0,0.0,0.0,0.0,0.0,0.0,0.0,0.0,0.0,0.0,0.0,0.0,0.0,0.0,0.0,0.0,0.0,0.0,0.0,0.0,0.0,0.0,0.0,0.0,0.0,0.0,0.0,0.0,0.0,0.0,0.0,0.0,0.0,0.0,0.0,0.0,0.0,0.0,0.0,0.0,0.0,0.0,0.0,0.0,0.0,0.0,0.0,0.0,0.0,0.0,0.0,0.0,0.0,0.0,0.0,0.0,0.0,0.0,0.0,0.0,0.0,0.0,0.0,0.0,0.0,0.0,0.0,0.0,0.0,0.0,0.0,0.0,0.0,0.0,0.0,0.0,0.0,0.0,0.0,0.0,0.0,0.0,0.0,0.0,2.9941,3.2852,3.7337,4.0096,4.0096,3.8531,3.6096,3.2682,0.0,0.0,0.0,0.0,0.0,0.0,0.0,0.0,0.0,0.0,0.0,0.0,0.0,0.0,0.0,0.0,0.0,0.0,0.0,0.0,0.0,0.0,0.0,0.0,0.0,0.0,0.0,0.0,0.0,0.0,0.0,0.0,0.0,0.0,0.0,0.0,0.0,0.0,0.0,0.0,0.0,0.0,0.0,0.0,0.0,0.0,0.0,0.0,0.0,0.0,0.0,0.0,0.0,0.0,0.0,0.0,0.0,0.0,0.0,0.0,0.0,0.0,0.0,0.0,0.0,0.0,0.0,0.0,0.0,0.0,0.0,0.0,0.0,0.0,0.0,0.0,0.0,0.0,0.0,0.0,0.0,0.0,0.0,0.0,0.0,0.0,0.0,0.0,0.0,0.0,0.0,0.0,0.0,0.0,0.0,0.0,0.0,0.0,0.0,0.0,0.0,0.0,0.0,0.0,3.0309,3.64,3.887,4.0096,4.0096,3.755,3.516,3.3355,0.0,0.0,0.0,0.0,0.0,0.0,0.0,0.0,0.0,0.0,0.0,0.0,0.0,0.0,0.0,0.0,0.0,0.0,0.0,0.0,0.0,0.0,0.0,0.0,0.0,0.0,0.0,0.0,0.0,0.0,0.0,0.0,0.0,0.0,0.0,0.0,0.0,0.0,0.0,0.0,0.0,0.0,0.0,0.0,0.0,0.0,0.0,0.0,0.0,0.0,0.0,0.0,0.0,0.0,0.0,0.0,0.0,0.0,0.0,0.0,0.0,0.0,0.0,0.0,0.0,0.0,0.0,0.0,0.0,0.0,0.0,0.0,0.0,0.0,0.0,0.0,0.0,0.0,0.0,0.0,0.0,0.0,0.0,0.0,0.0,0.0,0.0,0.0,0.0,0.0,0.0,0.0,0.0,0.0,0.0,0.0,0.0,0.0,0.0,0.0,0.0,0.0,0.0,2.9651,3.251,3.8447,3.9706,4.0096,4.0096,3.733,3.4957,3.3487,2.9465,0.0,0.0,0.0,0.0,0.0,0.0,0.0,0.0,0.0,0.0,0.0,0.0,0.0,0.0,0.0,0.0,0.0,0.0,0.0,0.0,0.0,0.0,0.0,0.0,0.0,0.0,0.0,0.0,0.0,0.0,0.0,0.0,0.0,0.0,0.0,0.0,0.0,0.0,0.0,0.0,0.0,0.0,0.0,0.0,0.0,0.0,0.0,0.0,0.0,0.0,0.0,0.0,0.0,0.0,0.0,0.0,0.0,0.0,0.0,0.0,0.0,0.0,0.0,0.0,0.0,0.0,0.0,0.0,0.0,0.0,0.0,0.0,0.0,0.0,0.0,0.0,0.0,0.0,0.0,0.0,0.0,0.0,0.0,0.0,0.0,0.0,0.0,0.0,0.0,0.0,0.0,0.0,0.0,0.0,0.0,0.0,0.0,0.0,0.0,0.0,0.0,0.0,3.3,3.4883,3.9605,4.0096,4.0096,4.0096,3.7026,3.4539,3.322,2.7909,0.0,0.0,0.0,0.0,0.0,0.0,0.0,0.0,0.0,0.0,0.0,0.0,0.0,0.0,0.0,0.0,0.0,0.0,0.0,0.0,0.0,0.0,0.0,0.0,0.0,0.0,0.0,0.0,0.0,0.0,0.0,0.0,0.0,0.0,0.0,0.0,0.0,0.0,0.0,0.0,0.0,0.0,0.0,0.0,0.0,0.0,0.0,0.0,0.0,0.0,0.0,0.0,0.0,0.0,0.0,0.0,0.0,0.0,0.0,0.0,0.0,0.0,0.0,0.0,0.0,0.0,0.0,0.0,0.0,0.0,0.0,0.0,0.0,0.0,0.0,0.0,0.0,0.0,0.0,0.0,0.0,0.0,0.0,0.0,0.0,0.0,0.0,0.0,0.0,0.0,0.0,0.0,0.0,0.0,0.0,0.0,0.0,0.0,0.0,0.0,0.0,0.0,3.3711,3.6586,3.9757,4.0096,4.0096,4.0096,3.6079,3.322,3.2429,2.6184,0.0,0.0,0.0,0.0,0.0,0.0,0.0,0.0,0.0,0.0,0.0,0.0,0.0,0.0,0.0,0.0,0.0,0.0,0.0,0.0,0.0,0.0,0.0,0.0,0.0,0.0,0.0,0.0,0.0,0.0,0.0,0.0,0.0,0.0,0.0,0.0,0.0,0.0,0.0,0.0,0.0,0.0,0.0,0.0,0.0,0.0,0.0,0.0,0.0,0.0,0.0,0.0,0.0,0.0,0.0,0.0,0.0,0.0,0.0,0.0,0.0,0.0,0.0,0.0,0.0,0.0,0.0,0.0,0.0,0.0,0.0,0.0,0.0,0.0,0.0,0.0,0.0,0.0,0.0,0.0,0.0,0.0,0.0,0.0,0.0,0.0,0.0,0.0,0.0,0.0,0.0,0.0,0.0,0.0,0.0,0.0,0.0,0.0,0.0,0.0,0.0,0.0,3.3124,3.5914,0.0,4.0163,4.0188,4.0113,3.6823,3.4066,3.2395,0.0,0.0,0.0,0.0,0.0,0.0,0.0,0.0,0.0,0.0,0.0,0.0,0.0,0.0,0.0,0.0,0.0,0.0,0.0,0.0,0.0,0.0,0.0,0.0,0.0,0.0,0.0,0.0,0.0,0.0,0.0,0.0,0.0,0.0,0.0,0.0,0.0,0.0,0.0,0.0,0.0,0.0,0.0,0.0,0.0,0.0,0.0,0.0,0.0,0.0,0.0,0.0,0.0,0.0,0.0,0.0,0.0,0.0,0.0,0.0,0.0,0.0,0.0,0.0,0.0,0.0,0.0,0.0,0.0,0.0,0.0,0.0,0.0,0.0,0.0,0.0,0.0,0.0,0.0,0.0,0.0,0.0,0.0,0.0,0.0,0.0,0.0,0.0,0.0,0.0,0.0,0.0,0.0,0.0,0.0,0.0,0.0,0.0,0.0,0.0,0.0,0.0,3.0611,3.3121,3.5917,0.0,4.0263,4.0263,4.0221,3.7221,3.4363,3.2147,0.0,0.0,0.0,0.0,0.0,0.0,0.0,0.0,0.0,0.0,0.0,0.0,0.0,0.0,0.0,0.0,0.0,0.0,0.0,0.0,0.0,0.0,0.0,0.0,0.0,0.0,0.0,0.0,0.0,0.0,0.0,0.0,0.0,0.0,0.0,0.0,0.0,0.0,0.0,0.0,0.0,0.0,0.0,0.0,0.0,0.0,0.0,0.0,0.0,0.0,0.0,0.0,0.0,0.0,0.0,0.0,0.0,0.0,0.0,0.0,0.0,0.0,0.0,0.0,0.0,0.0,0.0,0.0,0.0,0.0,0.0,0.0,0.0,0.0,0.0,0.0,0.0,0.0,0.0,0.0,0.0,0.0,0.0,0.0,0.0,0.0,0.0,0.0,0.0,0.0,0.0,0.0,0.0,0.0,0.0,0.0,0.0,0.0,0.0,0.0,0.0,0.0,3.0935,3.4023,3.7036,4.0161,4.0387,4.0355,4.0485,3.6945,3.3781,0.0,0.0,0.0,0.0,0.0,0.0,0.0,0.0,0.0,0.0,0.0,0.0,0.0,0.0,0.0,0.0,0.0,0.0,0.0,0.0,0.0,0.0,0.0,0.0,0.0,0.0,0.0,0.0,0.0,0.0,0.0,0.0,0.0,0.0,0.0,0.0,0.0,0.0,0.0,0.0,0.0,0.0,0.0,0.0,0.0,0.0,0.0,0.0,0.0,0.0,0.0,0.0,0.0,0.0,0.0,0.0,0.0,0.0,0.0,0.0,0.0,0.0,0.0,0.0,0.0,0.0,0.0,0.0,0.0,0.0,0.0,0.0,0.0,0.0,0.0,0.0,0.0,0.0,0.0,0.0,0.0,0.0,0.0,0.0,0.0,0.0,0.0,0.0,0.0,0.0,0.0,0.0,0.0,0.0,0.0,0.0,0.0,0.0,0.0,0.0,0.0,0.0,0.0,3.1773,3.5484,3.8477,4.0287,4.0534,4.0576,4.0493,3.7985,3.4951,3.1623,0.0,0.0,0.0,0.0,0.0,0.0,0.0,0.0,0.0,0.0,0.0,0.0,0.0,0.0,0.0,0.0,0.0,0.0,0.0,0.0,0.0,0.0,0.0,0.0,0.0,0.0,0.0,0.0,0.0,0.0,0.0,0.0,0.0,0.0,0.0,0.0,0.0,0.0,0.0,0.0,0.0,0.0,0.0,0.0,0.0,0.0,0.0,0.0,0.0,0.0,0.0,0.0,0.0,0.0,0.0,0.0,0.0,0.0,0.0,0.0,0.0,0.0,0.0,0.0,0.0,0.0,0.0,0.0,0.0,0.0,0.0,0.0,0.0,0.0,0.0,0.0,0.0,0.0,0.0,0.0,0.0,0.0,0.0,0.0,0.0,0.0,0.0,0.0,0.0,0.0,0.0,0.0,0.0,0.0,0.0,0.0,0.0,0.0,0.0,0.0,0.0,0.0,3.2216,3.5864,3.874,4.0474,4.0697,4.0697,4.0655,3.9082,3.6349,3.2217,0.0,0.0,0.0,0.0,0.0,0.0,0.0,0.0,0.0,0.0,0.0,0.0,0.0,0.0,0.0,0.0,0.0,0.0,0.0,0.0,0.0,0.0,0.0,0.0,0.0,0.0,0.0,0.0,0.0,0.0,0.0,0.0,0.0,0.0,0.0,0.0,0.0,0.0,0.0,0.0,0.0,0.0,0.0,0.0,0.0,0.0,0.0,0.0,0.0,0.0,0.0,0.0,0.0,0.0,0.0,0.0,0.0,0.0,0.0,0.0,0.0,0.0,0.0,0.0,0.0,0.0,0.0,0.0,0.0,0.0,0.0,0.0,0.0,0.0,0.0,0.0,0.0,0.0,0.0,0.0,0.0,0.0,0.0,0.0,0.0,0.0,0.0,0.0,0.0,0.0,0.0,0.0,0.0,0.0,0.0,0.0,0.0,0.0,0.0,0.0,0.0,0.0,3.2438,3.5645,3.8373,4.0664,4.0793,4.0769,4.0888,4.0111,3.7703,3.3287,0.0,0.0,0.0,0.0,0.0,0.0,0.0,0.0,0.0,0.0,0.0,0.0,0.0,0.0,0.0,0.0,0.0,0.0,0.0,0.0,0.0,0.0,0.0,0.0,0.0,0.0,0.0,0.0,0.0,0.0,0.0,0.0,0.0,0.0,0.0,0.0,0.0,0.0,0.0,0.0,0.0,0.0,0.0,0.0,0.0,0.0,0.0,0.0,0.0,0.0,0.0,0.0,0.0,0.0,0.0,0.0,0.0,0.0,0.0,0.0,2.5534,2.4071,0.0,0.0,0.0,0.0,0.0,0.0,0.0,0.0,0.0,0.0,0.0,0.0,0.0,0.0,0.0,0.0,0.0,0.0,0.0,0.0,0.0,0.0,0.0,0.0,0.0,0.0,0.0,0.0,0.0,0.0,0.0,0.0,0.0,0.0,0.0,0.0,0.0,0.0,0.0,0.0,3.3423,3.6969,3.9623,4.0791,4.0871,4.0864,4.0912,4.0164,3.8239,3.4819,3.191,0.0,0.0,0.0,0.0,0.0,0.0,0.0,0.0,0.0,0.0,0.0,0.0,0.0,0.0,0.0,0.0,0.0,0.0,0.0,0.0,0.0,0.0,0.0,0.0,0.0,0.0,0.0,0.0,0.0,0.0,0.0,0.0,0.0,0.0,0.0,0.0,0.0,0.0,0.0,0.0,0.0,0.0,0.0,0.0,0.0,0.0,0.0,0.0,0.0,0.0,0.0,0.0,0.0,0.0,0.0,0.0,0.0,0.0,0.0,2.9611,2.828,0.0,0.0,0.0,0.0,0.0,0.0,0.0,0.0,0.0,0.0,0.0,0.0,0.0,0.0,0.0,0.0,0.0,0.0,0.0,0.0,0.0,0.0,0.0,0.0,0.0,0.0,0.0,0.0,0.0,0.0,0.0,0.0,0.0,0.0,0.0,0.0,0.0,0.0,0.0,0.0,3.3699,3.737,4.0008,4.0825,4.0912,4.0912,4.0912,4.0532,3.9129,3.6414,3.4048,0.0,0.0,0.0,0.0,0.0,0.0,0.0,0.0,0.0,0.0,0.0,0.0,0.0,0.0,0.0,0.0,0.0,0.0,0.0,0.0,0.0,0.0,0.0,0.0,0.0,0.0,0.0,0.0,0.0,0.0,0.0,0.0,0.0,0.0,0.0,0.0,0.0,0.0,0.0,0.0,0.0,0.0,0.0,0.0,0.0,0.0,0.0,0.0,0.0,0.0,0.0,0.0,0.0,3.5254,3.5991,3.604,3.5991,3.6671,3.7678,3.4356,3.3704,3.4675,3.1402,0.0,0.0,0.0,0.0,0.0,0.0,0.0,0.0,0.0,0.0,0.0,0.0,0.0,0.0,0.0,0.0,0.0,0.0,0.0,0.0,0.0,0.0,3.4489,3.5827,3.6718,3.6375,3.3122,0.0,0.0,0.0,0.0,0.0,0.0,0.0,0.0,0.0,0.0,0.0,3.4093,3.7525,4.0008,4.0825,4.0912,4.0912,4.0912,4.0912,4.0049,3.8013,3.6396,3.3997,0.0,0.0,0.0,0.0,0.0,0.0,0.0,0.0,0.0,0.0,0.0,0.0,0.0,0.0,0.0,0.0,0.0,0.0,0.0,0.0,0.0,0.0,0.0,0.0,0.0,0.0,0.0,0.0,0.0,0.0,0.0,0.0,2.2261,2.2493,0.0,0.0,0.0,0.0,0.0,0.0,0.0,0.0,0.0,0.0,0.0,0.0,0.0,3.2972,3.5015,3.648,3.7503,3.8114,3.9517,4.0326,4.0547,4.0282,4.0743,4.1645,4.118,0.0,3.7278,3.5471,0.0,0.0,0.0,0.0,0.0,0.0,0.0,0.0,0.0,0.0,0.0,0.0,0.0,0.0,0.0,0.0,0.0,0.0,0.0,0.0,0.0,0.0,4.0789,4.1019,4.1674,4.1916,4.0726,3.6208,3.2128,3.1156,2.9867,2.844,0.0,0.0,0.0,0.0,0.0,0.0,3.5697,3.8163,4.0008,4.0825,4.0912,4.0912,4.0912,4.0912,4.048,3.9457,3.8008,3.6327,3.4438,3.2237,0.0,0.0,0.0,0.0,0.0,0.0,0.0,0.0,0.0,0.0,0.0,0.0,0.0,0.0,0.0,0.0,0.0,0.0,0.0,0.0,0.0,0.0,0.0,0.0,0.0,0.0,0.0,0.0,0.0,2.2306,2.4897,2.5067,2.6298,2.6469,0.0,0.0,0.0,0.0,0.0,0.0,0.0,0.0,0.0,3.5455,3.6269,3.7496,3.9199,4.0663,4.1585,4.1959,4.343,4.423,4.433,4.4626,4.4981,4.5388,4.5416,4.4659,4.3145,3.9747,3.7585,3.6276,0.0,0.0,0.0,0.0,3.4765,3.4816,3.702,3.7388,3.6858,3.6643,0.0,0.0,0.0,0.0,0.0,0.0,0.0,3.6212,3.8308,4.0065,4.1616,4.2975,4.3258,4.3224,4.3276,4.083,3.789,3.5432,3.4743,3.3416,2.9834,2.9903,0.0,0.0,0.0,3.5335,3.6784,3.9168,4.0854,4.1202,4.1468,4.1512,4.126,4.1237,4.0984,4.0411,3.9336,3.8232,3.712,3.55,3.3228,0.0,0.0,0.0,0.0,0.0,0.0,0.0,0.0,0.0,0.0,0.0,0.0,0.0,0.0,0.0,0.0,0.0,0.0,0.0,0.0,0.0,0.0,0.0,0.0,0.0,0.0,0.0,0.0,2.4938,2.7356,2.7417,2.9391,2.9964,0.0,0.0,0.0,0.0,0.0,0.0,3.4275,3.6088,3.7806,3.9338,4.0578,4.181,4.3013,4.4336,4.5163,4.5458,4.6613,4.7286,4.7493,4.8045,4.8303,4.8303,4.8303,4.8155,4.7651,4.3644,4.1377,4.0282,3.8816,3.7802,3.739,3.9022,3.937,3.9386,4.1852,4.2347,4.1759,4.1256,3.995,3.8252,3.6492,0.0,0.0,0.0,0.0,3.8315,4.106,4.1684,4.215,4.4273,4.4358,4.4148,4.4811,4.4523,4.3064,3.937,3.9077,3.8069,3.3663,3.3804,0.0,3.2799,0.0,3.7784,3.8456,4.0727,4.2273,4.2273,4.242,4.2376,4.2035,4.1815,4.1512,4.1088,4.0607,3.9946,3.9106,3.8238,3.6606,3.4036,0.0,0.0,0.0,0.0,0.0,0.0,0.0,0.0,0.0,0.0,0.0,0.0,0.0,0.0,0.0,0.0,0.0,0.0,0.0,0.0,0.0,0.0,0.0,0.0,0.0,0.0,0.0,0.0,0.0,2.9529,3.3018,0.0,0.0,0.0,0.0,3.2541,3.4874,3.703,3.8597,3.9819,4.1552,4.388,4.4716,4.5526,4.6345,4.7121,4.7862,4.8568,4.8637,4.9085,4.9838,4.9873,4.989,4.989,4.989,4.9459,4.862,4.6818,4.5613,4.4858,4.4629,4.408,4.3569,4.4489,4.4807,4.4824,4.512,4.4742,4.4242,4.4897,4.357,4.175,4.163,4.0543,0.0,0.0,4.1129,4.2078,4.3707,4.4121,4.4456,4.5775,4.6074,4.6178,4.6653,4.6751,4.5733,4.2417,4.1785,4.1209,3.9203,0.0,3.869,3.7853,3.9503,4.0989,4.1341,4.3172,4.4432,4.4432,4.3793,4.3346,4.3325,4.2605,4.1969,4.1512,4.1849,4.154,4.0354,4.0231,3.9279,3.729,3.4498,0.0,0.0,0.0,0.0,0.0,0.0,0.0,0.0,0.0,0.0,0.0,0.0,0.0,0.0,0.0,0.0,0.0,0.0,0.0,0.0,0.0,0.0,0.0,0.0,0.0,0.0,0.0,0.0,3.4355,3.7058,0.0,3.5905,3.6921,3.7757,3.7829,3.9706,4.1523,4.3031,4.3984,4.5319,4.7148,4.7431,4.7965,4.8786,4.9062,4.9062,4.881,4.9309,4.943,4.9269,4.9769,5.0011,5.0011,5.0011,4.9855,4.9545,4.8936,4.7944,4.6807,4.6753,4.6598,4.6374,4.6704,4.6807,4.6807,4.6862,4.6717,4.6458,4.6224,4.563,4.4768,4.3793,4.3103,4.2723,4.3017,4.3276,4.3724,4.4751,4.5251,4.5631,4.6091,4.6435,4.6701,4.6863,4.6908,4.6545,4.537,4.4758,4.3713,4.1606,4.2032,4.2281,4.0989,4.2269,4.3397,4.3529,4.4408,4.5055,4.5055,4.5042,4.47,4.3918,4.359,4.3014,4.2026,4.1614,4.1225,4.0795,4.054,3.9706,3.8236,3.6539,3.376,0.0,0.0,0.0,0.0,0.0,0.0,0.0,0.0,0.0,0.0,0.0,0.0,0.0,0.0,0.0,0.0,0.0,0.0,0.0,0.0,0.0,0.0,0.0,0.0,0.0,3.3423,3.609,3.7461,3.9829,4.0778,3.9317,4.0408,4.1481,4.2238,4.357,4.4872,4.6104,4.6672,4.7414,4.8396,4.8654,4.9051,4.9597,4.9873,4.9873,4.9585,5.039,5.0614,5.039,5.1166,5.1528,5.1528,5.1528,5.139,5.1149,5.1149,5.039,4.9154,4.8683,4.8493,4.8493,4.8493,4.8493,4.843,4.8155,4.8051,4.7948,4.7217,4.7094,4.7046,4.6031,4.5854,4.6013,4.6045,4.6045,4.615,4.6665,4.7061,4.7394,4.7512,4.7791,4.7985,4.7843,4.7811,4.772,4.7428,4.6685,4.5583,4.395,4.4545,4.4776,4.3488,4.4525,4.5392,4.5267,4.587,4.6309,4.6309,4.6303,4.5865,4.4798,4.447,4.3772,4.2512,4.2073,4.1767,4.1649,4.1105,4.0492,3.986,3.8008,3.5598,3.2715,0.0,0.0,0.0,0.0,0.0,0.0,0.0,0.0,0.0,0.0,0.0,0.0,0.0,0.0,0.0,0.0,0.0,0.0,0.0,0.0,0.0,0.0,0.0,3.3932,3.652,3.8482,3.8643,4.127,4.2557,4.1198,4.3086,4.4665,4.5414,4.6173,4.6975,4.7672,4.7724,4.7769,4.782,4.851,4.8907,4.8959,4.9735,5.0476,5.1183,5.1908,5.2662,5.3422,5.4129,5.4488,5.4488,5.4457,5.406,5.3387,5.3387,5.2938,5.2063,5.0631,5.008,5.008,5.0074,5.004,4.9919,4.9114,4.8855,4.8734,4.8038,4.817,4.859,4.8572,4.8916,4.9377,4.9464,4.9511,4.9516,4.9581,4.9604,4.9735,5.0119,5.0223,5.0125,4.9735,4.9647,4.939,4.8508,4.7603,4.6874,4.6533,4.645,4.6216,4.5494,4.639,0.0,4.6608,4.7579,4.8306,4.8306,4.759,4.6801,4.6012,4.5204,4.4236,4.3029,4.3268,4.3285,4.2884,4.2049,4.1814,4.2251,3.8889,3.6737,3.5936,0.0,0.0,0.0,0.0,0.0,0.0,0.0,0.0,0.0,0.0,0.0,0.0,0.0,0.0,0.0,0.0,0.0,0.0,0.0,0.0,0.0,3.5063,3.7173,3.7195,3.9341,4.1363,4.257,4.3906,4.4819,4.501,4.5596,4.6286,4.7,4.7258,4.7707,4.8448,4.8499,4.9208,5.0704,5.0541,5.1199,5.2712,5.255,5.258,5.277,5.3373,5.3504,5.3189,5.3848,5.4131,5.4103,5.3671,5.3381,5.3172,5.3172,5.3049,5.2764,5.1931,5.1614,5.1575,5.1435,5.1046,5.0557,5.033,5.026,5.0262,5.0462,5.0647,5.0706,5.0178,5.0193,5.0281,4.9734,4.9577,4.9577,4.9604,4.9886,5.0201,5.0305,5.0611,5.0794,5.0572,5.0536,5.0277,4.9408,4.9027,4.8632,4.7892,4.7784,4.771,4.751,4.7752,4.7937,4.7823,4.8102,4.8306,4.8306,4.8104,4.7626,4.6837,4.603,4.5168,4.4254,4.3207,4.2565,4.2462,4.1659,4.1307,4.1425,3.9094,3.7542,0.0,0.0,0.0,0.0,0.0,0.0,0.0,0.0,0.0,0.0,0.0,0.0,0.0,0.0,0.0,0.0,0.0,0.0,0.0,0.0,0.0,0.0,3.8614,4.0582,4.114,4.2185,4.3373,4.4613,4.5675,4.6455,4.6934,4.749,4.8135,4.8863,4.8864,4.9179,4.9949,4.9984,5.0662,5.2227,5.1981,5.2551,5.4101,5.3827,5.3655,5.3655,5.4289,5.4351,5.3971,5.4661,5.4955,5.4955,5.4605,5.4439,5.4439,5.4439,5.4439,5.4358,0.0,0.0,0.0,0.0,5.2511,5.2139,5.2139,5.1927,5.167,5.2022,5.2095,5.1975,5.1594,5.1697,5.1847,5.142,5.1314,5.1335,5.1341,5.1584,5.1822,5.1799,5.1979,5.2062,5.1594,5.1501,5.1241,5.0391,4.9967,0.0,4.9065,4.8602,4.8306,4.8306,4.8306,4.8306,4.8306,4.8306,4.8306,4.8306,4.8306,4.7957,4.7168,4.6361,0.0,0.0,0.0,4.2653,4.2304,4.1864,0.0,0.0,0.0,0.0,0.0,4.094,0.0,0.0,3.9143,3.9016,0.0,0.0,0.0,0.0,0.0,0.0,0.0,0.0,0.0,0.0,0.0,0.0,0.0,0.0,0.0,0.0,4.1781,4.3677,4.501,4.4903,4.4974,4.565,4.6828,4.7663,4.784,4.8948,4.9959,5.0683,5.0634,5.0919,5.174,5.1776,0.0,0.0,0.0,5.3363,5.4235,5.4176,5.4186,5.4275,5.4981,5.5347,5.5391,5.6178,5.6546,5.6546,5.6447,5.6438,5.6438,5.6438,5.6492,5.6376,5.4855,5.4247,5.4228,5.4176,5.413,5.4118,5.4118,0.0,0.0,5.3192,5.3031,5.2779,5.2908,5.3233,5.3559,5.3675,5.3695,5.3715,5.3774,5.3813,5.3793,5.3734,5.3695,5.3472,5.2634,5.2466,5.2226,5.1376,5.0656,5.0139,5.0046,4.9102,4.8344,4.8344,4.8325,4.8325,4.8325,4.8306,4.8306,4.8306,4.8325,0.0,4.7315,4.6526,4.5755,4.5021,4.4213,4.3442,4.2745,4.2708,4.3075,4.3883,4.3901,4.4654,4.6177,4.7003,4.7369,4.7278,4.336,4.2885,0.0,0.0,0.0,0.0,0.0,0.0,0.0,0.0,0.0,0.0,0.0,0.0,0.0,0.0,0.0,4.1557,4.3469,4.5098,4.6206,4.6844,4.7352,4.7707,4.8023,4.8752,5.0043,5.0407,5.0867,5.1593,5.1622,5.1964,5.2779,5.279,5.3387,5.4607,5.4186,5.4482,5.5674,5.5171,5.524,5.5955,5.6551,0.0,5.7079,5.7706,5.8001,5.7978,5.748,5.7272,5.7272,5.7272,5.7552,5.7854,5.6415,5.579,5.5643,5.5223,5.4968,5.4885,5.4885,5.4794,5.4737,5.5181,5.492,5.4439,5.4478,5.4137,0.0,5.3774,5.3774,5.3774,5.3793,5.3813,5.3793,5.3774,5.3774,5.3718,5.3472,5.3434,5.3155,5.2245,5.193,5.1635,5.097,4.9566,4.8532,4.8532,4.8495,4.8457,4.8457,4.8363,4.8343,4.8457,4.8457,4.8402,4.8236,4.75,4.6912,4.6636,4.5883,4.5369,4.5204,4.5204,4.559,4.6379,4.6397,4.6893,4.7847,4.8691,4.9077,4.9003,4.7515,4.7479,0.0,0.0,0.0,0.0,0.0,0.0,0.0,0.0,0.0,0.0,0.0,3.7415,3.8933,0.0,4.2904,4.433,4.5804,4.702,4.7777,4.8648,4.8987,4.8434,4.9354,5.037,5.1165,5.1876,5.2404,5.2766,5.3105,5.3484,5.3867,5.4291,5.5025,5.6128,5.5857,5.6194,5.7226,5.6926,5.6988,5.7395,5.7713,5.789,5.796,5.8264,5.8393,5.8371,5.8092,5.796,5.796,5.796,5.8115,5.8349,5.7637,5.7315,5.7221,5.695,5.6812,5.6757,5.6757,5.6477,5.6191,5.6491,5.6099,5.5512,5.5571,5.5035,5.4407,5.4407,5.411,5.3813,5.3813,5.3813,5.3813,5.3813,5.3813,5.3793,5.3754,5.3754,5.3605,5.3139,5.2732,5.2324,5.1917,5.0824,4.9972,4.988,4.9473,4.9214,4.9214,4.8753,4.8476,4.855,4.855,4.855,4.855,4.7794,4.7149,4.669,4.6653,4.6635,4.6635,4.7076,4.7684,4.8495,4.8494,4.89,4.971,5.0539,5.1147,5.1515,5.1515,5.1474,0.0,0.0,0.0,0.0,0.0,0.0,0.0,0.0,3.478,3.7935,4.0026,4.1776,4.3507,4.4704,4.5798,4.6918,4.7922,4.8764,4.9366,5.024,5.036,4.9125,5.0686,5.1924,5.2091,5.3093,5.3715,5.3715,5.4378,5.4816,5.5003,5.578,5.6591,5.746,5.7476,5.7771,5.8418,5.8415,5.8415,5.8437,5.8437,5.8437,5.8459,5.8459,5.8459,5.8459,5.8459,5.8459,5.8459,5.8459,5.8459,5.8459,5.8459,5.8459,5.8459,5.8437,5.8437,5.8459,5.8459,5.8033,5.75,5.7548,5.7033,5.6386,5.6505,5.593,5.5261,5.5261,5.4797,5.4258,5.4091,5.4035,5.3998,5.385,5.3813,5.3813,5.3813,5.3813,5.3813,5.3813,5.3292,5.2828,5.2828,5.2308,5.1695,5.1212,5.0564,5.0157,5.0157,4.9529,4.9086,4.9104,4.9104,4.9104,4.9104,4.8494,4.7848,4.7201,4.7774,4.8125,4.8125,4.879,4.9529,5.0342,5.036,5.0841,5.1801,5.2466,5.3167,5.3979,5.4626,5.4506,2.6491,2.859,3.1007,3.2687,3.3673,3.5658,0.0,0.0,4.0427,4.3337,4.4689,4.5399,4.5648,4.6555,4.7588,4.8435,4.888,4.9478,5.0553,5.1403,5.1704,5.112,5.1918,5.279,5.3513,5.3719,5.3793,5.3793,5.4517,5.5296,5.6076,5.6874,5.7691,5.8508,5.8421,5.8397,5.8489,5.8418,5.8418,5.8489,5.8489,5.8551,5.8675,5.8675,5.8675,5.8675,5.8675,5.8675,5.8675,5.8675,5.8675,5.8675,5.8675,5.8675,5.8635,5.8511,5.8572,5.8675,5.8675,5.8619,5.8526,5.8547,5.8009,5.734,5.736,5.6803,5.6153,5.6153,5.6097,5.5837,5.5076,5.4871,5.4704,5.398,5.3813,5.3813,5.3813,5.3813,5.3813,5.3813,5.3738,5.3683,5.3683,5.359,5.3032,5.1584,5.1195,5.1046,5.1046,5.0916,5.0842,5.0898,5.0917,5.0917,5.0917,5.0768,5.0637,5.0545,5.0637,5.0674,5.0674,5.0786,5.121,5.2022,5.2022,5.2779,5.4314,5.4406,5.4868,5.5644,5.5718,5.5715,3.207,3.3782,3.5138,0.0,3.8927,4.0704,4.3312,4.4025,4.475,4.7007,4.7924,4.83,4.8161,4.8267,4.8565,0.0,4.9981,5.0802,5.1768,5.2176,5.2325,5.2122,5.2401,5.2735,5.307,5.3107,5.3497,5.4444,5.528,5.6116,5.6952,5.7769,5.8364,5.8698,5.8635,5.8614,5.8614,5.859,5.859,5.8614,5.8614,5.8635,5.8716,5.8716,5.8716,5.8716,5.8716,5.8716,5.8716,5.8716,5.8716,5.8716,5.8716,5.8716,5.8677,5.8635,5.8656,5.8716,5.8716,5.8716,5.8716,5.8716,5.8475,5.8215,5.8215,5.7639,5.7008,5.7008,5.6655,5.6227,5.5856,5.5763,5.567,5.5336,5.4871,5.45,5.45,5.4128,5.3813,5.3813,5.3813,5.3813,5.3813,5.3813,5.3571,5.2902,5.2345,5.2011,5.2011,5.1584,5.1287,5.1324,5.1324,5.1324,5.1324,5.1287,5.1269,5.1269,5.1714,5.1973,5.1973,5.2418,5.3048,5.3863,5.3863,5.4437,5.5643,5.5643,5.6031,5.6848,5.6848,5.7089,3.5399,3.7197,3.8723,4.1034,4.3038,4.4689,4.5628,4.6834,4.8092,4.9318,4.9806,4.9917,4.9547,4.9157,4.9173,5.0046,5.0843,5.1769,5.2791,5.2735,5.2512,5.2308,5.2067,5.2011,5.2252,5.2679,5.3515,5.4909,5.5819,5.6655,5.7472,5.8271,5.8716,5.8716,5.8716,5.8716,5.8716,5.8716,5.8716,5.8716,5.8716,5.8716,5.8716,5.8716,5.8716,5.8716,5.8716,5.8716,5.8716,5.8716,5.8716,5.8716,5.8716,5.8716,5.8716,5.8716,5.8716,5.8716,5.8716,5.8716,5.8716,5.8716,5.8716,5.8716,5.8716,5.8289,5.7843,5.7843,5.7416,5.6915,5.6692,5.6636,5.658,5.6357,5.5819,5.5373,5.5373,5.4723,5.4128,5.4128,5.3961,5.3813,5.3813,5.3813,5.3813,5.3813,5.3311,5.294,5.294,5.2419,5.2067,5.2067,5.2067,5.2067,5.2067,5.2067,5.2067,5.2067,5.2605,5.294,5.294,5.3701,5.4407,5.5001,5.5243,5.5782,5.6636,5.6636,5.7045,5.7843,5.7843,5.8202,3.4542,3.7404,4.1301,4.3457,4.517,4.7009,4.9604,5.0302,5.0323,5.0028,5.0045,4.9857,4.9077,4.8927,4.9447,5.1082,5.1379,5.1955,5.3553,5.3088,5.2308,5.1528,5.0692,5.0506,5.1361,5.2847,5.411,5.4946,5.5819,5.6655,5.7472,5.8271,5.8716,5.8716,5.8716,5.8716,5.8716,5.8716,5.8716,5.8716,5.8716,5.8716,5.8716,5.8716,5.8716,5.8716,5.8716,5.8716,5.8716,5.8716,5.8716,5.8716,5.8716,5.8716,5.8716,5.8716,5.8716,5.8716,5.8716,5.8716,5.8716,5.8716,5.8716,5.8716,5.8716,5.8679,5.8661,5.8661,5.8661,5.8456,5.7676,5.7472,5.7268,5.6487,5.6283,5.6265,5.6265,5.5577,5.4964,5.4964,5.4333,5.3813,5.3813,5.3813,5.3813,5.3813,5.3775,5.3775,5.3775,5.3738,5.3738,5.3738,5.3738,5.3738,5.3738,5.3738,5.3738,5.3738,5.3757,5.3775,5.3775,5.4556,5.4983,5.5001,5.5837,5.6655,5.7472,5.7472,5.7881,5.8661,5.8661,5.8848,3.8885,4.1356,4.3378,4.517,4.7293,4.9332,5.0897,5.1101,5.1118,5.1621,5.0024,4.8593,4.8853,4.8036,4.8017,5.019,5.1026,5.1955,5.3571,5.3107,5.2308,5.1491,5.1621,0.0,0.0,5.1881,5.3218,5.5689,5.6134,5.6878,5.8234,5.8549,5.8716,5.8716,5.8716,5.8716,5.8716,5.8716,5.8823,5.9026,5.9289,5.9416,5.9416,5.914,5.9026,5.9025,5.8803,5.8716,5.8719,5.8946,5.9026,5.9026,5.9026,5.9026,5.9006,5.8782,5.8716,5.8716,5.8716,5.8716,5.8716,5.8716,5.8716,5.8716,5.8716,5.8716,5.8716,5.8716,5.8716,5.8642,5.8382,5.8308,5.8234,5.7973,5.749,5.71,5.71,5.645,5.5874,5.5874,5.5652,5.5466,5.5466,5.5466,5.5466,5.5466,5.4518,5.3813,5.3813,5.3813,5.3813,5.3813,5.3813,5.3813,5.3813,5.3813,5.3813,5.3813,5.4314,5.4611,5.4611,5.541,5.6216,5.6968,5.7286,5.781,5.8633,5.8913,5.9026,5.9026,5.9307,5.9486,4.2347,4.4285,4.5663,4.7778,4.9517,5.0957,5.182,5.1858,5.1621,5.1342,4.9373,4.7683,4.7627,4.6513,4.6401,4.8853,4.9949,5.1175,5.3107,5.294,5.2419,5.1881,5.2289,5.2512,0.0,0.0,0.0,5.6116,5.658,5.7323,5.8642,5.8716,5.8716,5.8716,5.8716,5.876,5.8885,5.8885,5.9064,5.9415,5.9692,5.9791,5.9791,5.9537,5.9415,5.9397,5.9025,5.8966,5.9102,5.9159,5.927,5.9415,5.9415,5.9325,5.9178,5.8966,5.8803,5.8716,5.8716,5.8716,5.8716,5.8716,5.8716,5.8716,5.8716,5.8716,5.8716,5.8716,5.8716,5.8716,5.8716,5.8716,5.8716,5.8716,5.8308,5.7936,5.7936,5.7305,5.6729,5.6729,5.6506,5.6302,5.6302,5.6302,5.6302,5.6302,5.5391,5.4593,5.4277,5.424,5.4128,5.3831,5.3813,5.3924,5.4203,5.424,5.437,5.4667,5.5285,5.5641,5.5641,5.6557,5.7433,5.817,5.8471,5.8905,5.9415,5.9656,5.9675,5.9432,5.9692,5.9855,4.4713,4.6154,4.8107,5.0973,5.1726,5.1889,5.2455,5.2512,5.1714,4.928,4.8036,4.6903,0.0,0.0,4.4711,4.7125,4.837,4.9856,5.2271,5.2679,5.2717,0.0,0.0,0.0,0.0,0.0,0.0,5.6303,5.7063,5.7862,5.8681,5.8719,5.8739,5.876,5.876,5.8906,5.9234,5.9233,5.945,5.9842,5.9839,5.9839,5.9839,5.9823,5.9842,5.9807,5.9396,5.945,5.9774,5.9415,5.9485,5.9842,5.9842,5.9588,5.9252,5.9252,5.9025,5.876,5.876,5.8719,5.8716,5.8716,5.8716,5.8716,5.8716,5.8716,5.8716,5.8716,5.8716,5.8698,5.8719,5.8719,5.8739,5.876,5.876,5.8739,5.8739,5.8124,5.7565,5.7565,5.6952,5.6413,5.6413,5.6413,5.6413,5.6413,5.6413,5.6097,5.5187,5.5076,5.4779,5.4017,5.3943,5.424,5.5001,5.5076,5.5429,5.6286,5.6668,5.6866,5.6884,5.7978,5.8571,5.8587,5.9406,5.9842,5.9842,5.9839,5.9839,5.9842,5.9839,6.0011,4.6622,4.8761,5.0663,5.1496,5.1969,5.2283,5.253,5.1175,4.9317,4.7497,4.4989,4.2649,0.0,0.0,0.0,4.4748,4.8221,0.0,5.2438,5.3627,0.0,5.3571,0.0,5.5187,5.4741,5.6023,0.0,5.7529,5.7522,5.7967,5.9027,5.9064,5.9215,5.9504,5.9521,5.9556,5.9658,5.9899,6.0068,6.0179,6.0422,6.0546,6.0533,6.0279,6.0179,6.0146,5.9788,5.9708,5.9807,5.9946,6.0087,6.0179,6.0179,6.0116,5.9992,5.9739,5.959,5.9521,5.9521,5.9159,5.8716,5.8716,5.8716,5.8716,5.8716,5.8716,5.8716,5.8716,5.8716,5.876,5.9006,5.9103,5.9215,5.9463,5.9428,5.9324,5.9178,5.8857,5.8567,5.8421,5.8234,5.8103,5.8103,5.8103,5.8103,5.8103,5.8103,5.7583,5.6153,5.5967,5.5893,5.5689,5.567,5.5744,5.5949,5.5967,5.6179,5.6649,5.732,5.7818,5.8067,5.8981,5.9596,5.9836,6.0065,6.0179,6.016,6.0422,6.0422,6.0179,6.0436,6.0585,4.9351,5.1156,5.2557,5.2583,5.2561,5.2141,5.0767,4.9094,4.6977,4.3893,4.1497,0.0,3.7318,3.8692,4.0624,0.0,0.0,0.0,5.1806,5.3775,5.4834,0.0,5.5819,0.0,5.6153,5.7391,5.8314,5.8502,5.8352,5.8596,5.9431,5.9467,5.9554,5.9791,5.9791,5.9871,6.0011,6.0349,6.052,6.052,6.0722,6.08,6.08,6.0616,6.052,6.0507,6.016,6.0102,6.0251,6.0279,6.0395,6.052,6.052,6.0436,6.0279,6.0087,5.9918,5.9791,5.9791,5.9521,5.9178,5.9178,5.9178,5.9178,5.9178,5.9178,5.9178,5.9178,5.9178,5.9234,5.9412,5.9479,5.9561,5.9785,5.9789,5.9693,5.9595,5.9479,5.9359,5.9215,5.9045,5.8926,5.8926,5.8803,5.8716,5.8716,5.8716,5.8382,5.7472,5.7045,5.6692,5.6339,5.6302,5.645,5.6803,5.6963,5.7286,5.7826,5.8574,5.9083,5.9269,5.9912,6.0321,6.052,6.052,6.052,6.052,6.071,6.069,6.0533,6.0722,6.08,5.1972,5.3066,5.3716,5.3644,5.2958,5.1454,4.8277,4.6587,4.4339,3.9602,0.0,3.6519,3.416,3.5349,3.7517,4.0007,0.0,4.7646,5.0933,5.3478,5.5039,5.5169,5.6676,5.772,5.772,5.8671,5.9288,5.9342,5.9342,5.9484,5.9839,5.9855,5.9887,5.9934,5.9934,6.0072,6.0349,6.0654,6.08,6.08,6.08,6.08,6.08,6.08,6.08,6.0769,6.0488,6.0533,6.0788,6.0494,6.0546,6.08,6.08,6.0629,6.0382,6.0382,6.0175,5.9934,5.9934,5.9934,5.9918,5.9823,5.9791,5.9791,5.9791,5.9791,5.9791,5.9791,5.9791,5.9804,5.9874,5.9866,5.9912,6.0027,6.0041,6.0012,5.9998,5.9934,5.9893,5.982,5.9532,5.927,5.9196,5.8947,5.876,5.8716,5.8716,5.8716,5.8716,5.8103,5.7398,5.6692,5.6617,5.6896,5.7602,5.7978,5.8464,5.9232,5.9912,6.0307,6.0349,6.0641,6.08,6.08,6.08,6.08,6.08,6.08,6.08,6.08,6.08,6.08,5.2271,5.3143,5.3645,5.2977,5.1695,4.993,4.7311,4.3986,0.0,0.0,3.4915,3.3317,3.1552,3.4228,3.7517,4.0007,4.3819,4.7646,5.0933,5.3478,5.528,0.0,5.7752,5.8897,5.8897,5.9373,0.0,6.0102,6.0116,6.0146,6.0208,6.0223,6.0335,6.0629,6.0629,6.0654,6.0722,6.0757,6.08,6.08,6.08,6.08,6.08,6.08,6.08,6.08,6.0734,6.0746,6.08,6.0734,6.0746,6.08,6.08,6.0757,6.0722,6.0722,6.0666,6.0629,6.0629,6.0629,6.0533,5.9981,5.9791,5.9791,5.9791,5.9791,5.9791,5.9791,5.9791,5.9871,6.0199,6.03,6.038,6.0734,6.0723,6.0599,6.0431,6.0122,5.9893,5.982,5.9741,5.958,5.9252,5.9159,5.9025,5.8739,5.8716,5.8716,5.8716,5.8586,5.8438,5.8308,5.8289,5.8345,5.8494,5.88,5.9174,5.9656,6.0072,6.0422,6.069,6.0757,6.08,6.08,6.08,6.08,6.08,6.08,6.08,6.08,6.08,6.08,5.2364,5.32,5.3608,5.281,5.1361,4.9169,4.5435,0.0,0.0,0.0,3.1626,2.9954,2.8356,3.1385,0.0,3.7019,4.1078,4.5506,4.9934,5.2549,0.0,5.6605,5.8399,5.952,0.0,5.9836,6.0135,6.0279,6.0462,6.0559,6.0559,6.0559,6.0641,6.0781,6.08,6.08,6.08,6.08,6.08,6.08,6.08,6.08,6.08,6.08,6.08,6.08,6.08,6.08,6.08,6.08,6.08,6.08,6.08,6.08,6.08,6.08,6.08,6.08,6.08,6.08,6.0746,6.0422,6.0321,6.0321,6.0321,6.0321,6.0321,6.0321,6.0321,6.0376,6.0647,6.0712,6.0762,6.1002,6.1002,6.0932,6.0822,6.0639,6.0456,6.0438,6.0253,5.9981,5.9564,5.9341,5.9083,5.876,5.8716,5.8716,5.8716,5.8716,5.8716,5.8716,5.8716,5.8762,5.8946,5.9307,5.9673,6.0026,6.0362,6.0641,6.08,6.08,6.08,6.08,6.08,6.08,6.08,6.08,6.08,6.08,6.08,6.08,5.2489,5.3383,5.3775,5.2768,5.1275,4.8684,4.3547,3.9695,0.0,0.0,2.8746,2.7251,2.6199,2.8788,3.1974,0.0,3.8428,4.2955,4.871,5.1632,5.4129,0.0,5.8736,0.0,5.9903,6.0208,0.0,6.0409,6.0654,6.08,6.08,6.08,6.08,6.08,6.08,6.08,6.08,6.08,6.08,6.08,6.08,6.08,6.08,6.08,6.08,6.08,6.08,6.08,6.08,6.08,6.08,6.08,6.08,6.08,6.08,6.08,6.08,6.08,6.08,6.08,6.08,6.08,6.08,6.08,6.08,6.08,6.08,6.08,6.08,6.0823,6.0944,6.0987,6.1018,6.107,6.1099,6.1099,6.1099,6.107,6.1022,6.1002,6.0739,6.0397,5.9996,5.9583,5.9197,5.8865,5.876,5.8716,5.8716,5.8716,5.8719,5.8803,5.8803,5.8906,5.9178,5.9639,6.0023,6.0319,6.0664,6.0864,6.088,6.0899,6.0877,6.0842,6.0842,6.0839,6.08,6.08,6.08,6.08,6.08,6.08,5.2979,5.4038,5.4318,5.2729,5.1064,4.828,4.2334,0.0,0.0,2.9235,2.7037,2.6144,2.6846,2.7931,3.0546,0.0,0.0,4.1085,4.7678,5.1415,5.4118,5.5913,0.0,0.0,6.0251,6.0559,6.0746,6.0746,6.0769,6.08,6.08,6.08,6.08,6.08,6.08,6.08,6.08,6.08,6.08,6.08,6.08,6.08,6.08,6.08,6.08,6.08,6.08,6.08,6.08,6.08,6.08,6.08,6.08,6.08,6.08,6.08,6.08,6.08,6.08,6.08,6.08,6.08,6.08,6.08,6.08,6.08,6.08,6.08,6.08,6.0823,6.088,6.0955,6.1018,6.107,6.1099,6.1099,6.1099,6.1089,6.108,6.1012,6.098,6.0827,6.0397,6.0007,5.9605,5.9215,5.8887,5.8716,5.8716,5.8716,5.8823,5.9122,5.9159,5.9178,5.9215,5.9849,6.0319,6.0472,6.0796,6.1037,6.1162,6.117,6.1112,6.0974,6.0974,6.0913,6.08,6.08,6.08,6.08,6.08,6.08,5.095,5.2238,5.2958,5.1817,5.0263,4.7604,4.2212,0.0,3.3534,2.9177,2.6662,2.531,2.5601,2.6812,2.9066,0.0,0.0,0.0,4.3614,4.6385,4.9406,5.3797,5.6216,0.0,0.0,6.0722,6.08,6.08,6.08,6.08,6.08,6.08,6.08,6.08,6.08,6.08,6.08,6.08,6.08,6.08,6.08,6.08,6.08,6.08,6.08,6.08,6.08,6.08,6.08,6.08,6.08,6.08,6.08,6.08,6.08,6.08,6.08,6.0804,6.089,6.0913,6.0913,6.0913,6.0913,6.0911,6.0827,6.08,6.08,6.08,6.08,6.0823,6.088,6.0938,6.1021,6.1022,6.108,6.1099,6.1099,6.1099,6.1089,6.107,6.104,6.0872,6.0463,6.0222,5.9981,5.9622,5.9252,5.9006,5.9006,5.9006,5.9045,5.9197,5.9215,5.9378,5.9817,6.0207,6.0522,6.0776,6.0988,6.114,6.1206,6.1206,6.1177,6.1116,6.1108,6.1095,6.1046,6.1046,6.1046,6.1046,6.1046,6.1046,4.9232,5.0869,5.1916,5.1123,4.9638,4.6987,0.0,3.7443,3.3389,2.9015,2.6394,2.4888,2.4825,2.6036,2.8006,3.0993,0.0,3.5596,4.1053,4.3558,4.6656,5.149,0.0,5.6492,5.9377,6.0358,6.08,6.08,6.08,6.08,6.08,6.08,6.08,6.08,6.08,6.08,6.08,6.08,6.08,6.08,6.08,6.08,6.08,6.08,6.08,6.08,6.08,6.08,6.08,6.08,6.08,6.08,6.08,6.08,6.0793,6.0842,6.0856,6.0888,6.1001,6.1064,6.1064,6.1064,6.1028,6.0974,6.0899,6.0819,6.08,6.08,6.08,6.0823,6.088,6.0948,6.1001,6.1002,6.1041,6.1099,6.1099,6.1099,6.1099,6.1099,6.1041,6.0908,6.0618,6.045,6.0251,5.9981,5.9622,5.9379,5.9379,5.9379,5.9432,5.9499,5.9534,5.9779,6.0321,6.0538,6.079,6.1132,6.1246,6.1314,6.1362,6.1342,6.134,6.1292,6.1292,6.1272,6.1226,6.1213,6.1213,6.1226,6.1226,6.1233,4.8481,5.0635,5.1712,5.0894,4.9385,4.6502,4.041,3.6414,3.276,2.8328,2.6058,2.4948,2.5066,2.581,2.7579,3.1116,3.3103,0.0,4.1077,4.4731,4.75,0.0,5.2433,5.5184,5.6887,5.9319,6.08,6.08,6.08,6.08,6.08,6.08,6.08,6.08,6.08,6.08,6.08,6.08,6.08,6.08,6.08,6.08,6.08,6.08,6.08,6.08,6.08,6.08,6.08,6.08,6.08,6.08,6.08,6.08,6.0816,6.0963,6.0993,6.102,6.1147,6.1206,6.1206,6.1206,6.1112,6.1002,6.0993,6.0911,6.08,6.08,6.08,6.0823,6.088,6.0955,6.1008,6.0992,6.1041,6.1099,6.1099,6.1099,6.1099,6.1099,6.1061,6.1001,6.0997,6.0659,6.0376,6.0307,6.0011,5.9791,5.9791,5.9791,5.9918,6.0251,6.0349,6.0412,6.0484,6.0809,6.1138,6.1463,6.1497,6.1559,6.1696,6.1696,6.1629,6.149,6.151,6.1431,6.1298,6.1226,6.1226,6.1298,6.1298,6.1298,4.1434,4.3701,4.5413,4.3421,4.292,4.1635,3.6822,3.4433,3.2019,2.7618,2.5892,2.5154,2.5115,2.5401,2.7155,3.1769,3.2968,3.5084,0.0,0.0,0.0,4.9885,5.5318,5.9011,5.955,6.0319,6.08,6.08,6.08,6.08,6.08,6.08,6.08,6.08,6.08,6.08,6.08,6.08,6.08,6.08,6.0846,6.0858,6.0858,6.0858,6.0858,6.0858,6.0823,6.08,6.08,6.08,6.08,6.08,6.08,6.0864,6.0943,6.0974,6.1064,6.1155,6.1342,6.1401,6.1401,6.1401,6.1373,6.1305,6.1083,6.0911,6.08,6.08,6.08,6.0812,6.0823,6.088,6.0935,6.0989,6.1031,6.1041,6.1089,6.1099,6.1099,6.1099,6.1061,6.1002,6.1001,6.0886,6.0804,6.0793,6.0457,6.0212,6.0212,6.0212,6.0253,6.0366,6.0633,6.0817,6.0838,6.1066,6.1289,6.149,6.1598,6.1658,6.1705,6.1705,6.168,6.1644,6.1644,6.1618,6.1565,6.154,6.154,6.1565,6.1565,6.1568,3.6721,3.8834,4.0296,3.8719,3.8469,3.7661,3.4083,3.2333,3.0527,2.7161,2.5857,2.5269,2.5187,2.5786,2.7428,3.0891,3.2275,3.4468,0.0,0.0,0.0,5.101,5.6203,5.9492,5.9819,6.0435,6.08,6.08,6.08,6.08,6.08,6.08,6.08,6.08,6.08,6.0812,6.0835,6.0835,6.0846,6.0888,6.0922,6.0944,6.0944,6.0944,6.0933,6.0911,6.0858,6.0823,0.0,6.08,6.08,6.0812,6.0864,6.0923,6.102,6.1139,6.1252,6.1342,6.1513,6.158,6.158,6.158,6.1495,6.1324,6.1031,6.0867,6.08,6.08,6.08,6.08,6.08,6.0846,6.0922,6.0976,6.1,6.1022,6.1089,6.1099,6.1099,6.1099,6.107,6.1022,6.1012,6.0991,6.0999,6.0997,6.08,6.0618,6.0618,6.0643,6.0646,6.063,6.0925,6.1115,6.1104,6.1227,6.1373,6.1564,6.1649,6.1695,6.1693,6.1693,6.1692,6.1709,6.1709,6.1691,6.1693,6.1693,6.1693,6.1693,6.1693,6.1694,0.0,3.55,3.6212,3.6019,3.55,3.4385,3.191,3.0121,0.0,2.6851,2.5865,2.5365,2.5615,2.6832,2.8222,2.9511,3.166,3.441,3.795,4.1604,0.0,5.2799,5.5761,5.7599,5.8396,5.9896,6.08,6.08,6.08,6.08,6.08,6.08,6.08,6.0812,6.0812,6.0835,6.0911,6.0891,6.0944,6.0987,6.0997,6.0997,6.0997,6.0997,6.0965,6.0911,6.0891,6.0869,6.0816,6.0816,6.0816,6.0842,6.0964,6.103,6.1064,6.1392,6.1514,6.1532,6.1657,6.1693,6.1674,6.1668,6.1447,6.114,6.089,6.0812,6.08,6.08,6.08,6.08,6.08,6.0846,6.0922,6.0976,6.1,6.1012,6.1089,6.1099,6.1099,6.1099,6.1099,6.108,6.1022,6.1012,6.1011,6.102,6.1029,6.1009,6.103,6.1085,6.1109,6.1031,6.1211,6.1305,6.131,6.131,6.1435,6.1679,6.1699,6.1699,6.1697,6.1697,6.1695,6.1691,6.1691,6.1694,6.1697,6.1697,6.1697,6.1697,6.1697,6.1698,2.7575,0.0,3.1404,2.9462,2.9794,3.0102,0.0,2.8005,2.7678,2.5962,0.0,2.6096,2.8712,2.7942,2.8871,3.493,3.5853,3.745,4.2162,4.8009,5.3126,5.6684,5.8761,5.9992,6.0185,6.0569,6.08,6.08,6.08,6.08,6.08,6.08,6.0823,6.0869,6.0888,6.088,6.0911,6.0955,6.0976,6.0987,6.1,6.1001,6.1001,6.1001,6.099,6.0965,6.0933,6.0918,6.0944,6.0944,6.1001,6.112,6.114,6.1246,6.1398,6.1471,6.1553,6.1634,6.1576,6.1541,6.1513,6.1376,6.1184,6.1028,6.0974,6.0888,6.08,6.08,6.08,6.08,6.08,6.0812,6.0846,6.0965,6.0997,6.102,6.1099,6.1099,6.1099,6.1099,6.1099,6.1089,6.108,6.108,6.1107,6.1205,6.1221,6.1247,6.1298,6.1314,6.1326,6.1316,6.1348,6.1415,6.1517,6.152,6.1571,6.1699,6.1699,6.1699,6.1699,6.1699,6.1699,6.1698,6.1698,6.1699,6.1699,6.1699,6.1699,6.1699,6.1699,6.1699,2.5312,2.7231,2.8929,2.7544,2.7871,2.8319,2.739,0.0,0.0,0.0,0.0,0.0,0.0,2.8808,3.041,3.493,3.6941,3.9862,4.5364,5.0971,5.5453,5.8011,5.9781,6.08,6.08,6.08,6.08,6.08,6.08,6.08,6.08,6.08,6.0835,6.0911,6.0933,6.0946,6.0948,6.098,6.103,6.105,6.1041,6.1061,6.1041,6.1115,6.1115,6.1089,6.1095,6.1081,6.1095,6.1095,6.1132,6.1213,6.1298,6.1401,6.149,6.149,6.1541,6.1588,6.1417,6.1359,6.1336,6.1147,6.1064,6.0983,6.0923,6.0901,6.0888,6.0816,6.08,6.08,6.08,6.08,6.0835,6.0965,6.0987,6.1018,6.109,6.1099,6.1099,6.1099,6.1099,6.1126,6.1175,6.1192,6.1229,6.1324,6.1342,6.1365,6.1403,6.1452,6.1479,6.1417,6.1485,6.154,6.1605,6.1623,6.1655,6.1699,6.1699,6.1699,6.1699,6.1699,6.1699,6.1699,6.1699,6.1699,6.1699,6.1699,6.1699,6.1699,6.1699,6.1699,2.5394,2.7159,2.8549,2.803,2.8082,2.8255,2.8107,0.0,0.0,0.0,0.0,0.0,0.0,3.0238,0.0,0.0,3.8038,4.2737,4.8295,5.2327,5.5611,5.8011,5.9665,6.0646,6.0781,6.08,6.08,6.08,6.08,6.08,6.08,6.0812,6.0846,6.0903,6.0976,6.1,6.1012,6.1012,6.1041,6.1099,6.1126,6.1125,6.1134,6.1247,6.1283,6.1217,6.1279,6.1285,6.1246,6.1246,6.1253,6.1285,6.1461,6.1532,6.1528,6.1514,6.149,6.1476,6.1253,6.1155,6.1116,6.1011,6.0974,6.0963,6.0831,6.089,6.0983,6.0856,6.0842,6.0864,6.085,6.0839,6.0872,6.0999,6.102,6.1041,6.1143,6.115,6.115,6.115,6.115,6.1173,6.1297,6.1318,6.1349,6.1422,6.1435,6.1439,6.1432,6.1549,6.1579,6.1463,6.1603,6.1678,6.1618,6.1676,6.1699,6.1699,6.1699,6.1699,6.1699,6.1699,6.1699,6.1699,6.1699,6.1699,6.1699,6.1699,6.1699,6.1699,6.1699,6.1699,2.6865,2.9775,3.1448,2.8607,2.8967,2.9827,2.9088,0.0,0.0,0.0,0.0,0.0,0.0,3.4095,3.5703,0.0,4.4773,4.839,5.2098,5.4381,5.6348,5.8091,5.9127,5.9992,6.0723,6.08,6.08,6.08,6.08,6.08,6.08,6.0846,6.0922,6.0976,6.1,6.1031,6.1089,6.1089,6.1089,6.1099,6.1225,6.1274,6.1274,6.1353,6.1353,6.1281,6.1289,6.1362,6.1456,6.1456,6.1517,6.1634,6.1663,6.1668,6.166,6.1541,6.149,6.1461,6.1139,6.0954,6.0856,6.0831,6.0839,6.0827,6.0812,6.089,6.0993,6.0983,6.1055,6.11,6.1002,6.0974,6.1002,6.1074,6.1081,6.1128,6.1309,6.1342,6.1342,6.1342,6.1342,6.1367,6.1388,6.1388,6.1426,6.1543,6.1573,6.1588,6.1655,6.1678,6.1678,6.1657,6.1679,6.1699,6.1698,6.1699,6.1699,6.1699,6.1699,6.1699,6.1699,6.1699,6.1699,6.1699,6.1699,6.1699,6.1699,6.1699,6.1699,6.1699,6.1699,6.1699,2.539,2.7972,3.0256,3.0525,3.2564,3.4276,3.341,3.2583,0.0,0.0,0.0,0.0,0.0,0.0,3.9121,4.528,4.8312,5.0764,5.326,5.4924,5.6364,5.7564,5.8366,5.9011,5.9415,5.9838,6.0108,6.0108,6.0531,6.08,6.08,6.0858,6.0933,6.1006,6.0991,6.1032,6.1099,6.1167,6.1217,6.1217,6.1274,6.1331,6.1359,6.1467,6.1494,6.1456,6.1508,6.1543,6.1604,6.1618,6.1646,6.1698,6.1698,6.1698,6.1668,6.1427,6.1292,6.1194,6.0973,6.0853,6.08,6.08,6.0853,6.0911,6.0911,6.1074,6.1258,6.1258,6.1232,6.1192,6.1116,6.1112,6.1116,6.1199,6.1213,6.1234,6.1369,6.1393,6.1393,6.1393,6.1393,6.1431,6.1497,6.1504,6.1546,6.1648,6.1653,6.1675,6.1699,6.1699,6.1699,6.1699,6.1699,6.1699,6.1699,6.1699,6.1699,6.1699,6.1699,6.1699,6.1699,6.1699,6.1699,6.1699,6.1699,6.1699,6.1699,6.1699,6.1699,6.1699,6.1699,6.1699,2.4586,2.6549,2.8934,3.2102,0.0,3.6411,3.7142,3.6038,0.0,0.0,0.0,0.0,0.0,3.9663,4.2998,4.8373,5.0626,5.2305,5.4046,5.5213,5.6198,5.7051,5.7657,5.8088,5.828,5.8858,5.9223,5.9223,5.9838,6.0215,6.0208,6.0283,6.0357,6.041,6.0432,6.0461,6.0518,6.062,6.0895,6.131,6.1356,6.1392,6.1448,6.1579,6.1616,6.1627,6.1672,6.1694,6.1704,6.1699,6.1694,6.1703,6.1701,6.1671,6.1628,6.137,6.1159,6.0993,6.0869,6.0827,6.0812,6.085,6.0922,6.1011,6.1037,6.1258,6.149,6.149,6.1412,6.1316,6.1285,6.1279,6.1272,6.1337,6.1348,6.1374,6.1444,6.1474,6.1474,6.1474,6.1474,6.1491,6.1614,6.1619,6.1648,6.1699,6.1699,6.1699,6.1699,6.1699,6.1699,6.1699,6.1699,6.1699,6.1699,6.1699,6.1699,6.1699,6.1699,6.1699,6.1699,6.1699,6.1699,6.1699,6.1699,6.1699,6.1699,6.1699,6.1699,6.1699,6.1699,6.1699,2.676,2.8319,2.9646,3.2256,3.1929,3.2385,3.7853,3.5988,0.0,3.7161,0.0,0.0,0.0,4.3837,4.7553,5.0373,5.2296,5.398,5.552,5.5846,5.6173,5.693,5.7071,5.7407,5.8223,5.8357,5.8396,5.8396,5.8434,5.8476,5.8492,5.8545,5.8615,5.8684,5.875,5.8778,5.8778,5.8847,5.9703,6.129,6.1491,6.1576,6.1581,6.1655,6.1699,6.1699,6.1698,6.1697,6.1696,6.1704,6.1697,6.1696,6.1703,6.1625,6.1519,6.1486,6.1285,6.0993,6.0983,6.0911,6.0827,6.0953,6.0983,6.101,6.1147,6.1336,6.149,6.149,6.1584,6.1634,6.1504,6.1481,6.1471,6.1479,6.149,6.1517,6.1656,6.1679,6.1679,6.1679,6.1679,6.1679,6.1699,6.1699,6.1699,6.1699,6.1699,6.1699,6.1699,6.1699,6.1699,6.1699,6.1699,6.1699,6.1699,6.1699,6.1699,6.1699,6.1699,6.1699,6.1699,6.1699,6.1699,6.1699,6.1699,6.1699,6.1699,6.1699,6.1699,6.1699,6.1699,6.1699,2.5048,2.6914,2.9223,3.282,3.3641,0.0,0.0,4.0109,4.1328,4.3207,4.3832,0.0,0.0,4.5704,4.7861,4.9926,5.1674,5.3365,5.5033,5.5633,5.5996,5.6271,5.623,5.6319,5.6646,5.7165,5.7492,5.7492,5.7992,5.8303,5.8299,5.8352,5.8432,5.8501,5.8576,5.8613,5.8613,5.8752,5.9171,5.9813,5.9924,6.0036,6.0131,6.0644,6.0898,6.0918,6.1465,6.1698,6.1697,6.1709,6.1702,6.1697,6.1705,6.1666,6.1602,6.1532,6.1084,6.0488,6.0308,6.0191,6.0035,5.9592,5.9874,6.0305,5.9884,5.9882,6.0006,6.0006,6.0043,6.0329,6.1361,6.1625,6.1615,6.1625,6.1612,6.1641,6.1698,6.1699,6.1699,6.1699,6.1699,6.1699,6.1699,6.1699,6.1699,6.1699,6.1699,6.1699,6.1699,6.1699,6.1699,6.1699,6.1699,6.1699,6.1699,6.1699,6.1699,6.1699,6.1699,6.1699,6.1699,6.1699,6.1699,6.1699,6.1699,6.1699,6.1699,6.1699,6.1699,6.1699,6.1699,6.1699,2.4721,2.6356,2.8857,3.2801,0.0,0.0,3.9508,4.2389,4.4889,4.6603,4.6934,4.6814,4.6572,0.0,4.8147,5.0143,5.1654,5.3185,5.4909,5.5559,5.5845,5.5845,5.5758,5.5703,5.5703,5.6252,5.6599,5.6599,5.7167,5.7527,5.7531,5.7611,5.7661,5.7718,5.7754,5.7772,5.7772,5.7972,5.8081,5.8085,5.8197,5.8586,5.9219,5.9765,6.0019,6.0058,6.0644,6.0918,6.0917,6.0913,6.0906,6.0876,6.0885,6.0878,6.0876,6.0772,6.0348,5.9762,5.9574,5.9452,5.9296,5.8781,5.9082,5.9571,5.9107,5.9033,5.9102,5.9102,5.9102,5.9375,6.0566,6.1074,6.1295,6.1295,6.1494,6.1615,6.1347,6.1289,6.1289,6.1289,6.1289,6.1387,6.164,6.1699,6.1699,6.1698,6.1698,6.1699,6.1699,6.1699,6.1699,6.1699,6.1699,6.1699,6.1699,6.1699,6.1699,6.1677,6.1676,6.1676,6.1676,6.163,6.163,6.1676,6.1676,6.1678,6.1699,6.1699,6.1699,6.1699,6.1699,6.1699,2.6577,2.7236,2.8736,0.0,0.0,0.0,4.1042,4.1938,4.2808,4.6231,4.6923,4.7173,4.7971,4.8105,4.8933,5.1462,5.2596,5.376,5.5434,5.5684,5.5684,5.5703,5.5703,5.5703,5.5703,5.5703,5.5703,5.5703,5.5756,5.5836,5.5895,5.5971,5.5998,5.6003,5.6012,5.6012,5.6012,5.6203,5.6292,5.6292,5.651,5.75,5.918,5.918,5.9199,5.9199,5.9199,5.9199,5.9199,5.9198,5.9153,5.9099,5.9109,5.9104,5.9104,5.9104,5.9017,5.889,5.889,5.8798,5.8715,5.8845,5.889,5.8901,5.9031,5.9085,5.9085,5.9083,5.9083,5.9083,5.9085,5.9729,6.038,6.0398,6.1045,6.1439,6.0566,6.039,6.039,6.039,6.039,6.0664,6.1522,6.1678,6.1676,6.1671,6.1675,6.1678,6.1697,6.1699,6.1699,6.1699,6.1699,6.1699,6.1699,6.1699,6.1677,6.1607,6.1603,6.1603,6.1603,6.1463,6.1456,6.1603,6.1603,6.1624,6.1699,6.1699,6.1699,6.1699,6.1699,6.1699,2.4985,2.7445,0.0,3.3116,0.0,0.0,0.0,4.4994,0.0,0.0,4.9086,4.8721,4.8971,4.8509,4.8548,4.9913,5.0875,5.2029,5.3703,5.4472,5.5068,5.5626,5.5703,5.5703,5.5703,5.5703,5.5724,5.5766,5.5787,5.5846,5.5971,5.599,5.5998,5.6003,5.6012,5.6012,5.6012,5.6203,5.6292,5.6292,5.651,5.6875,5.7383,5.8008,5.8281,5.832,5.8926,5.9199,5.9199,5.9198,5.9155,5.9107,5.9105,5.9104,5.9104,5.9104,5.873,5.8172,5.8094,5.8001,5.7844,5.7306,5.7524,5.7902,5.7465,5.7338,5.7336,5.735,5.7348,5.7348,5.7336,5.7943,5.873,5.9345,5.972,5.9861,5.9609,5.9551,5.9551,5.9551,5.955,5.9647,5.99,5.9898,5.9876,5.9875,5.9876,6.0092,6.0701,6.0781,6.1015,6.1621,6.1699,6.1699,6.1698,6.1698,6.1672,6.1593,6.1506,6.1459,6.1456,6.1426,6.1426,6.1456,6.1456,6.1467,6.1488,6.1588,6.1623,6.1623,6.1678,6.1699,2.632,2.9406,0.0,3.5717,3.9223,4.2858,4.5774,0.0,0.0,0.0,5.001,4.951,4.9856,4.9202,4.9009,5.0202,5.0837,5.1645,5.301,5.3685,5.4311,5.5119,5.5255,5.54,5.5747,5.5785,5.5806,5.5836,5.5856,5.5914,5.599,5.5998,5.5996,5.6003,5.6012,5.6012,5.6012,5.6168,5.6271,5.6292,5.6476,5.658,5.6621,5.7148,5.7383,5.7402,5.7949,5.8164,5.8164,5.8163,5.8141,5.8118,5.8116,5.8115,5.8115,5.8115,5.7805,5.7375,5.7297,5.7231,5.7116,5.6645,5.6818,5.7133,5.6719,5.6606,5.6605,5.66,5.6598,5.66,5.6605,5.696,5.7549,5.8412,5.8922,5.912,5.8769,5.8672,5.8672,5.8672,5.8671,5.8787,5.9117,5.9133,5.9108,5.9104,5.9107,5.9287,5.982,6.0194,6.0605,6.1131,6.1484,6.1698,6.1695,6.1647,6.1581,6.1491,6.1351,6.1266,6.1245,6.1272,6.1317,6.1365,6.1365,6.1367,6.1359,6.1514,6.1583,6.1559,6.1656,6.1699,2.9061,3.1994,3.5455,3.8818,4.059,0.0,4.6666,4.8459,4.9548,5.05,0.0,4.976,5.0558,5.0058,5.0019,5.1548,5.1798,5.2097,5.2982,5.3147,5.3485,5.4294,5.4449,5.4795,5.5586,5.5663,5.5663,5.5673,5.574,5.5767,5.5767,5.5773,5.5818,5.5896,5.5896,5.5935,5.6012,5.6119,5.6222,5.6292,5.6444,5.6548,5.6601,5.6582,5.6582,5.6582,5.6582,5.6582,5.6601,5.6601,5.66,5.6599,5.6596,5.6594,5.6594,5.6594,5.6597,5.66,5.66,5.6601,5.6601,5.66,5.66,5.6599,5.6595,5.6594,5.6593,5.6593,5.6593,5.6593,5.6593,5.6597,5.6795,5.7596,5.8397,5.8749,5.7949,5.7773,5.7773,5.7773,5.7772,5.8004,5.8742,5.8873,5.8863,5.887,5.8861,5.8909,5.8974,5.9682,6.0192,6.0265,6.0992,6.1499,6.1569,6.1454,6.1357,6.1291,6.1162,6.1076,6.0997,6.1051,6.1152,6.1274,6.1274,6.1265,6.1262,6.1463,6.1523,6.1495,6.161,6.1699,2.6857,3.0077,0.0,0.0,4.2003,4.5568,4.6538,4.7596,4.8817,5.0385,5.0558,5.0481,5.0673,5.0548,5.0548,5.0894,5.1009,5.1344,5.2203,5.2347,5.2665,5.3455,5.3571,5.3658,5.3831,5.385,5.3888,5.3925,5.3943,5.3988,5.4022,5.4031,5.4349,5.5045,5.5064,5.5354,5.5993,5.6119,5.6222,5.6292,5.6444,5.6548,5.6601,5.6551,5.6522,5.6522,5.6522,5.6554,5.6601,5.6601,5.6601,5.6601,5.6601,5.6601,5.6601,5.6601,5.6601,5.6601,5.6601,5.6601,5.6601,5.6601,5.6601,5.6601,5.6599,5.6598,5.6597,5.6594,5.6593,5.6594,5.6597,5.6599,5.6658,5.6835,5.7011,5.7109,5.6914,5.6875,5.6875,5.6875,5.6873,5.6926,5.7101,5.7148,5.7135,5.7133,5.7141,5.7363,5.7991,5.8291,5.8684,5.9308,5.9544,5.9883,6.0471,6.0508,6.0677,6.1108,6.1117,6.1059,6.0997,6.1018,6.103,6.106,6.106,6.1061,6.1051,6.1151,6.1246,6.1358,6.1478,6.159,2.7176,0.0,0.0,3.9909,0.0,4.5811,4.621,4.6931,4.7894,4.9183,4.9779,5.0212,5.0625,5.0702,5.071,5.0738,5.0784,5.0956,5.141,5.1505,5.1822,5.2633,5.2756,5.2938,5.3363,5.3402,5.3419,5.3445,5.3445,5.3453,5.3498,5.3498,5.371,5.4155,5.4175,5.4387,5.4793,5.4863,5.5139,5.5638,5.5732,5.6022,5.6454,5.6489,5.6508,5.6508,5.6508,5.6549,5.6601,5.6601,5.6601,5.6601,5.6601,5.6601,5.6601,5.6601,5.6601,5.6601,5.6601,5.6601,5.6601,5.6601,5.6601,5.6601,5.6601,5.6601,5.6601,5.6599,5.6599,5.6599,5.6601,5.6601,5.6601,5.6601,5.6601,5.6601,5.6601,5.6601,5.6601,5.66,5.6597,5.6592,5.6607,5.6596,5.6606,5.6606,5.6591,5.6751,5.7161,5.7543,5.7926,5.8348,5.8699,5.905,5.9445,5.9807,6.0148,6.0457,6.078,6.0931,6.0922,6.0891,6.0933,6.0987,6.0987,6.0976,6.0955,6.1058,6.1182,6.1304,6.1435,6.1573,2.7501,0.0,3.6978,4.2289,4.4168,0.0,4.5691,4.626,4.6848,4.7712,4.8586,4.9394,5.0133,5.0402,5.0517,5.057,5.0722,5.0819,5.0819,5.0872,5.114,5.1816,5.1945,5.226,5.2975,5.3053,5.3053,5.3053,5.3053,5.3053,5.3053,5.3053,5.3111,5.3265,5.3285,5.3343,5.3498,5.3498,5.3901,5.4692,5.4762,5.5187,5.5884,5.5999,5.6189,5.6475,5.6475,5.6525,5.6601,5.6601,5.6601,5.6601,5.6601,5.6601,5.6601,5.6601,5.6601,5.6601,5.6601,5.6601,5.6601,5.6601,5.6601,5.6601,5.6601,5.6601,5.6601,5.6601,5.6601,5.6601,5.6601,5.6601,5.6601,5.6601,5.6601,5.6601,5.66,5.6601,5.6601,5.6595,5.6592,5.6609,5.66,5.6593,5.6606,5.6606,5.6606,5.6582,5.655,5.7024,5.7373,5.7342,5.7884,5.8305,5.8427,5.9008,5.9456,5.9737,6.0278,6.0646,6.0781,6.08,6.0846,6.0965,6.0965,6.0944,6.088,6.1031,6.1151,6.1292,6.1437,6.1565,2.4417,0.0,3.7418,0.0,4.3292,4.4544,0.0,0.0,4.5744,4.6838,4.7721,4.8326,4.8487,4.9157,4.9682,4.9743,5.0402,5.0882,5.0882,5.089,5.0929,5.1045,5.1072,5.1111,5.1246,5.1246,5.1246,5.1246,5.1246,5.1246,5.1246,5.1246,5.1583,5.2345,5.2364,5.2751,5.3478,5.3498,5.3591,5.3784,5.3969,5.4118,5.4211,5.4238,5.5017,5.6328,5.6328,5.6438,5.6601,5.6601,5.6601,5.6601,5.6601,5.6601,5.6601,5.6601,5.6601,5.6601,5.6601,5.6601,5.6601,5.6601,5.6601,5.66,5.66,5.6598,5.6596,5.6599,5.66,5.66,5.6601,5.6601,5.66,5.66,5.6597,5.6596,5.6599,5.6597,5.6595,5.6593,5.6607,5.66,5.661,5.6606,5.6606,5.6606,5.6606,5.6545,5.6357,5.6412,5.6421,5.6309,5.6388,5.671,5.7359,5.7491,5.8114,5.9452,5.963,6.0012,6.0762,6.08,6.0812,6.0823,6.0823,6.0823,6.0812,6.0953,6.1079,6.122,6.1412,6.1565,2.659,3.1307,3.5888,0.0,4.2609,4.3555,4.4624,4.5082,4.5457,4.5966,4.6396,4.7017,4.805,4.8566,4.885,4.8914,4.9653,5.0221,5.0221,5.0608,5.0898,5.0898,5.0898,5.0898,5.0898,5.0898,5.0898,5.0898,5.0898,5.0898,5.0898,5.0898,5.1072,5.1467,5.1467,5.166,5.2047,5.2047,5.2368,5.3001,5.3564,5.3854,5.3908,5.3908,5.454,5.5688,5.5688,5.6027,5.6601,5.6601,5.6601,5.6601,5.6601,5.6601,5.6601,5.6601,5.6601,5.6601,5.6601,5.6601,5.6601,5.6601,5.66,5.6599,5.6597,5.6595,5.6593,5.6596,5.6596,5.6597,5.6598,5.6597,5.6597,5.6598,5.6594,5.6607,5.6593,5.6593,5.6592,5.6607,5.66,5.6591,5.6606,5.6606,5.6558,5.6446,5.642,5.6367,5.6214,5.613,5.6061,5.599,5.5921,5.5999,5.6338,5.6811,5.7387,5.8061,5.8973,5.9665,6.0069,6.0531,6.08,6.08,6.08,6.08,6.08,6.0856,6.0954,6.1095,6.1253,6.1422,0.0,0.0,3.2975,3.8457,4.0589,4.1846,0.0,0.0,4.5004,4.5245,4.5438,4.5979,4.7292,4.78,4.8013,4.8087,4.8845,4.9413,4.9398,4.9928,5.0315,5.0298,5.0305,5.032,5.032,5.032,5.0398,5.061,5.0615,5.0716,5.091,5.0914,5.0898,5.0898,5.0898,5.0898,5.0898,5.0898,5.1334,5.2181,5.284,5.3188,5.326,5.326,5.3749,5.4589,5.4773,5.5397,5.6269,5.6269,5.6406,5.6601,5.6601,5.6601,5.6601,5.6601,5.6601,5.6601,5.6601,5.6601,5.6562,5.6345,5.6265,5.6225,5.6006,5.5945,5.5944,5.5946,5.5946,5.5946,5.5948,5.6104,5.6279,5.6262,5.6432,5.6598,5.6602,5.6605,5.6584,5.6528,5.6516,5.6525,5.652,5.6491,5.6425,5.6266,5.6237,5.6158,5.6027,5.5913,5.5855,5.5855,5.5768,5.5703,5.5703,5.631,5.6772,5.6983,5.8165,5.8954,5.9184,6.0012,6.0473,6.0473,6.0685,6.08,6.08,6.0831,6.0901,6.1002,6.1132,6.1285,0.0,2.5037,0.0,3.2851,3.6212,3.9144,0.0,4.3125,4.395,4.4844,4.5292,4.5495,4.5467,4.6379,4.7172,4.7256,4.8044,4.8632,4.8574,4.8646,4.8699,4.8626,4.8683,4.8718,4.8718,4.8718,4.9048,4.9806,4.986,5.0195,5.0951,5.0925,5.0898,5.0898,5.0898,5.0898,5.0898,5.0898,5.1018,5.1261,5.132,5.1394,5.1523,5.1523,5.2011,5.2871,5.3632,5.4497,5.5371,5.5371,5.5859,5.6601,5.6601,5.6601,5.6601,5.6601,5.6601,5.6599,5.6599,5.6597,5.6457,5.5637,5.536,5.5217,5.4397,5.4137,5.4131,5.414,5.4143,5.4144,5.4131,5.4754,5.5373,5.5373,5.5991,5.6606,5.6606,5.6606,5.6536,5.6356,5.6316,5.6327,5.6315,5.6208,5.6116,5.611,5.6049,5.5941,5.5738,5.5716,5.5705,5.5705,5.5695,5.5703,5.5703,5.5742,5.6107,5.6945,5.708,5.7492,5.8338,5.9146,5.9569,5.9569,6.0377,6.08,6.08,6.0923,6.0993,6.1002,6.1132,6.1213,0.0,0.0,0.0,3.0938,3.3677,3.5981,3.8601,4.0715,4.2409,4.3394,4.4154,4.4867,4.55,4.6007,4.636,4.6419,4.7187,4.7735,4.7678,4.8164,4.853,4.8509,4.8516,4.8547,4.8608,4.8608,4.8724,4.9015,4.9,4.9097,4.9388,4.986,5.0132,5.0132,5.0627,5.0932,5.103,5.103,5.1122,5.1249,5.126,5.1312,5.1405,5.1404,5.1579,5.1871,5.2176,5.3117,5.4472,5.447,5.4645,5.4938,5.4938,5.4938,5.4938,5.4938,5.4937,5.4936,5.4936,5.4935,5.4874,5.4578,5.4476,5.4415,5.4096,5.3992,5.399,5.3994,5.3996,5.3996,5.4,5.4232,5.4574,5.5064,5.5255,5.5486,5.614,5.6355,5.6386,5.6316,5.6237,5.62,5.629,5.6191,5.6097,5.6035,5.5978,5.5872,5.5716,5.5703,5.5703,5.5703,5.5703,5.5703,5.5703,5.5703,5.5818,5.6156,5.6695,5.7137,5.7453,5.828,5.8723,5.8723,5.905,5.9723,6.08,6.0853,6.0867,6.0877,6.1011,6.1062,2.0201,0.0,0.0,0.0,3.0795,3.2567,3.6187,3.8562,4.0324,4.15,4.2833,4.4053,4.4994,4.5357,4.5648,4.5973,4.6553,4.693,4.6843,4.7344,4.7704,4.7643,4.7649,4.7686,4.7741,4.7766,4.7893,4.82,4.8172,4.8242,4.8515,4.9032,4.932,4.9299,4.9821,5.015,5.0225,5.0522,5.0733,5.0873,5.1153,5.1343,5.1403,5.14,5.1398,5.1398,5.1396,5.2219,5.3551,5.3568,5.3743,5.3997,5.3997,5.3973,5.3923,5.3923,5.3895,5.3877,5.3877,5.3906,5.3873,5.3594,5.3522,5.3512,5.3212,5.3132,5.3132,5.3132,5.3132,5.3132,5.3132,5.3316,5.3676,5.4416,5.4436,5.4527,5.5494,5.6002,5.627,5.6181,5.6091,5.6049,5.6082,5.6013,5.5954,5.5917,5.5864,5.5808,5.5705,5.5703,5.5703,5.5703,5.5703,5.5703,5.5703,5.5703,5.5703,5.5703,5.6252,5.656,5.656,5.7396,5.7857,5.7857,5.8146,5.8858,5.9954,6.0223,6.0512,6.0812,6.089,6.0933,0.0,0.0,0.0,0.0,0.0,0.0,3.4614,3.6566,3.7644,3.9237,4.1281,4.2985,4.3713,4.435,4.5053,4.5926,4.6209,4.6244,4.6122,4.617,4.6118,4.5927,4.5964,4.6017,4.6089,4.6093,4.6485,4.7381,4.7399,4.7699,4.8488,4.8555,4.8545,4.8503,4.8503,4.8496,4.8516,4.9349,4.9835,4.9984,5.0845,5.1306,5.1359,5.1378,5.1397,5.1397,5.139,5.1879,5.2667,5.2668,5.3156,5.3917,5.3917,5.384,5.3718,5.3718,5.3638,5.3514,5.3514,5.3604,5.3584,5.2746,5.2542,5.2509,5.1668,5.1394,5.1394,5.1392,5.1392,5.1394,5.1392,5.1918,5.2639,5.3374,5.3559,5.3792,5.466,5.5569,5.6144,5.5904,5.5849,5.5787,5.5707,5.5684,5.5665,5.5703,5.5703,5.5703,5.5703,5.5703,5.5703,5.5703,5.5703,5.5703,5.5703,5.5703,5.5703,5.5703,5.5703,5.5703,5.5703,5.6522,5.6964,5.6964,5.778,5.8242,5.8261,5.9069,5.9896,6.0723,6.0723,6.0742,2.0026,0.0,0.0,0.0,0.0,0.0,2.8472,3.0549,3.2904,3.5967,3.8024,3.9941,4.2113,4.3257,4.4137,4.5014,4.58,4.6267,4.6173,4.6159,4.6091,4.5988,4.5961,4.5939,4.6017,4.6022,4.6163,4.6461,4.6421,4.6518,4.6775,4.7339,4.7947,4.8545,4.8568,4.8593,4.8635,4.8889,4.9073,4.9219,5.0039,5.0445,5.0474,5.1001,5.1313,5.14,5.1191,5.1288,5.1625,5.1722,5.1891,5.2103,5.201,5.1941,5.1916,5.1814,5.1758,5.1725,5.1725,5.1814,5.1885,5.1632,5.1645,5.1707,5.1472,5.1394,5.1388,5.1288,5.1327,5.1386,5.1288,5.1298,5.1534,5.2337,5.2511,5.2733,5.3509,5.3956,5.4377,5.4915,5.4437,5.4313,5.5502,5.5222,5.503,5.5607,5.5703,5.5703,5.5703,5.5703,5.5703,5.5703,5.5703,5.5703,5.5703,5.5703,5.5703,5.5703,5.5703,5.5703,5.5703,5.5934,5.6049,5.6049,5.6299,5.6722,5.7368,5.8223,5.8761,5.8992,5.8992,5.93,0.0,0.0,0.0,0.0,0.0,0.0,2.6816,2.8389,3.0273,3.3146,3.5105,3.7151,3.983,4.0907,4.1896,4.3455,4.4551,4.5447,4.611,4.6162,4.6125,4.6053,4.5978,4.5956,4.6008,4.5993,4.6022,4.6093,4.6089,4.6111,4.6141,4.6567,4.7021,4.7533,4.7567,4.7582,4.7658,4.8027,4.8259,4.8372,4.9139,4.969,5.0028,5.0435,5.0847,5.1218,5.1063,5.1042,5.1128,5.1203,5.1222,5.1238,5.1146,5.1098,5.107,5.0992,5.0925,5.0867,5.0867,5.0966,5.1075,5.1075,5.1152,5.1222,5.1222,5.1222,5.1211,5.1141,5.1163,5.1203,5.1108,5.0985,5.0987,5.1415,5.1513,5.1718,5.2492,5.2454,5.2622,5.3839,5.36,5.351,5.4491,5.4568,5.4664,5.5126,5.5491,5.5703,5.5703,5.5703,5.5703,5.5703,5.5703,5.5703,5.5703,5.5703,5.5703,5.5703,5.5703,5.5703,5.5703,5.5703,5.5703,5.5703,5.5703,5.5953,5.6464,5.7319,5.7934,5.83,5.83,5.855,0.0,0.0,0.0,0.0,0.0,0.0,2.7566,2.837,2.9042,3.0673,3.2364,3.4337,3.6844,3.768,3.8725,4.1,4.2444,4.3925,4.5802,4.6147,4.6189,4.6122,4.6044,4.6003,4.6009,4.6012,4.6047,4.6095,4.6157,4.6195,4.6191,4.6133,4.6116,4.6108,4.6111,4.6157,4.6205,4.6988,4.7383,4.7437,4.8201,4.8922,4.9609,4.9614,5.0031,5.073,5.0784,5.0836,5.0848,5.0927,5.0978,5.1002,5.099,5.0952,5.0894,5.0871,5.0801,5.0712,5.0712,5.0784,5.0894,5.0894,5.0958,5.1002,5.1002,5.1002,5.1002,5.1002,5.0984,5.0959,5.0905,5.0898,5.085,5.0731,5.0712,5.0894,5.1606,5.1202,5.1135,5.2626,5.2914,5.2953,5.3049,5.3703,5.4241,5.4337,5.5049,5.5568,5.5568,5.5645,5.5703,5.5703,5.5703,5.5703,5.5703,5.5703,5.5703,5.5703,5.5703,5.5703,5.5703,5.5703,5.5703,5.5703,5.5703,5.5703,5.5703,5.6483,5.7242,5.8011,5.8011,5.8069,0.0,0.0,0.0,0.0,0.0,0.0,2.53,2.6291,2.794,2.8409,2.9375,3.0731,3.2659,3.4295,3.5507,3.5994,3.8642,4.1718,4.4804,4.5789,4.6202,4.6183,4.6123,4.6089,4.6069,4.6086,4.6095,4.6104,4.6165,4.6195,4.6199,4.6198,4.6178,4.6181,4.6229,4.6269,4.6289,4.6442,4.6484,4.6396,4.7242,4.7685,4.7743,4.8341,4.8748,4.9013,4.9502,4.9771,4.9926,5.0518,5.0856,5.0996,5.0944,5.0898,5.0898,5.0785,5.0721,5.0712,5.0712,5.0784,5.0894,5.0894,5.0958,5.1002,5.1002,5.1002,5.1002,5.1002,5.0882,5.0773,5.0882,5.0827,5.074,5.0721,5.0712,5.075,5.0894,5.0808,5.0808,5.1116,5.1183,5.1395,5.2038,5.2288,5.2654,5.3356,5.4184,5.4722,5.4722,5.5299,5.5703,5.5703,5.5703,5.5703,5.5703,5.5703,5.5703,5.5703,5.5703,5.5703,5.5703,5.5703,5.5703,5.5703,5.5703,5.5703,5.5703,5.5857,5.603,5.6203,5.6203,5.6569,0.0,0.0,0.0,2.7409,0.0,0.0,0.0,2.6508,2.6823,2.8663,2.8448,2.87,3.1318,3.2262,3.2937,3.3816,3.6572,3.9199,4.0918,4.3359,4.4959,4.4941,4.4887,4.5024,4.5459,4.5508,4.5687,4.6116,4.6181,4.6207,4.6249,4.6249,4.625,4.6248,4.6282,4.63,4.6301,4.6238,4.6164,4.6092,4.6439,4.6777,4.7101,4.7457,4.7859,4.8314,4.8619,4.8795,4.8902,4.973,5.011,5.0241,5.0643,5.0801,5.0793,5.0731,5.0712,5.0712,5.0712,5.074,5.0801,5.0801,5.0822,5.0848,5.0848,5.0848,5.0848,5.0848,5.0782,5.0712,5.0775,5.0749,5.0712,5.0712,5.0712,5.0712,5.0712,5.0712,5.0712,5.0712,5.0712,5.0827,5.1221,5.1635,5.2038,5.2481,5.3299,5.3857,5.3857,5.4587,5.5107,5.5107,5.5453,5.5703,5.5703,5.5703,5.5703,5.5703,5.5703,5.5703,5.5703,5.5703,5.5703,5.5703,5.5703,5.5703,5.5703,5.5703,5.5703,5.5703,5.5703,5.5934,0.0,0.0,0.0,0.0,0.0,2.7876,0.0,0.0,0.0,2.9295,2.8247,2.7726,3.0545,3.0607,3.0618,3.1865,3.4442,3.6191,3.5858,3.9371,4.2142,4.2669,4.2969,4.3396,4.41,4.4016,4.4425,4.5623,4.5409,4.5469,4.6012,4.6206,4.63,4.6302,4.6273,4.6269,4.6269,4.6135,4.6057,4.6057,4.5885,4.6148,4.6772,4.6684,4.7009,4.7625,4.7798,4.7875,4.7952,4.8798,4.9144,4.924,5.0289,5.0712,5.0712,5.0712,5.0712,5.0712,5.0712,5.0712,5.0712,5.0712,5.0712,5.0712,5.0712,5.0712,5.0712,5.0712,5.0712,5.0712,5.0712,5.0712,5.0712,5.0712,5.0712,5.0712,5.0712,5.0712,5.0712,5.0712,5.0712,5.0712,5.0712,5.1241,5.1673,5.1673,5.2414,5.2953,5.2953,5.3703,5.4241,5.4241,5.4972,5.5472,5.5472,5.5607,5.5703,5.5703,5.5703,5.5703,5.5703,5.5703,5.5703,5.5703,5.5703,5.5703,5.5703,5.5703,5.5703,5.5703,5.5703,5.5703,0.0,0.0,0.0,0.0,3.1177,0.0,0.0,0.0,2.9378,2.831,0.0,2.7951,2.8354,0.0,0.0,2.7721,3.0481,3.2166,3.0681,3.3509,3.6571,3.8896,4.0479,4.1417,4.1527,4.0826,4.1372,4.3791,4.2541,4.2696,4.5015,4.5875,4.6303,4.63,4.6181,4.6112,4.6112,4.5992,4.592,4.592,4.5841,4.5845,4.5935,4.5806,4.5806,4.5941,4.6701,4.7038,4.7096,4.7913,4.8259,4.8413,5.0048,5.0712,5.0712,5.0712,5.0712,5.0712,5.0712,5.0712,5.0712,5.0712,5.0712,5.0712,5.0712,5.0712,5.0712,5.0712,5.0712,5.0712,5.0712,5.0712,5.0712,5.0712,5.0712,5.0712,5.0712,5.0712,5.0712,5.0712,5.0712,5.0712,5.0712,5.0789,5.0846,5.0846,5.1529,5.2038,5.2038,5.2818,5.3356,5.3356,5.4126,5.4645,5.4645,5.528,5.5703,5.5703,5.5703,5.5703,5.5703,5.5703,5.5703,5.5703,5.5703,5.5703,5.5703,5.5703,5.5703,5.5703,5.5703,5.5703,0.0,0.0,0.0,0.0,0.0,0.0,2.8905,0.0,2.7666,0.0,0.0,0.0,0.0,0.0,0.0,0.0,2.9273,3.0168,2.8964,3.0898,3.3221,3.5322,3.6196,3.7227,3.8747,3.9019,3.9958,4.2046,4.1009,4.1401,4.3994,4.4917,4.5597,4.6041,4.6009,4.5987,4.5987,4.59,4.5835,4.5835,4.5723,4.5684,4.5684,4.5629,4.5594,4.5614,4.599,4.6144,4.6201,4.7067,4.7413,4.7528,4.8721,4.949,5.001,5.0519,5.0712,5.0712,5.0712,5.0712,5.0712,5.0712,5.0712,5.0712,5.0712,5.0712,5.0712,5.0712,5.0712,5.0712,5.0712,5.0712,5.0712,5.0712,5.0712,5.0712,5.0712,5.0712,5.0712,5.0712,5.0712,5.0712,5.0712,5.0712,5.0712,5.0712,5.0991,5.1202,5.1202,5.1933,5.2442,5.2442,5.3241,5.3953,5.4453,5.4799,5.5203,5.5665,5.5703,5.5703,5.5703,5.5703,5.5703,5.5703,5.5703,5.5703,5.5703,5.5703,5.5703,5.5703,5.5703,5.5703,3.3344,0.0,0.0,0.0,0.0,0.0,0.0,0.0,0.0,0.0,0.0,0.0,0.0,0.0,0.0,0.0,0.0,2.9019,2.7665,2.8785,3.0293,3.1825,3.2404,3.3533,3.5662,3.6034,3.7127,3.9527,3.861,3.9373,4.2646,4.3785,4.4725,4.5555,4.5775,4.5875,4.5875,4.5801,4.5764,4.58,4.566,4.562,4.5643,4.5612,4.5594,4.5594,4.5594,4.5594,4.5652,4.6278,4.6547,4.6624,4.7451,4.8163,4.8817,4.9663,4.999,4.999,4.999,4.999,4.999,4.999,4.999,4.999,4.999,4.999,4.999,4.999,5.0164,5.0346,5.0346,5.0519,5.0712,5.0712,5.0712,5.0712,5.0712,5.0712,5.0712,5.0712,5.0712,5.0712,5.0712,5.0712,5.0712,5.0712,5.0712,5.0712,5.0712,5.1202,5.1568,5.1568,5.2337,5.3106,5.3722,5.401,5.4395,5.4972,5.5011,5.5011,5.5011,5.5011,5.5126,5.5376,5.5376,5.5472,5.5703,5.5703,5.5703,5.5703,5.5703,5.5703,3.6185,3.6403,3.5966,3.0931,3.0471,3.0426,2.7249,2.8433,3.0256,0.0,0.0,0.0,0.0,0.0,0.0,0.0,0.0,0.0,0.0,2.6453,2.7383,2.8345,2.9904,3.125,3.2189,3.0822,3.1621,3.5856,3.4512,3.5727,4.0815,4.2579,4.3836,4.4705,4.5441,4.5794,4.5794,4.5668,4.5668,4.58,4.566,4.5668,4.5793,4.5651,4.5594,4.5594,4.5594,4.5594,4.5594,4.5633,4.5633,4.5729,4.6605,4.6962,4.7077,4.7894,4.8182,4.8182,4.8182,4.8182,4.8182,4.8182,4.8182,4.8182,4.8182,4.8182,4.8182,4.8182,4.8798,4.9433,4.9433,5.0067,5.0712,5.0712,5.0712,5.0712,5.0712,5.0712,5.0712,5.0712,5.0712,5.0712,5.0712,5.0712,5.0712,5.0712,5.0712,5.0712,5.0712,5.0731,5.075,5.075,5.1471,5.1942,5.1981,5.276,5.326,5.328,5.328,5.328,5.328,5.328,5.3683,5.4511,5.453,5.4914,5.5703,5.5703,5.5703,5.5703,5.5703,5.5703,3.7028,3.7632,3.7451,3.3449,3.2405,3.1482,2.8155,2.8522,2.9382,2.8856,0.0,0.0,0.0,0.0,0.0,0.0,0.0,0.0,0.0,2.6267,2.6224,2.6547,0.0,0.0,2.9552,2.9064,3.0274,3.4001,3.3106,3.4377,3.896,4.0651,4.2149,4.361,4.44,4.5081,4.5668,4.562,4.562,4.5668,4.562,4.5629,4.566,4.562,4.5594,4.5594,4.5594,4.5594,4.5594,4.5594,4.5594,4.5633,4.5913,4.6028,4.6201,4.7586,4.8105,4.8105,4.8105,4.8105,4.8105,4.8105,4.8105,4.8105,4.8105,4.8097,4.8097,4.8097,4.8279,4.8615,4.9182,4.9538,4.9932,5.0548,5.0712,5.0712,5.0712,5.0712,5.0702,5.0633,5.0633,5.0633,5.0633,5.0633,5.0643,5.0683,5.0712,5.0712,5.0712,5.0712,5.0712,5.0712,5.0933,5.1318,5.1846,5.2692,5.3203,5.3203,5.3203,5.3203,5.3203,5.3203,5.3337,5.3626,5.4203,5.4626,5.4914,5.5434,5.5703,5.5703,5.5703,5.5703,3.8061,3.8525,3.8331,3.5157,3.4088,3.2949,2.9563,2.989,3.0697,2.9877,3.1717,3.3594,0.0,0.0,0.0,0.0,0.0,0.0,0.0,2.6015,0.0,0.0,0.0,0.0,0.0,2.7288,2.8458,3.2186,3.1562,3.2881,3.7141,3.9103,4.0889,4.2585,4.372,4.472,4.5594,4.5594,4.5594,4.5594,4.5594,4.5594,4.5594,4.5594,4.5594,4.5594,4.5594,4.5594,4.5594,4.5594,4.5594,4.5594,4.5594,4.5594,4.5729,4.6817,4.7201,4.7201,4.7201,4.7201,4.7201,4.7201,4.7201,4.7221,4.7183,4.7175,4.7165,4.7146,4.7328,4.7673,4.8231,4.8845,4.9451,5.0057,5.0462,5.0712,5.0712,5.0712,5.0673,5.0613,5.0603,5.0603,5.0603,5.0603,5.0623,5.0683,5.0712,5.0712,5.0712,5.0712,5.0712,5.0712,5.0712,5.0914,5.1433,5.1991,5.2318,5.2318,5.2318,5.2318,5.2318,5.2318,5.2452,5.2741,5.3299,5.3722,5.4049,5.4568,5.4818,5.4818,5.4818,5.4818]}]]